[[{"header":{"parameterUnit":"m.s-1","parameterCategory":1,"la1":30.6,"la2":29.2853,"lo1":-89.7004,"lo2":-87.6739,"dy":0.0162,"dx":0.0183,"nx":112,"ny":82,"refTime":"2023-03-16T00:00:00:Z","depth":0,"parameterNumber":2,"parameterNumberName":"U-component_of_WINDS"},"data":[0.0,0.0,0.0,0.0,0.0,0.0,0.0,0.0,0.0,0.0,0.0,0.0,0.0,0.0,0.0,0.0,0.0,0.0,0.0,0.0,0.0,0.0,0.0,0.0,0.0,0.0,0.0,0.0,0.0,0.0,0.0,0.0,0.0,0.0,0.0,0.0,0.0,0.0,0.0,0.0,0.0,0.0,0.0,0.0,0.0,0.0,0.0,0.0,0.0,0.0,0.0,0.0,0.0,0.0,0.0,0.0,0.0,0.0,0.0,0.0,0.0,0.0,0.0,0.0,0.0,0.0,0.0,0.0,0.0,0.0,0.0,0.0,0.0,0.0,0.0,0.0,0.0,0.0,0.0,0.0,0.0,0.0,0.0,0.0,0.0,0.0,0.0,0.0,0.0,0.0,-6.0003,-6.6836,-7.5666,-7.9477,-7.5438,-7.3745,-6.809,-5.6819,0.0,0.0,0.0,0.0,0.0,0.0,0.0,0.0,0.0,0.0,0.0,0.0,0.0,0.0,0.0,0.0,0.0,0.0,0.0,0.0,0.0,0.0,0.0,0.0,0.0,0.0,0.0,0.0,0.0,0.0,0.0,0.0,0.0,0.0,0.0,0.0,0.0,0.0,0.0,0.0,0.0,0.0,0.0,0.0,0.0,0.0,0.0,0.0,0.0,0.0,0.0,0.0,0.0,0.0,0.0,0.0,0.0,0.0,0.0,0.0,0.0,0.0,0.0,0.0,0.0,0.0,0.0,0.0,0.0,0.0,0.0,0.0,0.0,0.0,0.0,0.0,0.0,0.0,0.0,0.0,0.0,0.0,0.0,0.0,0.0,0.0,0.0,0.0,0.0,0.0,0.0,0.0,0.0,0.0,0.0,0.0,0.0,0.0,0.0,0.0,0.0,0.0,0.0,0.0,-6.2525,-7.3341,-7.8453,-7.9977,-7.713,-7.2822,-6.6744,-5.8434,0.0,0.0,0.0,0.0,0.0,0.0,0.0,0.0,0.0,0.0,0.0,0.0,0.0,0.0,0.0,0.0,0.0,0.0,0.0,0.0,0.0,0.0,0.0,0.0,0.0,0.0,0.0,0.0,0.0,0.0,0.0,0.0,0.0,0.0,0.0,0.0,0.0,0.0,0.0,0.0,0.0,0.0,0.0,0.0,0.0,0.0,0.0,0.0,0.0,0.0,0.0,0.0,0.0,0.0,0.0,0.0,0.0,0.0,0.0,0.0,0.0,0.0,0.0,0.0,0.0,0.0,0.0,0.0,0.0,0.0,0.0,0.0,0.0,0.0,0.0,0.0,0.0,0.0,0.0,0.0,0.0,0.0,0.0,0.0,0.0,0.0,0.0,0.0,0.0,0.0,0.0,0.0,0.0,0.0,0.0,0.0,0.0,0.0,0.0,0.0,0.0,0.0,0.0,-6.0893,-6.658,-7.6929,-7.9862,-8.0054,-7.7515,-7.3014,-6.709,-5.9435,-5.285,0.0,0.0,0.0,0.0,0.0,0.0,0.0,0.0,0.0,0.0,0.0,0.0,0.0,0.0,0.0,0.0,0.0,0.0,0.0,0.0,0.0,0.0,0.0,0.0,0.0,0.0,0.0,0.0,0.0,0.0,0.0,0.0,0.0,0.0,0.0,0.0,0.0,0.0,0.0,0.0,0.0,0.0,0.0,0.0,0.0,0.0,0.0,0.0,0.0,0.0,0.0,0.0,0.0,0.0,0.0,0.0,0.0,0.0,0.0,0.0,0.0,0.0,0.0,0.0,0.0,0.0,0.0,0.0,0.0,0.0,0.0,0.0,0.0,0.0,0.0,0.0,0.0,0.0,0.0,0.0,0.0,0.0,0.0,0.0,0.0,0.0,0.0,0.0,0.0,0.0,0.0,0.0,0.0,0.0,0.0,0.0,0.0,0.0,0.0,0.0,0.0,0.0,-6.6506,-7.0927,-7.9223,-8.0708,-8.0131,-7.7784,-7.2552,-6.6667,-6.0204,-5.1529,0.0,0.0,0.0,0.0,0.0,0.0,0.0,0.0,0.0,0.0,0.0,0.0,0.0,0.0,0.0,0.0,0.0,0.0,0.0,0.0,0.0,0.0,0.0,0.0,0.0,0.0,0.0,0.0,0.0,0.0,0.0,0.0,0.0,0.0,0.0,0.0,0.0,0.0,0.0,0.0,0.0,0.0,0.0,0.0,0.0,0.0,0.0,0.0,0.0,0.0,0.0,0.0,0.0,0.0,0.0,0.0,0.0,0.0,0.0,0.0,0.0,0.0,0.0,0.0,0.0,0.0,0.0,0.0,0.0,0.0,0.0,0.0,0.0,0.0,0.0,0.0,0.0,0.0,0.0,0.0,0.0,0.0,0.0,0.0,0.0,0.0,0.0,0.0,0.0,0.0,0.0,0.0,0.0,0.0,0.0,0.0,0.0,0.0,0.0,0.0,0.0,0.0,-6.9181,-7.5029,-8.0439,-8.1054,-8.0362,-7.8554,-7.0206,-6.3782,-6.0896,-4.9846,0.0,0.0,0.0,0.0,0.0,0.0,0.0,0.0,0.0,0.0,0.0,0.0,0.0,0.0,0.0,0.0,0.0,0.0,0.0,0.0,0.0,0.0,0.0,0.0,0.0,0.0,0.0,0.0,0.0,0.0,0.0,0.0,0.0,0.0,0.0,0.0,0.0,0.0,0.0,0.0,0.0,0.0,0.0,0.0,0.0,0.0,0.0,0.0,0.0,0.0,0.0,0.0,0.0,0.0,0.0,0.0,0.0,0.0,0.0,0.0,0.0,0.0,0.0,0.0,0.0,0.0,0.0,0.0,0.0,0.0,0.0,0.0,0.0,0.0,0.0,0.0,0.0,0.0,0.0,0.0,0.0,0.0,0.0,0.0,0.0,0.0,0.0,0.0,0.0,0.0,0.0,0.0,0.0,0.0,0.0,0.0,0.0,0.0,0.0,0.0,0.0,0.0,-6.7761,-7.3742,-8.0377,-8.1093,-8.04,-7.8631,-7.236,-6.632,-6.1127,0.0,0.0,0.0,0.0,0.0,0.0,0.0,0.0,0.0,0.0,0.0,0.0,0.0,0.0,0.0,0.0,0.0,0.0,0.0,0.0,0.0,0.0,0.0,0.0,0.0,0.0,0.0,0.0,0.0,0.0,0.0,0.0,0.0,0.0,0.0,0.0,0.0,0.0,0.0,0.0,0.0,0.0,0.0,0.0,0.0,0.0,0.0,0.0,0.0,0.0,0.0,0.0,0.0,0.0,0.0,0.0,0.0,0.0,0.0,0.0,0.0,0.0,0.0,0.0,0.0,0.0,0.0,0.0,0.0,0.0,0.0,0.0,0.0,0.0,0.0,0.0,0.0,0.0,0.0,0.0,0.0,0.0,0.0,0.0,0.0,0.0,0.0,0.0,0.0,0.0,0.0,0.0,0.0,0.0,0.0,0.0,0.0,0.0,0.0,0.0,0.0,0.0,-6.2043,-6.8042,-7.414,-8.0416,-8.1093,-8.04,-7.8631,-7.2591,-6.659,-6.1127,0.0,0.0,0.0,0.0,0.0,0.0,0.0,0.0,0.0,0.0,0.0,0.0,0.0,0.0,0.0,0.0,0.0,0.0,0.0,0.0,0.0,0.0,0.0,0.0,0.0,0.0,0.0,0.0,0.0,0.0,0.0,0.0,0.0,0.0,0.0,0.0,0.0,0.0,0.0,0.0,0.0,0.0,0.0,0.0,0.0,0.0,0.0,0.0,0.0,0.0,0.0,0.0,0.0,0.0,0.0,0.0,0.0,0.0,0.0,0.0,0.0,0.0,0.0,0.0,0.0,0.0,0.0,0.0,0.0,0.0,0.0,0.0,0.0,0.0,0.0,0.0,0.0,0.0,0.0,0.0,0.0,0.0,0.0,0.0,0.0,0.0,0.0,0.0,0.0,0.0,0.0,0.0,0.0,0.0,0.0,0.0,0.0,0.0,0.0,0.0,0.0,0.0,-6.3146,-7.0908,-7.7323,-8.0746,-8.1093,-8.04,-7.8631,-7.0014,-6.3551,0.0,0.0,0.0,0.0,0.0,0.0,0.0,0.0,0.0,0.0,0.0,0.0,0.0,0.0,0.0,0.0,0.0,0.0,0.0,0.0,0.0,0.0,0.0,0.0,0.0,0.0,0.0,0.0,0.0,0.0,0.0,0.0,0.0,0.0,0.0,0.0,0.0,0.0,0.0,0.0,0.0,0.0,0.0,0.0,0.0,0.0,0.0,0.0,0.0,0.0,0.0,0.0,0.0,0.0,0.0,0.0,0.0,0.0,0.0,0.0,0.0,0.0,0.0,0.0,0.0,0.0,0.0,0.0,0.0,0.0,0.0,0.0,0.0,0.0,0.0,0.0,0.0,0.0,0.0,0.0,0.0,0.0,0.0,0.0,0.0,0.0,0.0,0.0,0.0,0.0,0.0,0.0,0.0,0.0,0.0,0.0,0.0,0.0,0.0,0.0,0.0,0.0,0.0,-6.2362,-7.105,-7.7977,-8.0785,-8.1093,-8.04,-7.8631,-7.2668,-6.6667,-6.1127,0.0,0.0,0.0,0.0,0.0,0.0,0.0,0.0,0.0,0.0,0.0,0.0,0.0,0.0,0.0,0.0,0.0,0.0,0.0,0.0,0.0,0.0,0.0,0.0,0.0,0.0,0.0,0.0,0.0,0.0,0.0,0.0,0.0,0.0,0.0,0.0,0.0,0.0,0.0,0.0,0.0,0.0,0.0,0.0,0.0,0.0,0.0,0.0,0.0,0.0,0.0,0.0,0.0,0.0,0.0,0.0,0.0,0.0,0.0,0.0,0.0,0.0,0.0,0.0,0.0,0.0,0.0,0.0,0.0,0.0,0.0,0.0,0.0,0.0,0.0,0.0,0.0,0.0,0.0,0.0,0.0,0.0,0.0,0.0,0.0,0.0,0.0,0.0,0.0,0.0,0.0,0.0,0.0,0.0,0.0,0.0,0.0,0.0,0.0,0.0,0.0,0.0,-6.2548,-7.1321,-7.8284,-8.0823,-8.1093,-8.04,-7.8631,-7.413,-6.8359,-6.1243,0.0,0.0,0.0,0.0,0.0,0.0,0.0,0.0,0.0,0.0,0.0,0.0,0.0,0.0,0.0,0.0,0.0,0.0,0.0,0.0,0.0,0.0,0.0,0.0,0.0,0.0,0.0,0.0,0.0,0.0,0.0,0.0,0.0,0.0,0.0,0.0,0.0,0.0,0.0,0.0,0.0,0.0,0.0,0.0,0.0,0.0,0.0,0.0,0.0,0.0,0.0,0.0,0.0,0.0,0.0,0.0,0.0,0.0,0.0,0.0,0.0,0.0,0.0,0.0,0.0,0.0,0.0,0.0,0.0,0.0,0.0,0.0,0.0,0.0,0.0,0.0,0.0,0.0,0.0,0.0,0.0,0.0,0.0,0.0,0.0,0.0,0.0,0.0,0.0,0.0,0.0,0.0,0.0,0.0,0.0,0.0,0.0,0.0,0.0,0.0,0.0,0.0,-6.3247,-7.168,-7.8284,-8.0823,-8.1016,-8.0323,-7.8631,-7.463,-6.9013,-6.1512,0.0,0.0,0.0,0.0,0.0,0.0,0.0,0.0,0.0,0.0,0.0,0.0,0.0,0.0,0.0,0.0,0.0,0.0,0.0,0.0,0.0,0.0,0.0,0.0,0.0,0.0,0.0,0.0,0.0,0.0,0.0,0.0,0.0,0.0,0.0,0.0,0.0,0.0,0.0,0.0,0.0,0.0,0.0,0.0,0.0,0.0,0.0,0.0,0.0,0.0,0.0,0.0,0.0,0.0,0.0,0.0,0.0,0.0,0.0,0.0,-6.7398,-6.3551,0.0,0.0,0.0,0.0,0.0,0.0,0.0,0.0,0.0,0.0,0.0,0.0,0.0,0.0,0.0,0.0,0.0,0.0,0.0,0.0,0.0,0.0,0.0,0.0,0.0,0.0,0.0,0.0,0.0,0.0,0.0,0.0,0.0,0.0,0.0,0.0,0.0,0.0,0.0,0.0,-6.3262,-7.168,-7.8284,-8.0823,-8.0477,-7.9669,-7.8592,-7.463,-6.9513,-6.3166,-5.7819,0.0,0.0,0.0,0.0,0.0,0.0,0.0,0.0,0.0,0.0,0.0,0.0,0.0,0.0,0.0,0.0,0.0,0.0,0.0,0.0,0.0,0.0,0.0,0.0,0.0,0.0,0.0,0.0,0.0,0.0,0.0,0.0,0.0,0.0,0.0,0.0,0.0,0.0,0.0,0.0,0.0,0.0,0.0,0.0,0.0,0.0,0.0,0.0,0.0,0.0,0.0,0.0,0.0,0.0,0.0,0.0,0.0,0.0,0.0,-7.2014,-6.959,0.0,0.0,0.0,0.0,0.0,0.0,0.0,0.0,0.0,0.0,0.0,0.0,0.0,0.0,0.0,0.0,0.0,0.0,0.0,0.0,0.0,0.0,0.0,0.0,0.0,0.0,0.0,0.0,0.0,0.0,0.0,0.0,0.0,0.0,0.0,0.0,0.0,0.0,0.0,0.0,-6.4888,-7.1993,-7.7823,-8.0785,-8.0323,-7.9438,-7.8554,-7.5014,-7.0475,-6.4897,-6.0127,0.0,0.0,0.0,0.0,0.0,0.0,0.0,0.0,0.0,0.0,0.0,0.0,0.0,0.0,0.0,0.0,0.0,0.0,0.0,0.0,0.0,0.0,0.0,0.0,0.0,0.0,0.0,0.0,0.0,0.0,0.0,0.0,0.0,0.0,0.0,0.0,0.0,0.0,0.0,0.0,0.0,0.0,0.0,0.0,0.0,0.0,0.0,0.0,0.0,0.0,0.0,0.0,0.0,-7.9169,-8.0362,-8.0746,-8.1747,-8.1477,-8.0054,-7.8477,-7.7784,-7.7323,-7.2245,0.0,0.0,0.0,0.0,0.0,0.0,0.0,0.0,0.0,0.0,0.0,0.0,0.0,0.0,0.0,0.0,0.0,0.0,0.0,0.0,0.0,0.0,-6.4474,-6.8552,-7.0552,-6.9667,-6.2666,0.0,0.0,0.0,0.0,0.0,0.0,0.0,0.0,0.0,0.0,0.0,-6.6685,-7.2508,-7.7438,-8.0554,-8.0092,-7.9246,-7.8361,-7.5361,-7.1514,-6.6859,-6.2666,-5.8434,0.0,0.0,0.0,0.0,0.0,0.0,0.0,0.0,0.0,0.0,0.0,0.0,0.0,0.0,0.0,0.0,0.0,0.0,0.0,0.0,0.0,0.0,0.0,0.0,0.0,0.0,0.0,0.0,0.0,0.0,0.0,0.0,-6.1473,-6.559,0.0,0.0,0.0,0.0,0.0,0.0,0.0,0.0,0.0,0.0,0.0,0.0,0.0,-7.6515,-8.0746,-8.2516,-8.4555,-8.6901,-9.0017,-9.0825,-8.9594,-9.1133,-9.1748,-9.1479,-9.0556,0.0,-7.9361,-7.7823,0.0,0.0,0.0,0.0,0.0,0.0,0.0,0.0,0.0,0.0,0.0,0.0,0.0,0.0,0.0,0.0,0.0,0.0,0.0,0.0,0.0,0.0,-7.3976,-7.3899,-7.4053,-7.3899,-7.2783,-6.717,-6.1359,-5.8205,-5.5708,-5.3414,0.0,0.0,0.0,0.0,0.0,0.0,-6.6917,-7.3048,-7.7861,-7.9785,-7.9169,-7.8323,-7.7515,-7.5014,-7.2283,-6.9398,-6.5897,-6.3281,-6.1846,-5.6049,0.0,0.0,0.0,0.0,0.0,0.0,0.0,0.0,0.0,0.0,0.0,0.0,0.0,0.0,0.0,0.0,0.0,0.0,0.0,0.0,0.0,0.0,0.0,0.0,0.0,0.0,0.0,0.0,0.0,-6.2861,-6.7167,-6.9013,-6.9667,-6.8783,0.0,0.0,0.0,0.0,0.0,0.0,0.0,0.0,0.0,-8.0285,-8.0785,-8.3285,-8.7979,-8.971,-9.1595,-9.3672,-9.6596,-9.7596,-9.6942,-9.8134,-9.8442,-9.7942,-9.7596,-9.4788,-9.0133,-8.544,-8.167,-7.8323,0.0,0.0,0.0,0.0,-6.9937,-7.0744,-7.386,-7.5976,-7.713,-7.6092,0.0,0.0,0.0,0.0,0.0,0.0,0.0,-6.5089,-6.7205,-7.1514,-7.5784,-7.7823,-7.9015,-7.9438,-7.8515,-7.4291,-6.9292,-6.4366,-6.3031,-6.1182,-5.623,-5.5241,0.0,0.0,0.0,-6.5456,-6.887,-7.3584,-7.7207,-7.89,-7.8323,-7.7669,-7.7323,-7.4976,-7.2822,-7.1206,-6.8359,-6.5705,-6.3385,-6.0012,-5.7396,0.0,0.0,0.0,0.0,0.0,0.0,0.0,0.0,0.0,0.0,0.0,0.0,0.0,0.0,0.0,0.0,0.0,0.0,0.0,0.0,0.0,0.0,0.0,0.0,0.0,0.0,0.0,0.0,-6.7782,-7.1552,-7.2437,-7.463,-7.4399,0.0,0.0,0.0,0.0,0.0,0.0,-7.7823,-7.94,-8.2554,-8.7671,-8.8017,-9.0171,-9.4403,-9.6095,-9.7673,-9.9173,-10.1289,-10.2289,-10.2289,-10.2904,-10.2789,-10.202,-10.202,-10.1019,-9.8904,-9.2133,-8.7248,-8.3632,-7.9785,-7.713,-7.5553,-7.6592,-7.713,-7.7823,-8.1477,-8.3093,-8.3401,-8.2131,-7.9746,-7.6245,-7.0552,0.0,0.0,0.0,0.0,-6.7898,-7.236,-7.4899,-7.7323,-8.117,-8.267,-8.2978,-8.1939,-7.99,-7.6457,-7.037,-6.9544,-6.7845,-6.1601,-6.0174,0.0,-6.0005,-6.365,-6.7606,-7.1118,-7.4361,-7.6823,-7.8054,-7.7669,-7.713,-7.6669,-7.4707,-7.3129,-7.2245,-6.9821,-6.7269,-6.4692,-6.3205,-6.0627,-5.6819,0.0,0.0,0.0,0.0,0.0,0.0,0.0,0.0,0.0,0.0,0.0,0.0,0.0,0.0,0.0,0.0,0.0,0.0,0.0,0.0,0.0,0.0,0.0,0.0,0.0,0.0,0.0,0.0,0.0,-7.6592,-8.267,0.0,0.0,0.0,0.0,-7.6823,-7.9131,-8.2439,-8.6555,-8.7632,-9.0441,-9.5557,-9.648,-9.7788,-9.9673,-10.1404,-10.2712,-10.3597,-10.4482,-10.4905,-10.4905,-10.4982,-10.4482,-10.3789,-10.3789,-10.2789,-10.0789,-9.6442,-9.3557,-9.1441,-8.6401,-8.4362,-8.417,-8.3439,-8.367,-8.467,-8.644,-8.7094,-8.7517,-8.9825,-8.7748,-8.3439,-7.8284,-7.4322,0.0,0.0,-7.1168,-7.3668,-7.6361,-7.89,-8.1439,-8.4093,-8.3516,-8.2554,-8.3324,-8.2131,-7.9592,-7.5183,-7.1835,-6.8847,-6.6183,0.0,-6.6124,-6.4675,-6.7984,-7.1258,-7.3129,-7.563,-7.7284,-7.7361,-7.7323,-7.663,-7.4976,-7.4014,-7.3129,-7.2245,-6.9821,-6.8308,-6.8154,-6.5013,-6.3128,-6.2846,-5.728,0.0,0.0,0.0,0.0,0.0,0.0,0.0,0.0,0.0,0.0,0.0,0.0,0.0,0.0,0.0,0.0,0.0,0.0,0.0,0.0,0.0,0.0,0.0,0.0,0.0,0.0,0.0,0.0,-8.417,-8.8209,0.0,-8.4247,-8.4632,-8.4786,-8.3862,-8.7671,-9.1171,-9.3749,-9.5249,-9.7365,-10.0289,-10.0596,-10.1597,-10.3289,-10.4482,-10.552,-10.6405,-10.7713,-10.8098,-10.7482,-10.7482,-10.7098,-10.629,-10.579,-10.4789,-10.3597,-10.1597,-9.8442,-9.4634,-9.171,-9.0248,-8.9825,-9.0017,-9.0287,-9.0825,-9.2518,-9.2749,-9.1979,-9.0171,-8.7478,-8.4362,-8.14,-7.9669,-7.8669,-7.8669,-7.9708,-8.1054,-8.1977,-8.3247,-8.4439,-8.4824,-8.4439,-8.3901,-8.3632,-8.267,-8.1285,-7.9208,-7.6515,-7.3966,-7.1981,-7.0452,-6.9348,-6.8821,-7.0452,-7.2168,-7.336,-7.5245,-7.6476,-7.6476,-7.6476,-7.5976,-7.4822,-7.3437,-7.2283,-7.1398,-6.8975,-6.7321,-6.6821,-6.4551,-6.2781,-6.1704,-5.8588,-5.5434,0.0,0.0,0.0,0.0,0.0,0.0,0.0,0.0,0.0,0.0,0.0,0.0,0.0,0.0,0.0,0.0,0.0,0.0,0.0,0.0,0.0,0.0,0.0,0.0,0.0,-8.1093,-8.6671,-8.9248,-9.3557,-9.4903,-9.1171,-9.1864,-9.2518,-9.2518,-9.6172,-9.9135,-10.0904,-10.1481,-10.2597,-10.4289,-10.402,-10.4597,-10.5982,-10.7098,-10.7982,-10.8598,-10.9713,-10.9906,-10.929,-10.879,-10.8213,-10.7713,-10.679,-10.579,-10.4713,-10.4097,-10.1597,-9.7865,-9.6403,-9.5365,-9.4672,-9.5211,-9.5403,-9.5518,-9.6403,-9.5942,-9.4518,-9.1748,-8.9286,-8.7209,-8.5747,-8.4901,-8.4593,-8.517,-8.5517,-8.5747,-8.5747,-8.6132,-8.6247,-8.517,-8.467,-8.4209,-8.3362,-8.2477,-8.1747,-8.1208,-7.9746,-7.7861,-7.5553,-7.3804,-7.2418,-7.157,-7.1685,-7.2187,-7.3035,-7.4315,-7.5168,-7.5168,-7.5668,-7.5553,-7.4399,-7.3033,-7.1634,-7.0129,-6.7691,-6.5943,-6.5051,-6.3358,-6.182,-6.0396,-5.7934,-5.5547,-5.3234,0.0,0.0,0.0,0.0,0.0,0.0,0.0,0.0,0.0,0.0,0.0,0.0,0.0,0.0,0.0,0.0,0.0,0.0,0.0,0.0,0.0,0.0,0.0,-7.74,-8.6324,-9.2364,-9.1748,-9.8981,-10.2404,-9.825,-10.0904,-10.2789,-10.2789,-10.4289,-10.5982,-10.7713,-10.6213,-10.5982,-10.7713,-10.6905,-10.6905,-10.7713,-10.9406,-11.0214,-11.0214,-11.0214,-11.0214,-11.0098,-10.8482,-10.7713,-10.7713,-10.679,-10.5482,-10.3905,-10.3905,-10.2904,-10.1289,-10.0481,-9.9596,-9.8827,-9.8865,-9.8827,-9.8673,-9.7788,-9.6403,-9.5018,-9.5018,-9.3903,-9.2402,-9.1556,-9.0133,-8.8825,-8.8825,-8.8209,-8.7555,-8.744,-8.744,-8.7017,-8.5324,-8.4247,-8.3362,-8.2477,-8.167,-8.1093,-8.1093,-8.1093,-8.0054,-7.6746,-7.6289,-7.5553,-7.3098,-7.1975,0.0,-7.2556,-7.3215,-7.3591,-7.3567,-7.5053,-7.5322,-7.3605,-7.2761,-7.1186,-6.8488,-6.6024,-6.424,-6.3255,-6.1627,-6.0358,-5.955,-5.5605,-5.4349,-5.5973,0.0,0.0,0.0,0.0,0.0,0.0,0.0,0.0,0.0,0.0,0.0,0.0,0.0,0.0,0.0,0.0,0.0,0.0,0.0,0.0,0.0,-7.9246,-8.5401,-8.794,-9.2326,-9.698,-10.1712,-10.5405,-10.7098,-10.5905,-10.7213,-10.8098,-10.8098,-10.8482,-10.8983,-10.9483,-10.8482,-10.8098,-10.8598,-10.829,-10.829,-10.8598,-10.9675,-11.0214,-11.0214,-11.0791,-11.0791,-11.0175,-10.9098,-10.829,-10.7713,-10.679,-10.579,-10.4713,-10.4097,-10.3212,-10.2212,-10.1289,-10.0481,-9.9788,-10.0404,-9.9827,-9.8596,-9.7134,-9.6326,-9.5826,-9.5211,-9.4672,-9.4134,-9.3287,-9.2672,-9.221,-9.1633,-9.1287,-9.0671,-8.8825,-8.8325,-8.7748,-8.544,-8.4247,-8.3362,-8.2477,-8.167,-8.1093,-8.1093,-8.1093,-8.0785,-7.9862,-7.9206,-7.8623,-7.7891,-7.7043,-7.6349,-7.6002,-7.6149,-7.5845,-7.469,-7.6016,-7.5807,-7.3002,-7.189,-6.9952,-6.6782,-6.3634,-6.1758,-6.1512,-6.0435,-6.005,-6.0435,-5.8143,-5.7174,0.0,0.0,0.0,0.0,0.0,0.0,0.0,0.0,0.0,0.0,0.0,0.0,0.0,0.0,0.0,0.0,0.0,0.0,0.0,0.0,0.0,0.0,-8.617,-9.3518,-9.8211,-10.0096,-10.2789,-10.7405,-10.9483,-11.0598,-11.0983,-11.1483,-11.1791,-11.1791,-11.1483,-11.1214,-11.1214,-11.0098,-10.9598,-11.0021,-10.9598,-10.9598,-11.0021,-11.0483,-11.0714,-11.0714,-11.0906,-11.0714,-11.0214,-10.929,-10.8482,-10.7713,-10.7213,-10.6213,-10.4982,-10.4212,-10.3405,-10.252,0.0,0.0,0.0,0.0,-10.0212,-9.8673,-9.7673,-9.6903,-9.6211,-9.5711,-9.5518,-9.5441,-9.4941,-9.4287,-9.3595,-9.3133,-9.221,-9.0979,-8.9171,-8.844,-8.7517,-8.4978,-8.3978,-8.3247,-8.2054,-8.1439,-8.1093,-8.1093,-8.1093,0.0,-8.1093,-8.0136,-7.9155,-7.8461,-7.7574,-7.6739,-7.589,-7.6038,-7.574,-7.4513,-7.5796,-7.5716,-7.3135,-7.1748,0.0,0.0,0.0,-6.0927,-5.9792,-5.9281,0.0,0.0,0.0,-5.7996,-5.8343,-5.7785,0.0,0.0,-5.5234,-5.3824,0.0,0.0,0.0,0.0,0.0,0.0,0.0,0.0,0.0,0.0,0.0,0.0,0.0,0.0,0.0,0.0,-9.2864,-9.9904,-10.6982,-10.8098,-10.879,-11.0291,-11.1983,-11.3291,-11.4099,-11.4214,-11.4291,-11.4291,-11.3483,-11.2983,-11.2906,-11.1291,0.0,0.0,0.0,-11.0714,-11.1522,-11.1522,-11.1522,-11.1291,-11.0714,-11.0214,-10.9906,-10.9213,-10.8406,-10.7598,-10.7598,-10.6597,-10.4905,-10.4212,-10.3289,-10.2404,-10.152,-10.1212,-10.1289,-10.1096,-10.0096,-9.8788,-9.8673,0.0,0.0,-9.6288,-9.6288,-9.6288,-9.6288,-9.5134,-9.3826,-9.371,-9.1941,-8.9863,-8.894,-8.8055,-8.6748,-8.4209,-8.3593,-8.3131,-8.1477,-8.1093,-8.1093,-8.1093,-8.1093,-8.1093,-8.1093,-7.9968,-7.8525,-7.6939,-7.6022,-7.5182,-7.4215,-7.4629,-7.4644,-7.3763,-7.5159,0.0,-7.3532,-7.2093,-6.9772,-6.6115,-6.3629,-6.1225,-5.883,-5.8819,-5.8186,-5.675,-5.7494,-5.8297,-5.9099,-5.9795,-6.1317,-6.3524,-5.9882,-5.8134,0.0,0.0,0.0,0.0,0.0,0.0,0.0,0.0,0.0,0.0,0.0,0.0,0.0,0.0,0.0,-9.1479,-9.9096,-10.5713,-10.9213,-11.0906,-11.1906,-11.2214,-11.3714,-11.4907,-11.4984,-11.5599,-11.5984,-11.5984,-11.5291,-11.4484,-11.3791,-11.2791,-11.2022,-11.1522,-11.1291,-11.1291,-11.1522,-11.1522,-11.1098,-11.0483,-11.0983,0.0,-10.8213,-10.8713,-10.8098,-10.6713,-10.6713,-10.5713,-10.4097,-10.3982,-10.2981,-10.152,-10.0712,-10.0712,-10.1096,-9.9788,-9.9096,-9.8711,-9.8019,-9.7096,-9.6288,-9.6288,-9.6288,-9.6288,-9.6288,-9.5557,0.0,-9.3903,-9.2364,-9.0594,-8.9094,-8.8055,-8.6748,-8.4209,-8.3593,-8.3131,-8.1477,-8.1093,-8.1093,-8.1093,-8.1093,-8.1093,-8.1093,-8.0846,-8.0313,-7.9273,-7.8965,-7.831,-7.6808,-7.6712,-7.6244,-7.4854,-7.6106,-7.5859,-7.2932,-7.2276,-7.0272,-6.6179,-6.3534,-6.189,-6.1408,-6.1973,-6.2178,-6.1878,-6.2032,-6.2533,-6.338,-6.2841,-6.3549,-6.5359,-6.3877,-6.3207,0.0,0.0,0.0,0.0,0.0,0.0,0.0,0.0,0.0,0.0,0.0,-7.538,-7.9675,0.0,-9.2979,-9.8519,-10.4405,-10.9213,-11.1714,-11.3214,-11.3791,-11.3407,-11.4484,-11.5484,-11.5907,-11.6292,-11.6484,-11.6484,-11.5792,-11.4907,-11.3984,-11.3214,-11.2291,-11.1522,-11.1522,-11.1522,-11.1522,-11.1522,-11.1291,-11.0906,-11.0791,-11.0214,-10.8906,-10.8906,-10.8213,-10.7021,-10.6597,-10.5713,-10.4405,-10.3597,-10.252,-10.1212,-10.0404,-10.0596,-10.1096,-9.9904,-9.9173,-9.8673,-9.7788,-9.698,-9.6288,-9.6288,-9.6288,-9.6211,-9.5788,-9.5018,-9.4172,-9.3326,-9.1595,-8.9748,-8.8902,-8.744,-8.5709,-8.4016,-8.3247,-8.2593,-8.1362,-8.1093,-8.1093,-8.1093,-8.1093,-8.1093,-8.1093,-8.1093,-8.0939,-8.0516,-8.0439,-7.9823,-7.813,-7.79,-7.728,-7.5684,-7.6206,-7.5663,-7.3214,-7.1338,-6.9398,-6.7282,-6.5166,-6.4012,-6.4012,-6.4397,-6.4589,-6.4589,-6.5013,-6.5205,-6.5243,-6.5667,-6.609,-6.6513,-6.6936,-6.6667,0.0,0.0,0.0,0.0,0.0,0.0,0.0,-7.1435,-7.2845,-7.6528,-7.9125,-8.2545,-8.8528,-9.3326,-9.8519,-10.4982,-10.879,-11.1714,-11.3907,-11.4907,-11.4984,-11.4099,-11.4907,-11.5792,-11.6407,-11.6484,-11.6484,-11.6484,-11.5907,-11.5176,-11.4291,-11.3599,-11.2791,-11.1791,-11.1714,-11.1714,-11.1522,-11.1522,-11.1406,-11.1214,-11.0714,-11.0214,-10.9713,-10.9098,-10.829,-10.7098,-10.6097,-10.529,-10.4482,-10.2981,-10.1904,-10.1212,-10.0404,-10.0481,-10.1019,-10.0096,-9.9288,-9.8442,-9.775,-9.698,-9.6288,-9.6288,-9.6288,-9.6134,-9.5249,-9.4403,-9.3518,-9.271,-9.0671,-8.8709,-8.8709,-8.6824,-8.467,-8.3824,-8.2939,-8.2093,-8.1285,-8.1093,-8.1093,-8.1093,-8.1093,-8.1093,-8.1093,-8.1093,-8.1054,-8.0862,-8.0862,-8.0285,-7.8707,-7.8361,-7.7746,-7.6399,-7.6092,-7.5399,-7.386,-7.0898,-6.9129,-6.9129,-6.7552,-6.6628,-6.6628,-6.6628,-6.6551,-6.6397,-6.7205,-6.7282,-6.6628,-6.7821,-6.8205,-6.7859,-6.9129,-6.8936,-6.1117,-6.0757,-6.1879,-6.3763,-6.7615,-7.2648,0.0,-8.0152,-8.1568,-8.8221,-9.1064,-9.3389,-9.6884,-10.2212,-10.6905,-10.9213,-11.1791,-11.3907,-11.4984,-11.5215,-11.4984,-11.4099,-11.5407,-11.6407,-11.6484,-11.6484,-11.6484,-11.6484,-11.6407,-11.5984,-11.5176,-11.5099,-11.4291,-11.2599,-11.2599,-11.2214,-11.1522,-11.1522,-11.1098,-11.0406,-11.1021,-11.0214,-10.7982,-10.8598,-10.7598,-10.529,-10.3712,-10.302,-10.2789,-10.1789,-10.1404,-10.1212,-10.0404,-10.0192,-10.0096,-9.925,-9.8404,-9.7634,-9.7519,-9.698,-9.6288,-9.6288,-9.6288,-9.6134,-9.5249,-9.4403,-9.3518,-9.271,-9.0671,-8.8709,-8.8709,-8.6824,-8.467,-8.3824,-8.2939,-8.2093,-8.1285,-8.1093,-8.1093,-8.1093,-8.1093,-8.1093,-8.1093,-8.1093,-8.0823,-8.0054,-7.9939,-7.9592,-7.8631,-7.7861,-7.7361,-7.7169,-7.6476,-7.563,-7.4668,-7.286,-7.1783,-7.1783,-7.0206,-6.9283,-6.9283,-6.9283,-6.8898,-6.8129,-6.8975,-6.936,-6.9283,-6.8706,-6.9129,-7.0475,-6.9937,-6.959,-6.6623,-6.6421,-6.7195,-7.2041,-7.5457,-7.8932,-8.386,-8.582,-8.783,-9.2157,-9.4779,-9.7545,-10.1699,-10.5284,-10.8699,-11.1901,-11.3714,-11.4984,-11.5907,-11.5599,-11.4791,-11.3407,-11.4291,-11.5215,-11.5792,-11.6176,-11.6484,-11.6484,-11.6484,-11.6099,-11.5291,-11.5291,-11.4714,-11.3483,-11.3483,-11.3291,-11.2983,-11.2522,-11.2022,-11.1598,-11.0983,-11.0214,-10.9098,-10.8482,-10.679,-10.4289,-10.3097,-10.2289,-10.1789,-10.152,-10.1019,-10.0481,-9.9673,-9.9019,-9.8519,-9.8173,-9.7827,-9.7442,-9.698,-9.6596,-9.6288,-9.6288,-9.6288,-9.6057,-9.4672,-9.398,-9.3441,-9.2095,-9.0248,-8.8709,-8.8709,-8.6824,-8.467,-8.3824,-8.3324,-8.2824,-8.1977,-8.1785,-8.1785,-8.1785,-8.14,-8.1093,-8.1093,-8.1093,-8.0977,-8.0592,-8.0554,-8.0246,-7.9361,-7.8977,-7.8554,-7.8054,-7.6784,-7.6053,-7.6207,-7.4207,-7.3168,-7.363,-7.2552,-7.1898,-7.1898,-7.1898,-7.1745,-7.1398,-7.1745,-7.1398,-7.0398,-7.0552,-7.0475,-7.0206,-7.036,-7.0398,-6.9045,-6.97,-7.1083,-7.8051,-8.1654,-8.4389,-8.7906,-9.0364,-9.2717,-9.5535,-9.7538,-10.0206,-10.4607,-10.712,-10.9514,-11.279,-11.4625,-11.5792,-11.6407,-11.5407,-11.3907,-11.2214,-11.2214,-11.2599,-11.3483,-11.5099,-11.6292,-11.6484,-11.6484,-11.6176,-11.5676,-11.5599,-11.5215,-11.4407,-11.4407,-11.4099,-11.3599,-11.3022,-11.2599,-11.2406,-11.0906,-11.0098,-10.979,-10.7905,-10.5905,-10.3905,-10.2981,-10.2097,-10.1289,-10.1096,-10.0596,-9.9981,-9.8865,-9.8057,-9.748,-9.725,-9.7173,-9.7096,-9.6519,-9.6288,-9.6288,-9.6288,-9.6134,-9.5672,-9.4172,-9.3557,-9.3056,-9.1595,-8.9979,-8.8709,-8.8709,-8.6824,-8.4747,-8.4093,-8.3747,-8.3439,-8.2785,-8.267,-8.2593,-8.2362,-8.1823,-8.1362,-8.1131,-8.1093,-8.1093,-8.1093,-8.1093,-8.0862,-8.0246,-7.9939,-7.9477,-7.8592,-7.74,-7.6938,-7.7592,-7.5745,-7.4822,-7.5399,-7.4437,-7.3808,-7.3808,-7.3808,-7.3745,-7.3514,-7.3745,-7.3091,-7.1629,-7.2014,-7.1591,-7.0398,-7.0744,-7.1014,-6.5558,-6.776,-7.0688,-7.7996,-8.3945,-8.8865,-9.217,-9.4136,-9.6415,-10.0398,-10.1297,-10.2295,-10.5702,-10.8393,-11.0401,-11.1391,-11.433,-11.6484,-11.6484,-11.4407,-11.2214,-11.0483,-10.8906,-10.8213,-10.8983,-11.2906,-11.5676,-11.6407,-11.6484,-11.6484,-11.6484,-11.6484,-11.6099,-11.5291,-11.5291,-11.4407,-11.2791,-11.2714,-11.2291,-11.1522,-11.0598,-10.979,-10.8906,-10.629,-10.4713,-10.3905,-10.2981,-10.2097,-10.1212,-10.0481,-10.0096,-9.9904,-9.8211,-9.7519,-9.7403,-9.6634,-9.6326,-9.6326,-9.6326,-9.6288,-9.6288,-9.6288,-9.5711,-9.4864,-9.398,-9.3172,-9.2364,-9.1441,-8.9979,-8.8709,-8.8709,-8.6824,-8.4901,-8.4863,-8.4209,-8.3593,-8.3555,-8.3555,-8.3324,-8.2439,-8.2285,-8.2016,-8.1246,-8.1093,-8.1093,-8.1093,-8.1093,-8.1093,-8.1054,-8.0323,-7.9477,-7.8592,-7.8438,-7.8438,-7.8453,-7.7669,-7.7207,-7.7207,-7.563,-7.4668,-7.4668,-7.4668,-7.4322,-7.3514,-7.4284,-7.4245,-7.3437,-7.2591,-7.2168,-7.2091,-7.1283,-7.136,-7.1468,-7.5249,-7.9323,-8.6077,-9.0005,-9.3088,-9.6355,-9.7503,-9.8386,-10.0292,-9.8381,-9.6941,-9.8566,-9.9108,-10.0879,-10.57,-10.9277,-11.2599,-11.5984,-11.5291,-11.3214,-10.9713,-10.9406,-10.879,-10.7405,-11.0098,-11.2983,-11.5484,-11.5676,-11.5907,-11.6484,-11.6484,-11.6407,-11.6099,-11.6099,-11.5599,-11.4407,-11.3907,-11.3099,-11.2291,-11.0291,-10.8906,-10.7982,-10.5482,-10.4212,-10.3789,-10.2404,-10.1289,-10.0481,-10.0212,-9.9404,-9.8327,-9.775,-9.7173,-9.6673,-9.6403,-9.6288,-9.6288,-9.6288,-9.6288,-9.6211,-9.5634,-9.5249,-9.4749,-9.3326,-9.271,-9.2326,-9.1441,-9.0364,-8.9363,-8.8825,-8.7632,-8.6286,-8.517,-8.5093,-8.5093,-8.4593,-8.4478,-8.4209,-8.3324,-8.2708,-8.2054,-8.1246,-8.1093,-8.1093,-8.1093,-8.1093,-8.1093,-8.1093,-8.0823,-8.0554,-8.0246,-7.9708,-7.9361,-7.9361,-7.8092,-7.7515,-7.8054,-7.7053,-7.6669,-7.7207,-7.6707,-7.6284,-7.6015,-7.5707,-7.513,-7.4322,-7.4014,-7.3591,-7.3053,-7.2745,-7.2783,-7.657,-8.1048,-8.5159,-9.2207,-9.4777,-9.6208,-9.8557,-9.9086,-9.8684,-9.7343,-9.4637,-9.2182,-9.1118,-9.0987,-9.3089,-9.9274,-10.3398,-10.7905,-11.3907,-11.3214,-11.1406,-10.9598,-10.879,-10.8098,-10.7405,-10.879,-11.1214,-11.4599,-11.5407,-11.5984,-11.6484,-11.6484,-11.6484,-11.6484,-11.6484,-11.6099,-11.5291,-11.4407,-11.3099,-11.1291,-10.9713,-10.8213,-10.6713,-10.5097,-10.3982,-10.3405,-10.2289,-10.1096,-10.0096,-9.975,-9.8788,-9.748,-9.7173,-9.6749,-9.6288,-9.6288,-9.6288,-9.6288,-9.6288,-9.6288,-9.6211,-9.5634,-9.5249,-9.4788,-9.371,-9.2979,-9.2364,-9.1825,-9.0825,-8.9787,-8.9248,-8.8286,-8.7209,-8.644,-8.6401,-8.644,-8.5901,-8.5786,-8.544,-8.4286,-8.3362,-8.2516,-8.167,-8.1285,-8.1093,-8.1093,-8.1093,-8.1093,-8.1093,-8.1093,-8.1093,-8.1093,-8.0592,-8.0246,-8.0246,-7.8977,-7.84,-7.8938,-7.8169,-7.7938,-7.8477,-7.7707,-7.7284,-7.7284,-7.6438,-7.5707,-7.5168,-7.4861,-7.4437,-7.3937,-7.363,-7.3654,-8.0645,-8.5159,-8.8353,-9.6135,-9.8007,-9.8154,-9.8924,-9.8873,-9.7213,-9.2223,-9.0107,-8.7873,-8.3659,-8.4384,-8.7346,-9.2656,-9.7295,-10.2923,-11.0714,-10.9021,-10.779,-11.0098,-10.7482,-10.6482,-10.8713,-10.9098,-11.0483,-11.3791,-11.5484,-11.6407,-11.6484,-11.6484,-11.6484,-11.6484,-11.6484,-11.6099,-11.5215,-11.4291,-11.2214,-10.8983,-10.8906,-10.7598,-10.5174,-10.5097,-10.4097,-10.2597,-10.2597,-10.1597,-9.9981,-9.9135,-9.825,-9.7365,-9.6596,-9.6288,-9.6288,-9.6288,-9.6288,-9.6288,-9.6288,-9.6288,-9.6288,-9.6249,-9.5672,-9.498,-9.4941,-9.3826,-9.2556,-9.2518,-9.1325,-9.0017,-8.994,-8.8709,-8.7709,-8.8517,-8.8055,-8.7478,-8.7478,-8.744,-8.6901,-8.5286,-8.417,-8.3247,-8.2439,-8.1631,-8.1093,-8.1093,-8.1093,-8.1093,-8.1093,-8.1093,-8.1093,-8.1093,-8.1093,-8.1093,-8.1093,-8.0285,-7.9823,-7.9862,-7.9054,-7.8592,-7.8631,-7.7861,-7.74,-7.7361,-7.6515,-7.6053,-7.6015,-7.5168,-7.4784,-7.4822,-7.4014,-7.4053,-8.7986,-9.3125,-9.6502,-9.9769,-9.9659,-9.8851,-9.9071,-9.566,-9.1726,-8.9095,-8.2769,-7.677,-7.3789,-7.6237,-8.1193,-8.8767,-9.6793,-10.5204,-11.4016,-11.4484,-11.3483,-11.2214,-11.1906,-11.1214,-10.9983,-11.1598,-11.3099,-11.3907,-11.4407,-11.5215,-11.6407,-11.6484,-11.6484,-11.6484,-11.6484,-11.5792,-11.4291,-11.2906,-11.1406,-10.9906,-10.9213,-10.7905,-10.602,-10.4789,-10.3597,-10.2597,-10.1904,-10.0712,-9.9096,-9.8904,-9.7942,-9.6596,-9.6365,-9.6288,-9.6288,-9.6288,-9.6288,-9.6288,-9.6288,-9.6288,-9.6211,-9.5518,-9.5172,-9.4864,-9.421,-9.371,-9.3249,-9.2672,-9.2172,-9.1556,-9.0248,-8.9594,-8.9171,-8.8786,-8.8517,-8.8363,-8.8363,-8.7863,-8.7094,-8.6017,-8.4093,-8.2554,-8.2324,-8.1631,-8.1093,-8.1093,-8.1093,-8.1093,-8.1093,-8.1093,-8.1093,-8.1093,-8.1093,-8.1093,-8.1093,-8.0285,-8.0092,-8.0746,-7.9939,-7.9746,-8.04,-7.9631,-7.8861,-7.8207,-7.74,-7.663,-7.6015,-7.5784,-7.6015,-7.663,-7.5745,-7.5822,-9.3859,-9.8668,-10.1494,-10.2779,-10.1898,-9.9842,-9.6649,-9.212,-8.6703,-8.023,-7.3947,-6.8876,-6.6413,-6.9689,-7.5812,-8.5125,-9.3808,-10.2879,-11.2901,-11.3984,-11.3984,-11.4791,-11.4714,-11.4291,-11.3599,-11.4502,-11.5414,-11.6192,-11.5484,-11.5484,-11.6407,-11.6484,-11.6484,-11.6484,-11.6484,-11.5676,-11.3984,-11.2714,-11.1214,-10.9598,-10.879,-10.729,-10.529,-10.3905,-10.2904,-10.202,-10.152,-10.0289,-9.8788,-9.8788,-9.7827,-9.6288,-9.6288,-9.6288,-9.6288,-9.6288,-9.6288,-9.6288,-9.6288,-9.6288,-9.6211,-9.5711,-9.5557,-9.548,-9.498,-9.4557,-9.4095,-9.3249,-9.2787,-9.2172,-9.0825,-9.021,-8.9902,-8.9825,-8.9479,-8.9248,-8.9248,-8.8825,-8.8017,-8.6401,-8.4939,-8.3593,-8.2477,-8.1939,-8.1516,-8.1131,-8.1093,-8.1093,-8.1093,-8.1093,-8.1093,-8.1093,-8.1093,-8.1093,-8.1093,-8.0669,-8.0592,-8.1054,-8.0631,-8.0592,-8.1093,-8.0246,-7.9592,-7.9092,-7.8246,-7.7592,-7.7092,-7.6746,-7.6823,-7.7284,-7.6399,-7.6245,-9.8631,-10.2595,-10.4504,-10.5128,-10.3917,-10.0613,-9.3235,-8.8066,-8.1525,-6.9866,-6.5219,-6.2824,-6.1301,-6.4791,-7.1551,-8.2682,-9.0298,-9.8823,-11.0199,-11.122,-11.2511,-11.7192,-11.6599,-11.6407,-11.7792,-11.722,-11.7279,-11.8785,-11.7416,-11.6509,-11.6715,-11.6599,-11.6484,-11.6484,-11.6292,-11.5484,-11.3984,-11.3022,-11.1291,-10.8906,-10.8213,-10.6482,-10.3905,-10.3097,-10.2212,-10.1289,-10.1289,-10.0404,-9.8942,-9.8865,-9.7865,-9.6442,-9.6326,-9.6288,-9.6288,-9.6288,-9.6288,-9.6288,-9.6288,-9.6288,-9.6288,-9.6288,-9.6288,-9.6288,-9.6288,-9.5788,-9.498,-9.398,-9.3287,-9.2595,-9.1479,-9.071,-9.0441,-9.121,-9.0787,-9.0287,-9.0402,-9.0248,-8.9363,-8.694,-8.6247,-8.5401,-8.317,-8.2516,-8.2054,-8.1362,-8.117,-8.1093,-8.1093,-8.1093,-8.1093,-8.1093,-8.1093,-8.1093,-8.1093,-8.1093,-8.1093,-8.1093,-8.1093,-8.1093,-8.1093,-8.0362,-7.9939,-7.9823,-7.9054,-7.8631,-7.8477,-7.7784,-7.7438,-7.7438,-7.6669,-7.6284,-10.2595,-10.5605,-10.678,-10.6302,-10.388,-9.9622,-9.1657,-8.296,-7.4495,-6.7225,-6.0404,-5.6681,-5.9597,-6.3052,-7.0155,-8.4678,-9.1015,-9.8663,-11.1721,-11.3404,-11.449,-11.7377,-11.8215,-11.86,-11.8792,-11.8598,-11.83,-11.8016,-11.7017,-11.6787,-11.75,-11.6907,-11.6484,-11.6484,-11.5176,-11.4291,-11.3984,-11.2522,-11.0791,-10.8906,-10.879,-10.6982,-10.3905,-10.3712,-10.2789,-10.1289,-10.1289,-10.0789,-9.9827,-9.9096,-9.8211,-9.725,-9.6557,-9.6288,-9.6288,-9.6288,-9.6288,-9.6288,-9.6288,-9.6288,-9.6288,-9.6288,-9.6288,-9.6288,-9.6288,-9.6211,-9.5749,-9.4134,-9.4095,-9.4057,-9.1787,-9.1633,-9.2095,-9.2249,-9.2172,-9.221,-9.2903,-9.1941,-9.0441,-8.8594,-8.7094,-8.5978,-8.5517,-8.3708,-8.2247,-8.2093,-8.1516,-8.1093,-8.1093,-8.1093,-8.1093,-8.1093,-8.1093,-8.1093,-8.1093,-8.1093,-8.1093,-8.1093,-8.1093,-8.1093,-8.1093,-8.0939,-8.0554,-7.9823,-7.9669,-7.9208,-7.8477,-7.8361,-7.8284,-7.8299,-7.813,-7.7707,-10.2412,-10.5972,-10.8468,-10.678,-10.3586,-9.786,-8.6407,-7.7311,-6.8663,-5.9591,-5.4291,-5.24,-5.5945,-6.069,-6.7496,-7.8104,-8.525,-9.3773,-10.6284,-10.888,-11.1812,-11.7719,-11.8396,-11.8703,-11.9584,-11.8802,-11.8412,-11.9107,-11.7385,-11.6617,-11.7115,-11.6676,-11.6292,-11.5907,-11.4714,-11.3791,-11.3291,-11.1714,-11.0214,-10.8906,-10.7598,-10.5905,-10.3905,-10.2981,-10.2097,-10.1289,-10.1289,-10.0789,-10.0096,-9.9635,-9.8711,-9.7442,-9.7096,-9.6673,-9.6288,-9.6288,-9.6288,-9.6288,-9.6288,-9.6288,-9.6288,-9.6288,-9.6288,-9.6288,-9.6288,-9.6288,-9.6019,-9.4749,-9.4672,-9.4595,-9.2941,-9.2826,-9.3133,-9.3133,-9.3133,-9.321,-9.3633,-9.3056,-9.2018,-9.0325,-8.9325,-8.8209,-8.6401,-8.5093,-8.3978,-8.3093,-8.2631,-8.2401,-8.2401,-8.2401,-8.2054,-8.1208,-8.1093,-8.1093,-8.1093,-8.1093,-8.1093,-8.1093,-8.1093,-8.1093,-8.1093,-8.1093,-8.09,-8.0477,-8.0477,-8.0285,-7.9862,-7.94,-7.9169,-7.9169,-7.8707,-7.8284,-10.2008,-10.6302,-10.9679,-10.7294,-10.3182,-9.6061,-8.1819,-7.2807,-6.4202,-5.2898,-4.9484,-4.9619,-5.3338,-5.7889,-6.3717,-7.1593,-7.8275,-8.7022,-9.9972,-10.3603,-10.8296,-11.7607,-11.8089,-11.8307,-12.009,-11.8616,-11.8103,-11.9699,-11.7694,-11.6392,-11.65,-11.6484,-11.6176,-11.5599,-11.4484,-11.3599,-11.2714,-11.0983,-10.9713,-10.8598,-10.6405,-10.4905,-10.3789,-10.2289,-10.152,-10.1289,-10.1289,-10.0904,-10.0289,-10.0173,-9.9173,-9.775,-9.7557,-9.7019,-9.6288,-9.6288,-9.6288,-9.6288,-9.6288,-9.6288,-9.6288,-9.6288,-9.6288,-9.6288,-9.6288,-9.6288,-9.6134,-9.5249,-9.5134,-9.5018,-9.398,-9.3826,-9.398,-9.398,-9.4134,-9.421,-9.4018,-9.398,-9.348,-9.1787,-9.1325,-9.0287,-8.7401,-8.6632,-8.5863,-8.4362,-8.3978,-8.3824,-8.3632,-8.3593,-8.3093,-8.1785,-8.1477,-8.1362,-8.1362,-8.1208,-8.1093,-8.1093,-8.1093,-8.1093,-8.1093,-8.1093,-8.1093,-8.1093,-8.1093,-8.1093,-8.1093,-8.04,-7.9977,-7.9785,-7.9285,-7.8861,-10.4504,-10.8505,-11.0487,-10.8101,-10.2779,-9.4666,-8.1562,-7.1304,-6.1774,-5.214,-4.8604,-4.8919,-5.4328,-5.4688,-5.8412,-7.1557,-7.3552,-7.9409,-9.6729,-10.1181,-10.6487,-11.6675,-11.7685,-11.8179,-12.0103,-11.8615,-11.7579,-11.8008,-11.7093,-11.6516,-11.6484,-11.6484,-11.6484,-11.6407,-11.4791,-11.3599,-11.2714,-11.0983,-10.9406,-10.779,-10.679,-10.5405,-10.3905,-10.2904,-10.202,-10.1289,-10.1289,-10.1289,-10.1096,-10.0404,-9.9519,-9.8596,-9.7827,-9.7019,-9.6288,-9.6288,-9.6288,-9.6288,-9.6288,-9.6288,-9.6288,-9.6288,-9.6288,-9.6288,-9.6288,-9.6288,-9.6134,-9.5249,-9.5557,-9.5788,-9.4134,-9.4287,-9.4864,-9.4864,-9.548,-9.5826,-9.5057,-9.4864,-9.4364,-9.271,-9.1748,-9.0864,-8.9748,-8.8286,-8.6978,-8.6017,-8.5247,-8.4478,-8.3708,-8.3593,-8.3516,-8.3401,-8.267,-8.217,-8.217,-8.1516,-8.1093,-8.1093,-8.1093,-8.1093,-8.1093,-8.1093,-8.1093,-8.1093,-8.1093,-8.1093,-8.1093,-8.1016,-8.0554,-7.9823,-8.0516,-8.0015,-9.9402,-10.5789,-11.0524,-10.7587,-10.1604,-9.2905,-7.9433,-6.9229,-5.9936,-5.0581,-4.7845,-4.7909,-5.0614,-5.1802,-5.4618,-6.1451,-6.382,-6.9941,-8.4754,-8.9514,-9.6539,-11.0204,-11.2607,-11.4799,-11.8977,-11.8298,-11.7508,-11.6993,-11.6676,-11.6484,-11.6484,-11.6484,-11.5984,-11.4984,-11.4291,-11.3291,-11.2022,-11.0291,-10.9098,-10.8406,-10.6482,-10.4982,-10.3905,-10.2981,-10.2097,-10.1289,-10.1289,-10.1289,-10.1289,-10.0981,-9.9981,-9.875,-9.8404,-9.748,-9.6288,-9.6288,-9.6288,-9.6288,-9.6288,-9.6288,-9.6288,-9.6288,-9.6288,-9.6288,-9.6288,-9.6288,-9.6249,-9.5865,-9.6019,-9.6134,-9.5441,-9.5518,-9.5788,-9.5788,-9.6057,-9.6211,-9.5865,-9.5788,-9.5441,-9.4249,-9.3287,-9.2287,-9.0941,-8.971,-8.8632,-8.7786,-8.7401,-8.6863,-8.5978,-8.5901,-8.567,-8.517,-8.3401,-8.2285,-8.2285,-8.1554,-8.1093,-8.1093,-8.1093,-8.1093,-8.1093,-8.1093,-8.1093,-8.1093,-8.1093,-8.1093,-8.1093,-8.1093,-8.0939,-8.0592,-8.0939,-8.0746,-9.3565,-10.131,-10.7514,-10.5789,-9.9108,-8.9748,-7.7378,-6.6916,-5.75,-4.9214,-4.7319,-4.7291,-4.7912,-5.0175,-5.2609,-5.4779,-5.7756,-6.4046,-7.6317,-8.1478,-8.8908,-10.2125,-10.5505,-10.8902,-11.4298,-11.6097,-11.6808,-11.6477,-11.6484,-11.6484,-11.6484,-11.6292,-11.5599,-11.4407,-11.4099,-11.3214,-11.1522,-10.979,-10.879,-10.8482,-10.6213,-10.4713,-10.3905,-10.2981,-10.2097,-10.1289,-10.1289,-10.1289,-10.1289,-10.1289,-10.0289,-9.8788,-9.8788,-9.7788,-9.6288,-9.6288,-9.6288,-9.6288,-9.6288,-9.6288,-9.6288,-9.6288,-9.6288,-9.6288,-9.6288,-9.6288,-9.6288,-9.6288,-9.6288,-9.6288,-9.6288,-9.6288,-9.6288,-9.6288,-9.6288,-9.6288,-9.6288,-9.6288,-9.6057,-9.5172,-9.448,-9.3557,-9.1864,-9.1095,-9.0287,-8.921,-8.9056,-8.8748,-8.7902,-8.7786,-8.744,-8.6594,-8.4632,-8.3324,-8.3093,-8.2093,-8.1439,-8.1439,-8.1246,-8.1093,-8.1093,-8.1093,-8.1093,-8.1093,-8.1093,-8.1093,-8.1093,-8.1093,-8.1093,-8.1093,-8.1093,-8.1093,-8.828,-9.5437,-10.0796,-10.2301,-9.485,-8.4756,-7.5763,-6.4347,-5.4032,-4.8306,-4.7117,-4.7208,-4.7634,-4.9987,-5.2609,-5.4817,-5.7632,-6.3385,-7.4476,-8.0335,-8.6087,-9.3004,-9.6666,-10.0382,-10.4809,-11.1293,-11.5585,-11.64,-11.6484,-11.6484,-11.6484,-11.5676,-11.5291,-11.5291,-11.4407,-11.3214,-11.1522,-10.979,-10.8482,-10.7713,-10.5905,-10.4713,-10.3905,-10.2981,-10.2097,-10.1289,-10.1289,-10.1289,-10.1289,-10.1289,-10.0289,-9.8788,-9.8788,-9.7788,-9.6288,-9.6288,-9.6288,-9.6288,-9.6288,-9.6288,-9.6288,-9.6288,-9.6288,-9.6288,-9.6288,-9.6288,-9.6288,-9.6288,-9.6288,-9.6288,-9.6288,-9.6288,-9.6288,-9.6288,-9.6288,-9.6288,-9.6288,-9.6288,-9.6057,-9.5172,-9.498,-9.4441,-9.2787,-9.2479,-9.1864,-9.0171,-8.9902,-8.9594,-8.8786,-8.8671,-8.8363,-8.7478,-8.6594,-8.5747,-8.4939,-8.3285,-8.2285,-8.2285,-8.1554,-8.1093,-8.1093,-8.1093,-8.1093,-8.1093,-8.1093,-8.1093,-8.1093,-8.1093,-8.1093,-8.1093,-8.1093,-8.1093,-7.6257,-8.2771,-8.8166,-8.7282,-8.2443,-7.6019,-6.8788,-6.1594,-5.4803,-4.9114,-4.7921,-4.8123,-4.8881,-5.0155,-5.2439,-5.6662,-5.808,-6.1748,-7.0636,-7.8237,-8.6051,-9.4616,-10.5593,-11.3203,-11.5289,-11.6373,-11.7083,-11.7385,-11.6792,-11.6484,-11.6484,-11.5676,-11.4984,-11.4407,-11.3599,-11.2291,-11.0598,-10.9483,-10.8482,-10.7713,-10.6521,-10.529,-10.3905,-10.3597,-10.2712,-10.1289,-10.1289,-10.1289,-10.1289,-10.1289,-10.0289,-9.8788,-9.8788,-9.7788,-9.6288,-9.6288,-9.6288,-9.6288,-9.6288,-9.6288,-9.6288,-9.6288,-9.6288,-9.6288,-9.6288,-9.6288,-9.6288,-9.6288,-9.6288,-9.6288,-9.6288,-9.6288,-9.6288,-9.6288,-9.6288,-9.6288,-9.6288,-9.6288,-9.6211,-9.5942,-9.5403,-9.4826,-9.4287,-9.371,-9.2941,-9.1825,-9.1672,-9.1133,-8.971,-8.9517,-8.921,-8.8363,-8.8017,-8.7055,-8.5093,-8.3862,-8.2939,-8.2324,-8.2054,-8.167,-8.1131,-8.1093,-8.1093,-8.1093,-8.1093,-8.1093,-8.1093,-8.1093,-8.1093,-8.1093,-8.1093,-8.1093,-6.689,-7.2972,-7.8116,-7.8351,-7.4661,-6.9596,-6.4347,-5.8694,-5.3371,-4.915,-4.8198,-4.8306,-4.8973,-5.0107,-5.1964,-5.5217,-5.6902,-6.0111,-6.6809,-7.5139,-8.4555,-9.5143,-10.6305,-11.382,-11.5394,-11.6302,-11.6915,-11.7308,-11.6792,-11.6407,-11.6099,-11.5291,-11.4291,-11.3099,-11.2522,-11.1598,-11.0214,-10.8983,-10.8021,-10.7213,-10.629,-10.4982,-10.3405,-10.3405,-10.2597,-10.1289,-10.1289,-10.1289,0.0,-10.1019,-9.9981,-9.875,-9.8442,-9.748,-9.6288,-9.6288,-9.6288,-9.6288,-9.6288,-9.6288,-9.6288,-9.6288,-9.6288,-9.6288,-9.6288,-9.6288,-9.6288,-9.6288,-9.6288,-9.6288,-9.6288,-9.6288,-9.6288,-9.6288,-9.6288,-9.6288,-9.6288,-9.6288,-9.6288,-9.6288,-9.5865,-9.5403,-9.5057,-9.4557,-9.3787,-9.2672,-9.2479,-9.1979,-9.0556,-9.0402,-9.0056,-8.9248,-8.9133,-8.8402,-8.6478,-8.5247,-8.417,-8.3324,-8.267,-8.2093,-8.1554,-8.1246,-8.1093,-8.1093,-8.1093,-8.1093,-8.1093,-8.1093,-8.1093,-8.1093,-8.1093,-8.1093,0.0,-6.5107,-6.9577,-7.334,-6.9816,-6.4567,-6.152,-5.5611,0.0,-4.8636,-4.803,-4.7924,-4.8475,-5.0031,-5.144,-5.1935,-5.4947,-5.8856,-6.3509,-7.2379,-8.3055,-9.5675,-10.1605,-10.5575,-10.8004,-11.2509,-11.5605,-11.6393,-11.6407,-11.6099,-11.5291,-11.4291,-11.3099,-11.1522,-11.1291,-11.0714,-10.9906,-10.8406,-10.7098,-10.6213,-10.5405,-10.4212,-10.2597,-10.2597,-10.2097,-10.1289,-10.1289,-10.1289,-10.1212,-10.0404,-9.9558,-9.8634,-9.7827,-9.7019,-9.6288,-9.6288,-9.6288,-9.6288,-9.6288,-9.6288,-9.6288,-9.6288,-9.6288,-9.6288,-9.6288,-9.6288,-9.6288,-9.6288,-9.6288,-9.6288,-9.6288,-9.6288,-9.6288,-9.6288,-9.6288,-9.6288,-9.6288,-9.6288,-9.6288,-9.6288,-9.6288,-9.6057,-9.5211,-9.5095,-9.4518,-9.2903,-9.2633,-9.2287,-9.1402,-9.1248,-9.0902,-9.0094,-8.9979,-8.9671,-8.8863,-8.7171,-8.5863,-8.5055,-8.3401,-8.2439,-8.2401,-8.1631,-8.1208,-8.1208,-8.1131,-8.1093,-8.1093,-8.1093,-8.1093,-8.1093,-8.1093,-8.1093,-5.0418,0.0,-5.5181,-5.6419,-5.5611,-5.4289,0.0,-5.2013,-5.0325,-4.8636,-4.8474,-4.915,-5.0829,-5.099,-5.2227,-5.6407,-5.8429,-6.0947,-6.5299,-7.9123,-9.3075,-10.4605,-11.0317,-11.3392,-11.348,-11.5702,-11.7001,-11.65,-11.5907,-11.5215,-11.4407,-11.2906,-11.1906,-11.1522,-10.9021,-10.7521,-10.729,-10.6905,-10.602,-10.4482,-10.4289,-10.3597,-10.2597,-10.2597,-10.2097,-10.1289,-10.1289,-10.0981,-10.0404,-10.0173,-9.9173,-9.7788,-9.7596,-9.7019,-9.6288,-9.6288,-9.6288,-9.6288,-9.6288,-9.6288,-9.6288,-9.6288,-9.6288,-9.6288,-9.6288,-9.6288,-9.6288,-9.6288,-9.6288,-9.6288,-9.6288,-9.6288,-9.6288,-9.6288,-9.6288,-9.6288,-9.6288,-9.6288,-9.6288,-9.6288,-9.6288,-9.6249,-9.6019,-9.598,-9.5634,-9.4557,-9.3826,-9.3133,-9.2287,-9.1595,-9.1133,-9.0941,-9.0902,-9.0556,-8.971,-8.8055,-8.6748,-8.5863,-8.4863,-8.3978,-8.3324,-8.2477,-8.2016,-8.2016,-8.14,-8.1093,-8.1093,-8.1093,-8.1093,-8.1093,-8.1093,-8.1093,-4.6764,-4.8735,-5.1175,-5.1765,-5.1903,-5.172,-5.0986,-5.0215,-4.9297,-4.7993,-4.7924,-4.8771,-5.1046,-5.1193,-5.2238,-5.6149,-5.965,-6.5238,-7.4756,-8.682,-9.8224,-10.7824,-11.2299,-11.4907,-11.581,-11.662,-11.6809,-11.6,-11.5484,-11.4714,-11.3483,-11.2214,-11.1021,-10.979,-10.7598,-10.6405,-10.6405,-10.5597,-10.4597,-10.3289,-10.3289,-10.2712,-10.1481,-10.1481,-10.0981,-10.0212,-10.0596,-10.0289,-9.9481,-9.9481,-9.8711,-9.7442,-9.7096,-9.6673,-9.6288,-9.6288,-9.6288,-9.6288,-9.6288,-9.6288,-9.6288,-9.6288,-9.6288,-9.6288,-9.6288,-9.6288,-9.6288,-9.6288,-9.6288,-9.6288,-9.6288,-9.6288,-9.6288,-9.6288,-9.6288,-9.6288,-9.6288,-9.6288,-9.6288,-9.6288,-9.6288,-9.6288,-9.6288,-9.6288,-9.6019,-9.5134,-9.4595,-9.3864,-9.2633,-9.2095,-9.1633,-9.1248,-9.121,-9.1018,-9.0556,-8.9286,-8.8017,-8.6786,-8.5555,-8.4709,-8.4209,-8.3362,-8.2708,-8.2324,-8.1516,-8.1093,-8.1093,-8.1093,-8.1093,-8.1093,-8.1093,-8.1093,-4.6764,-4.9444,-5.238,-5.2454,-5.2637,-5.2417,-5.0802,-4.9334,-4.8122,-4.7406,-4.7369,-4.8416,-5.1353,-5.2435,-5.372,-5.636,-6.2221,-7.1608,-8.6443,-9.4024,-10.0689,-10.7908,-11.1184,-11.381,-11.5696,-11.6095,-11.5893,-11.517,-11.4907,-11.3984,-11.2406,-11.1291,-10.9713,-10.7598,-10.6405,-10.579,-10.579,-10.4405,-10.3289,-10.2404,-10.2289,-10.1481,-10.0096,-9.9942,-9.9481,-9.8827,-9.9558,-9.9404,-9.8596,-9.8596,-9.8096,-9.725,-9.6557,-9.6288,-9.6288,-9.6288,-9.6288,-9.6288,-9.6288,-9.6288,-9.6288,-9.6288,-9.6288,-9.6288,-9.6288,-9.6288,-9.6288,-9.6288,-9.6288,-9.6288,-9.6288,-9.6288,-9.6288,-9.6288,-9.6288,-9.6288,-9.6288,-9.6288,-9.6288,-9.6288,-9.6288,-9.6288,-9.6288,-9.6288,-9.6057,-9.5288,-9.5095,-9.448,-9.3056,-9.2672,-9.221,-9.1479,-9.1287,-9.121,-9.121,-9.0402,-8.9286,-8.7863,-8.6324,-8.5363,-8.5093,-8.4247,-8.3401,-8.2516,-8.1708,-8.1285,-8.1285,-8.117,-8.1093,-8.1093,-8.1093,-8.1093,-4.9701,-5.2013,-5.3225,-4.9884,-5.0141,-5.0729,-4.9077,-4.8489,-4.8269,-4.8159,-4.871,-5.0765,-5.5941,-5.8566,-6.1661,-6.6827,-7.3512,-8.1723,-9.2276,-9.7782,-10.2499,-10.7184,-11.1919,-11.4399,-11.35,-11.4602,-11.5102,-11.4291,-11.2906,-11.1598,-11.0598,-10.8406,-10.7021,-10.6597,-10.4405,-10.3212,-10.3212,-10.2904,-10.2404,-10.152,-10.0789,-10.0289,-10.0096,-9.9327,-9.8942,-9.8788,-9.8942,-9.8481,-9.7711,-9.7711,-9.7211,-9.648,-9.6365,-9.6288,-9.6288,-9.6288,-9.6288,-9.6288,-9.6288,-9.6288,-9.6288,-9.6288,-9.6288,-9.6288,-9.6288,-9.6288,-9.6288,-9.6288,-9.6288,-9.6288,-9.6288,-9.6288,-9.6288,-9.6288,-9.6288,-9.6288,-9.6288,-9.6288,-9.6288,-9.6288,-9.6288,-9.6288,-9.6288,-9.6288,-9.6249,-9.6134,-9.548,-9.4903,-9.4634,-9.3364,-9.2441,-9.2326,-9.1633,-9.121,-9.121,-9.0402,-8.9787,-8.9556,-8.8632,-8.744,-8.5978,-8.5132,-8.4286,-8.3401,-8.2554,-8.2131,-8.2093,-8.1439,-8.1093,-8.1093,-8.1093,-8.1093,-4.869,-5.0582,-5.2417,-5.227,-5.3482,-5.4142,-5.2087,-5.1279,-5.0949,-5.0949,-5.0912,-5.2745,-5.8736,-6.1523,-6.6486,-7.7377,-8.4108,-9.0705,-9.8643,-10.2194,-10.5404,-10.9211,-11.2102,-11.3686,-11.3396,-11.4598,-11.4599,-11.2791,-11.1906,-11.0714,-10.8906,-10.729,-10.602,-10.5097,-10.3482,-10.2404,-10.1904,-10.1481,-10.0981,-10.0596,-10.0289,-9.9596,-9.8673,-9.8288,-9.7865,-9.748,-9.7904,-9.7634,-9.6903,-9.7326,-9.7019,-9.6288,-9.6288,-9.6288,-9.6288,-9.6288,-9.6288,-9.6288,-9.6288,-9.6288,-9.6288,-9.6288,-9.6288,-9.6288,-9.6288,-9.6288,-9.6288,-9.6288,-9.6288,-9.6288,-9.6288,-9.6288,-9.6288,-9.6288,-9.6288,-9.6288,-9.6288,-9.6288,-9.6288,-9.6288,-9.6288,-9.6288,-9.6288,-9.6288,-9.6288,-9.6288,-9.5942,-9.5518,-9.5057,-9.4326,-9.348,-9.2595,-9.2133,-9.171,-9.1248,-9.0825,-9.021,-8.9325,-8.844,-8.7863,-8.7517,-8.5824,-8.4939,-8.4939,-8.367,-8.2978,-8.2978,-8.217,-8.1747,-8.1747,-8.1285,-8.1093,-4.7957,-4.9481,-5.172,-5.4363,-5.6235,-5.7409,-5.7262,-5.6455,-5.5978,-5.6726,-5.6381,-5.7693,-6.3456,-6.7518,-7.4019,-8.6298,-9.2922,-9.8594,-10.4479,-10.7014,-10.9205,-11.1984,-11.2901,-11.3612,-11.4208,-11.4517,-11.3791,-11.1714,-11.0906,-10.9713,-10.7521,-10.6213,-10.4905,-10.3597,-10.2789,-10.1904,-10.1019,-10.0404,-10.0096,-10.0096,-9.9673,-9.8788,-9.748,-9.7288,-9.6865,-9.6326,-9.6942,-9.6865,-9.6365,-9.698,-9.6865,-9.6288,-9.6288,-9.6288,-9.6288,-9.6288,-9.6288,-9.6288,-9.6288,-9.6288,-9.6288,-9.6288,-9.6288,-9.6288,-9.6288,-9.6288,-9.6288,-9.6288,-9.6288,-9.6288,-9.6288,-9.6288,-9.6288,-9.6288,-9.6288,-9.6288,-9.6288,-9.6288,-9.6288,-9.6288,-9.6288,-9.6288,-9.6288,-9.6288,-9.6288,-9.6288,-9.6288,-9.6057,-9.5403,-9.5134,-9.4441,-9.2941,-9.2787,-9.2441,-9.1595,-9.1518,-9.0864,-8.9363,-8.8286,-8.8094,-8.894,-8.694,-8.6094,-8.6709,-8.5055,-8.417,-8.417,-8.3131,-8.2516,-8.2285,-8.167,-8.1285,-4.9921,-5.1206,-5.216,-5.3151,-5.4583,-5.7483,-6.4127,-6.442,-6.4163,-6.7173,-6.7724,-6.892,-7.2994,-8.1224,-8.8503,-9.1918,-9.8616,-10.4913,-10.9094,-11.1813,-11.3796,-11.4797,-11.4996,-11.5077,-11.5208,-11.3808,-11.2522,-11.1598,-10.929,-10.7521,-10.6521,-10.4212,-10.2789,-10.2712,-10.1789,-10.1019,-10.0173,-10.0096,-10.0096,-10.0096,-9.8442,-9.7634,-9.748,-9.6749,-9.6365,-9.6288,-9.6365,-9.6365,-9.6288,-9.6365,-9.6365,-9.6288,-9.6288,-9.6288,-9.6288,-9.6288,-9.6288,-9.6288,-9.6288,-9.6288,-9.6288,-9.6288,-9.6288,-9.6288,-9.6288,-9.6288,-9.6288,-9.6288,-9.6288,-9.6288,-9.6288,-9.6288,-9.6288,-9.6288,-9.6288,-9.6288,-9.6288,-9.6288,-9.6288,-9.6288,-9.6288,-9.6288,-9.6288,-9.6288,-9.6288,-9.6288,-9.6288,-9.6288,-9.6211,-9.548,-9.4634,-9.371,-9.3595,-9.3287,-9.2479,-9.2402,-9.2018,-9.1095,-8.9479,-8.8979,-8.9787,-8.8902,-8.844,-8.8517,-8.6824,-8.594,-8.594,-8.4286,-8.3093,-8.2285,-8.2247,-8.1823,-4.8857,-5.1683,-5.5023,-5.8364,-5.9648,-6.0933,-6.42,-6.7577,-7.0697,-7.2936,-7.3377,-7.4603,-7.8611,-8.6377,-9.3163,-9.6299,-10.2181,-10.7614,-11.1214,-11.2597,-11.3703,-11.5083,-11.4311,-11.3714,-11.3714,-11.2099,-11.0598,-10.9213,-10.7713,-10.6097,-10.4097,-10.3097,-10.2097,-10.1096,-10.0712,-10.0096,-9.9288,-9.875,-9.8481,-9.8481,-9.7827,-9.725,-9.6749,-9.6442,-9.6288,-9.6288,-9.6288,-9.6288,-9.6288,-9.6288,-9.6288,-9.6288,-9.6288,-9.6288,-9.6288,-9.6288,-9.6288,-9.6288,-9.6288,-9.6288,-9.6288,-9.6288,-9.6288,-9.6288,-9.6288,-9.6288,-9.6288,-9.6288,-9.6288,-9.6288,-9.6288,-9.6288,-9.6288,-9.6288,-9.6288,-9.6288,-9.6288,-9.6288,-9.6288,-9.6288,-9.6288,-9.6288,-9.6288,-9.6288,-9.6288,-9.6288,-9.6288,-9.6288,-9.6288,-9.6019,-9.548,-9.4595,-9.4018,-9.3595,-9.3249,-9.3249,-9.2903,-9.2056,-9.0402,-8.9825,-9.0671,-8.9402,-8.894,-8.944,-8.8325,-8.744,-8.6901,-8.5747,-8.4747,-8.3901,-8.2785,-8.2131,-4.7003,-5.0545,-5.4987,-5.8841,-6.2291,-6.5338,-6.7687,-7.1248,-7.5175,-7.9103,-8.0314,-8.1181,-8.3023,-8.8933,-9.445,-9.7193,-10.2881,-10.8178,-11.1824,-11.2522,-11.3099,-11.4291,-11.3214,-11.2214,-11.1906,-11.0406,-10.879,-10.7405,-10.602,-10.4405,-10.2712,-10.1789,-10.0981,-10.0096,-9.9827,-9.925,-9.8404,-9.7788,-9.7365,-9.7134,-9.7134,-9.6826,-9.6288,-9.6288,-9.6288,-9.6288,-9.6288,-9.6288,-9.6288,-9.6288,-9.6288,-9.6288,-9.6288,-9.6288,-9.6288,-9.6288,-9.6288,-9.6288,-9.6288,-9.6288,-9.6288,-9.6288,-9.6288,-9.6288,-9.6288,-9.6288,-9.6288,-9.6288,-9.6288,-9.6288,-9.6288,-9.6288,-9.6288,-9.6288,-9.6288,-9.6288,-9.6288,-9.6288,-9.6288,-9.6288,-9.6288,-9.6288,-9.6288,-9.6288,-9.6288,-9.6288,-9.6288,-9.6288,-9.6288,-9.6288,-9.6057,-9.548,-9.4634,-9.4095,-9.4095,-9.4095,-9.3749,-9.2941,-9.1518,-9.0864,-9.121,-9.0094,-8.9748,-9.0325,-8.9248,-8.8402,-8.7825,-8.6671,-8.5709,-8.4863,-8.367,-8.2978,-4.4764,-4.7792,-5.1316,-5.2968,-6.119,-7.0403,-7.6026,-7.6099,-7.7488,-8.6371,-8.937,-8.9474,-8.6431,-8.9662,-9.3165,-9.42,-10.0502,-10.6686,-11.0907,-11.2214,-11.2714,-11.2714,-11.2022,-11.1098,-11.0291,-10.8713,-10.729,-10.6405,-10.402,-10.2597,-10.2597,-10.0212,-9.9173,-9.9981,-9.925,-9.8365,-9.7519,-9.748,-9.7096,-9.6288,-9.6288,-9.6288,-9.6288,-9.6288,-9.6288,-9.6288,-9.6288,-9.6288,-9.6288,-9.6288,-9.6288,-9.6288,-9.6288,-9.6288,-9.6288,-9.6288,-9.6288,-9.6288,-9.6288,-9.6288,-9.6288,-9.6288,-9.6288,-9.6288,-9.6288,-9.6288,-9.6288,-9.6288,-9.6288,-9.6288,-9.6288,-9.6288,-9.6288,-9.6288,-9.6288,-9.6288,-9.6288,-9.6288,-9.6288,-9.6288,-9.6288,-9.6288,-9.6288,-9.6288,-9.6288,-9.6288,-9.6288,-9.6288,-9.6288,-9.6288,-9.6288,-9.6288,-9.5518,-9.5018,-9.5018,-9.5018,-9.4634,-9.3749,-9.2941,-9.2133,-9.1248,-9.121,-9.121,-9.121,-8.9556,-8.8709,-8.8709,-8.6978,-8.5709,-8.4901,-8.4901,-8.4439,-5.0545,-5.4876,-6.0052,-6.3429,-6.7467,-7.2239,-7.8479,-7.9984,-8.1415,-8.6334,-8.9996,-9.165,-8.9563,-9.2172,-9.532,-9.7338,-10.1497,-10.5613,-10.9184,-10.9906,-11.0291,-11.0906,-10.9098,-10.8098,-10.8406,-10.6405,-10.4905,-10.4713,-10.2789,-10.1404,-10.0904,-9.9519,-9.8634,-9.8288,-9.8019,-9.748,-9.6673,-9.6673,-9.6557,-9.6288,-9.6288,-9.6288,-9.6288,-9.6288,-9.6288,-9.6288,-9.5634,-9.5403,-9.5403,-9.5403,-9.5403,-9.5441,-9.6057,-9.6288,-9.6288,-9.6288,-9.6288,-9.6288,-9.6288,-9.6288,-9.6288,-9.6288,-9.6288,-9.6288,-9.6288,-9.6288,-9.6288,-9.6288,-9.6288,-9.6288,-9.6288,-9.6288,-9.6288,-9.6288,-9.6288,-9.6288,-9.6288,-9.6288,-9.6288,-9.6288,-9.6288,-9.6288,-9.6288,-9.6288,-9.6288,-9.6288,-9.6288,-9.6288,-9.6288,-9.6288,-9.6288,-9.6288,-9.6057,-9.5903,-9.5903,-9.5903,-9.5518,-9.4672,-9.4364,-9.3595,-9.2172,-9.1518,-9.121,-9.121,-9.0094,-8.9286,-8.8709,-8.7555,-8.6594,-8.5747,-8.517,-8.4747,-5.1132,-5.6455,-6.2842,-6.6916,-7.1358,-7.613,-8.1636,-8.4278,-8.6371,-8.9307,-9.2134,-9.3859,-9.3161,-9.4318,-9.6217,-9.8714,-10.1289,-10.3976,-10.6997,-10.7405,-10.7598,-10.8098,-10.679,-10.579,-10.5713,-10.3982,-10.2712,-10.2404,-10.0789,-9.9712,-9.9596,-9.8442,-9.7711,-9.7519,-9.7211,-9.6788,-9.6288,-9.5942,-9.5788,-9.5788,-9.5441,-9.5288,-9.5288,-9.5634,-9.5595,-9.5249,-9.4711,-9.448,-9.448,-9.448,-9.4672,-9.5018,-9.5211,-9.5672,-9.6249,-9.5903,-9.6019,-9.6288,-9.6288,-9.6288,-9.6288,-9.6288,-9.6288,-9.6288,-9.6288,-9.6288,-9.6288,-9.6288,-9.6288,-9.6288,-9.6288,-9.6288,-9.6288,-9.6288,-9.6288,-9.6288,-9.6288,-9.6288,-9.6288,-9.6288,-9.6288,-9.6288,-9.6288,-9.6288,-9.6288,-9.6288,-9.6288,-9.6288,-9.6288,-9.6288,-9.6288,-9.6288,-9.6288,-9.6288,-9.6288,-9.6288,-9.6095,-9.5557,-9.4864,-9.4018,-9.3018,-9.2172,-9.1556,-9.121,-9.0364,-8.9671,-8.9171,-8.8325,-8.7632,-8.7094,-8.6286,-8.5901,-4.926,-5.484,-6.1667,-6.6512,-7.4258,-8.1672,-8.5563,-8.872,-9.14,-9.3345,-9.474,-9.5804,-9.6355,-9.6021,-9.6404,-9.8723,-10.0313,-10.2103,-10.44,-10.4789,-10.4789,-10.4789,-10.4789,-10.4097,-10.252,-10.1597,-10.0789,-9.9981,-9.8442,-9.7865,-9.8634,-9.7173,-9.6596,-9.725,-9.6557,-9.6134,-9.6057,-9.5288,-9.4864,-9.4864,-9.4057,-9.3672,-9.3633,-9.448,-9.4403,-9.3595,-9.3595,-9.3557,-9.348,-9.3557,-9.4057,-9.4711,-9.398,-9.4672,-9.598,-9.5172,-9.5441,-9.6172,-9.6172,-9.6249,-9.6288,-9.6288,-9.6288,-9.6288,-9.6288,-9.6288,-9.6288,-9.6288,-9.6288,-9.6288,-9.6288,-9.6288,-9.6288,-9.6288,-9.6288,-9.6288,-9.6288,-9.6288,-9.6288,-9.6288,-9.6288,-9.6288,-9.6288,-9.6288,-9.6288,-9.6288,-9.6288,-9.6288,-9.6288,-9.6288,-9.6288,-9.6288,-9.6288,-9.6288,-9.6288,-9.6288,-9.6288,-9.6288,-9.4826,-9.3864,-9.371,-9.2864,-9.2018,-9.121,-9.0364,-8.9902,-8.9902,-8.9094,-8.8709,-8.8671,-8.7902,-8.7478,-5.6493,-5.9538,-6.3833,-7.4331,-8.2186,-8.8096,-9.0886,-9.206,-9.1987,-8.9931,-9.3198,-9.6098,-9.4997,-9.6169,-9.768,-9.8815,-9.9831,-10.078,-10.1979,-10.2712,-10.2904,-10.2212,-10.2097,-10.1712,-10.0712,-9.9865,-9.925,-9.9096,-9.8096,-9.7596,-9.7788,-9.6826,-9.6057,-9.5557,-9.5365,-9.4941,-9.4249,-9.4057,-9.398,-9.398,-9.3787,-9.3364,-9.2787,-9.3595,-9.3518,-9.2749,-9.2749,-9.2364,-9.1787,-9.2479,-9.2864,-9.3095,-9.3518,-9.3941,-9.4249,-9.4057,-9.4518,-9.5288,-9.5288,-9.5711,-9.6288,-9.6288,-9.6288,-9.6288,-9.6288,-9.6288,-9.6288,-9.6288,-9.6288,-9.6288,-9.6288,-9.6288,-9.6288,-9.6288,-9.6288,-9.6288,-9.6288,-9.6288,-9.6288,-9.6288,-9.6288,-9.6288,-9.6288,-9.6288,-9.6288,-9.6288,-9.6288,-9.6288,-9.6288,-9.6288,-9.6288,-9.6288,-9.6288,-9.6288,-9.6288,-9.6288,-9.6288,-9.6288,-9.5942,-9.5134,-9.3749,-9.2287,-9.1402,-9.121,-9.0364,-8.9902,-8.9902,-8.9094,-8.8709,-8.8709,-8.8517,-8.8055,-5.709,-6.1124,-6.6953,-7.9543,-8.6077,-9.0078,-9.2537,-9.3088,-9.2721,-9.14,-9.3492,-9.5404,-9.4921,-9.6112,-9.7297,-9.7742,-9.8756,-9.9658,-10.0019,-10.0481,-10.0596,-10.0212,-10.0096,-9.9788,-9.8942,-9.8442,-9.8019,-9.7634,-9.7173,-9.6942,-9.6942,-9.6134,-9.548,-9.5018,-9.421,-9.3557,-9.3133,-9.2287,-9.1864,-9.1864,-9.1479,-9.1287,-9.1287,-9.2133,-9.2287,-9.1864,-9.1864,-9.1633,-9.1248,-9.171,-9.2133,-9.2479,-9.2518,-9.2979,-9.3633,-9.3249,-9.3672,-9.4441,-9.4864,-9.5288,-9.5749,-9.6172,-9.6288,-9.6288,-9.6288,-9.6288,-9.6288,-9.6288,-9.6288,-9.6288,-9.6288,-9.6288,-9.6288,-9.6288,-9.6288,-9.6288,-9.6288,-9.6288,-9.6288,-9.6288,-9.6288,-9.6288,-9.6288,-9.6288,-9.6288,-9.6288,-9.6288,-9.6288,-9.6288,-9.6288,-9.6288,-9.6288,-9.6288,-9.6288,-9.6288,-9.6288,-9.6288,-9.6288,-9.5903,-9.5249,-9.4364,-9.271,-9.1633,-9.121,-9.0748,-9.0517,-9.0517,-9.0094,-8.9902,-8.9902,-8.9479,-8.8825,-5.5135,-6.205,-7.0954,-8.2663,-8.7619,-9.0152,-9.2207,-9.2794,-9.3088,-9.3897,-9.4191,-9.4485,-9.5081,-9.5906,-9.6423,-9.6128,-9.7486,-9.8423,-9.8019,-9.8308,-9.8481,-9.8173,-9.8404,-9.825,-9.7365,-9.7173,-9.6788,-9.6134,-9.5942,-9.5865,-9.5865,-9.5018,-9.448,-9.4326,-9.2864,-9.1979,-9.1864,-9.0402,-8.971,-8.9671,-8.9017,-8.9056,-8.971,-9.0441,-9.0941,-9.121,-9.121,-9.121,-9.121,-9.121,-9.1633,-9.221,-9.1479,-9.2056,-9.3172,-9.2518,-9.2787,-9.3633,-9.448,-9.4864,-9.5134,-9.6019,-9.6288,-9.6288,-9.6288,-9.6288,-9.6288,-9.6288,-9.6288,-9.6288,-9.6288,-9.6288,-9.6288,-9.6288,-9.6288,-9.6288,-9.6288,-9.6288,-9.6288,-9.6288,-9.6288,-9.6288,-9.6288,-9.6288,-9.6288,-9.6288,-9.6288,-9.6288,-9.6288,-9.6288,-9.6288,-9.6288,-9.6288,-9.6288,-9.6288,-9.6288,-9.6288,-9.6288,-9.5634,-9.5172,-9.5018,-9.3518,-9.2287,-9.1441,-9.1287,-9.121,-9.121,-9.121,-9.121,-9.1171,-9.0479,-8.971,-5.4447,-6.5312,-7.6423,-8.3104,-8.7619,-9.0555,-9.0849,-9.1473,-9.2203,-9.2996,-9.3776,-9.4337,-9.4448,-9.5566,-9.6062,-9.4696,-9.6284,-9.6943,-9.4834,-9.6342,-9.7134,-9.5672,-9.6788,-9.7365,-9.6557,-9.5788,-9.5288,-9.5172,-9.448,-9.4057,-9.4057,-9.3287,-9.2479,-9.1748,-9.0748,-8.9902,-8.921,-8.8979,-8.8863,-8.8863,-8.8748,-8.8748,-8.8863,-8.8979,-8.9825,-9.121,-9.121,-9.121,-9.121,-9.121,-9.1287,-9.1364,-9.1248,-9.1325,-9.1518,-9.1402,-9.1902,-9.2787,-9.3595,-9.4364,-9.5134,-9.6019,-9.6288,-9.6288,-9.6288,-9.6288,-9.6288,-9.6288,-9.6288,-9.6288,-9.6288,-9.6288,-9.6288,-9.6288,-9.6288,-9.6288,-9.6288,-9.6288,-9.6288,-9.6288,-9.6288,-9.6288,-9.6288,-9.6288,-9.6288,-9.6288,-9.6288,-9.6288,-9.6288,-9.6288,-9.6288,-9.6288,-9.6288,-9.6288,-9.6288,-9.6288,-9.6288,-9.6288,-9.6172,-9.5788,-9.5018,-9.4057,-9.3172,-9.2326,-9.1595,-9.121,-9.121,-9.121,-9.121,-9.121,-9.1095,-9.0556,-5.5252,-6.4487,-7.356,-7.969,-8.4609,-8.8133,-8.905,-8.9895,-9.0552,-9.0898,-9.1281,-9.1801,-9.2661,-9.3014,-9.305,-9.2801,-9.3919,-9.4592,-9.3866,-9.4676,-9.5095,-9.4364,-9.4903,-9.5211,-9.4864,-9.448,-9.4249,-9.4249,-9.348,-9.3018,-9.3018,-9.1787,-9.0671,-8.9825,-8.894,-8.7863,-8.6594,-8.6555,-8.6555,-8.6594,-8.7017,-8.7517,-8.7979,-8.7979,-8.8632,-8.9787,-8.9787,-9.0056,-9.0479,-9.0479,-9.0748,-9.121,-9.121,-9.121,-9.121,-9.121,-9.1441,-9.1902,-9.2749,-9.3557,-9.4403,-9.5288,-9.5903,-9.6288,-9.6288,-9.6288,-9.6288,-9.6288,-9.6288,-9.6288,-9.6288,-9.6288,-9.6288,-9.6288,-9.6288,-9.6288,-9.6288,-9.6288,-9.6288,-9.6288,-9.6288,-9.6288,-9.6288,-9.6288,-9.6288,-9.6288,-9.6288,-9.6288,-9.6288,-9.6288,-9.6288,-9.6288,-9.6288,-9.6288,-9.6288,-9.6288,-9.6288,-9.6288,-9.6288,-9.6134,-9.5749,-9.4903,-9.4018,-9.3172,-9.1864,-9.121,-9.121,-9.121,-9.121,-9.121,-9.121,-9.0748,-5.4872,-6.0992,-6.7283,-7.4625,-7.9764,-8.3728,-8.6371,-8.7766,-8.8536,-8.8757,-8.8647,-8.8782,-8.9744,-9.0031,-9.031,-9.0659,-9.1319,-9.1848,-9.1908,-9.2411,-9.2736,-9.2462,-9.2826,-9.3056,-9.3056,-9.2864,-9.2749,-9.2749,-9.1979,-9.1441,-9.121,-8.9748,-8.8556,-8.7748,-8.6901,-8.5824,-8.4593,-8.4786,-8.4901,-8.4901,-8.5709,-8.644,-8.7055,-8.7055,-8.7401,-8.8055,-8.8517,-8.9056,-8.9633,-8.9825,-9.0287,-9.0902,-9.1133,-9.121,-9.121,-9.121,-9.121,-9.1325,-9.221,-9.3018,-9.3826,-9.4711,-9.5595,-9.6288,-9.6288,-9.6288,-9.6288,-9.6288,-9.6288,-9.6288,-9.6288,-9.6288,-9.6288,-9.6288,-9.6288,-9.6288,-9.6288,-9.6288,-9.6288,-9.6288,-9.6288,-9.6288,-9.6288,-9.6288,-9.6288,-9.6288,-9.6288,-9.6288,-9.6288,-9.6288,-9.6288,-9.6288,-9.6288,-9.6288,-9.6288,-9.6288,-9.6288,-9.6288,-9.6288,-9.6288,-9.6288,-9.5441,-9.4672,-9.4018,-9.2595,-9.1748,-9.1518,-9.1325,-9.1325,-9.1518,-9.1287,-9.0748,-5.1729,-5.4494,-5.8584,-6.8164,-7.301,-7.69,-8.2406,-8.4866,-8.6187,-8.6995,-8.6518,-8.5781,-8.5117,-8.7386,-8.9156,-8.8483,-8.8928,-8.8822,-8.7198,-8.895,-9.0046,-8.9081,-9.0364,-9.1325,-9.1325,-9.0594,-9.0094,-9.0094,-8.9363,-8.8517,-8.7709,-8.6786,-8.594,-8.5132,-8.4247,-8.3747,-8.367,-8.4478,-8.4901,-8.4901,-8.5709,-8.6132,-8.617,-8.617,-8.6209,-8.6324,-8.7979,-8.8709,-8.8825,-8.9594,-8.994,-9.0056,-9.0902,-9.121,-9.121,-9.121,-9.121,-9.1325,-9.221,-9.3018,-9.3826,-9.4711,-9.5595,-9.6288,-9.6288,-9.6288,-9.6288,-9.6288,-9.6288,-9.6288,-9.6288,-9.6288,-9.6288,-9.6288,-9.6288,-9.6288,-9.6288,-9.6288,-9.6288,-9.6288,-9.6288,-9.6288,-9.6288,-9.6288,-9.6288,-9.6288,-9.6288,-9.6288,-9.6288,-9.6288,-9.6288,-9.6288,-9.6288,-9.6288,-9.6288,-9.6288,-9.6288,-9.6288,-9.6288,-9.6288,-9.6288,-9.5441,-9.498,-9.4903,-9.4018,-9.3172,-9.2441,-9.1595,-9.1633,-9.2402,-9.1595,-9.0748,-4.9487,-5.206,-5.539,-6.0933,-6.5962,-7.0183,-7.2753,-7.6974,-8.0424,-8.0686,-8.2223,-8.3398,-8.3104,-8.4396,-8.5419,-8.5047,-8.5168,-8.5312,-8.516,-8.6206,-8.6864,-8.649,-8.7343,-8.794,-8.794,-8.7632,-8.7512,-8.7657,-8.6767,-8.615,-8.5954,-8.5019,-8.4093,-8.3247,-8.3478,-8.3324,-8.2747,-8.3632,-8.4055,-8.4093,-8.544,-8.6094,-8.6094,-8.6094,-8.6094,-8.6132,-8.6748,-8.7363,-8.7902,-8.8171,-8.894,-8.994,-9.0248,-9.071,-9.121,-9.121,-9.121,-9.1248,-9.1556,-9.221,-9.3056,-9.3903,-9.4749,-9.5557,-9.6134,-9.6288,-9.6288,-9.6288,-9.6288,-9.6288,-9.6288,-9.6288,-9.6288,-9.6288,-9.6288,-9.6288,-9.6288,-9.6288,-9.6288,-9.6288,-9.6288,-9.6288,-9.6288,-9.6288,-9.6288,-9.6288,-9.6288,-9.6288,-9.6288,-9.6288,-9.6288,-9.6288,-9.6288,-9.6288,-9.6288,-9.6288,-9.6288,-9.6288,-9.6288,-9.6288,-9.6288,-9.6019,-9.5557,-9.5018,-9.4672,-9.4095,-9.3249,-9.2441,-9.2172,-9.2479,-9.1595,-9.1018,-4.7788,-4.9381,-5.172,-5.5794,-5.9024,-6.2144,-6.5668,-7.044,-7.4404,-7.5469,-7.8516,-8.0975,-8.0975,-8.1415,-8.1939,-8.2378,-8.2208,-8.2286,-8.2923,-8.3597,-8.398,-8.3938,-8.4703,-8.5198,-8.4966,-8.5126,-8.5322,-8.5456,-8.4848,-8.4383,-8.4175,-8.3542,-8.2747,-8.19,-8.2439,-8.2477,-8.19,-8.2747,-8.317,-8.317,-8.4901,-8.5709,-8.5709,-8.5978,-8.6094,-8.6094,-8.6094,-8.644,-8.6978,-8.7286,-8.8248,-8.9517,-8.9787,-9.0441,-9.121,-9.121,-9.121,-9.121,-9.121,-9.1787,-9.2633,-9.3441,-9.4287,-9.5172,-9.6057,-9.6288,-9.6288,-9.6288,-9.6288,-9.6288,-9.6288,-9.6288,-9.6288,-9.6288,-9.6288,-9.6288,-9.6288,-9.6288,-9.6288,-9.6288,-9.6288,-9.6288,-9.6288,-9.6288,-9.6288,-9.6288,-9.6288,-9.6288,-9.6288,-9.6288,-9.6288,-9.6288,-9.6288,-9.6288,-9.6288,-9.6288,-9.6288,-9.6288,-9.6288,-9.6288,-9.6288,-9.6288,-9.6019,-9.5441,-9.5441,-9.5134,-9.4557,-9.3172,-9.2633,-9.2864,-9.1748,-9.1056,0.0,0.0,0.0,-5.2784,-5.2417,-5.3004,-6.1741,-6.5595,-6.8301,-7.168,-7.5536,-7.8326,-7.8473,-7.851,-7.9024,-8.0571,-8.0236,-7.9904,-8.0279,-8.1099,-8.1605,-8.1362,-8.2633,-8.3274,-8.2702,-8.3131,-8.3484,-8.3484,-8.35,-8.3115,-8.2292,-8.2269,-8.19,-8.1131,-8.1093,-8.1093,-8.1093,-8.19,-8.2324,-8.2362,-8.4093,-8.4901,-8.4978,-8.5747,-8.6094,-8.6055,-8.6055,-8.6055,-8.6132,-8.7017,-8.7863,-8.8748,-8.9556,-9.0402,-9.1171,-9.121,-9.121,-9.121,-9.121,-9.1748,-9.2595,-9.3403,-9.4249,-9.5095,-9.6019,-9.6288,-9.6288,-9.6288,-9.6288,-9.6288,-9.6288,-9.6288,-9.6288,-9.6288,-9.6288,-9.6288,-9.6288,-9.6288,-9.6288,-9.6288,-9.6288,-9.6288,-9.6288,-9.6288,-9.6288,-9.6288,-9.6288,-9.6288,-9.6288,-9.6288,-9.6288,-9.6288,-9.6288,-9.6288,-9.6288,-9.6288,-9.6288,-9.6288,-9.6288,-9.6288,-9.6288,-9.6288,-9.6288,-9.6288,-9.6288,-9.6288,-9.6288,-9.3787,-9.2941,-9.3672,-9.1979,-9.0748,-4.8905,0.0,0.0,0.0,0.0,0.0,-5.4363,-5.7189,-6.099,-6.8198,-7.0573,-7.244,-7.5939,-7.6569,-7.6588,-7.6587,-7.7783,-7.874,-7.8884,-7.9857,-8.0517,-8.0487,-8.0812,-8.1188,-8.1512,-8.0869,-8.0655,-8.122,-8.1154,-8.1041,-8.0937,-8.1224,-8.1323,-8.1093,-8.1093,-8.1093,-8.1093,-8.19,-8.2631,-8.3247,-8.4362,-8.5209,-8.5786,-8.6017,-8.5786,-8.5247,-8.5247,-8.5247,-8.5286,-8.6132,-8.6978,-8.7825,-8.8709,-8.9517,-9.0364,-9.0979,-9.121,-9.121,-9.121,-9.1364,-9.171,-9.2556,-9.3403,-9.421,-9.5095,-9.5788,-9.6288,-9.6288,-9.6288,-9.6288,-9.6288,-9.6288,-9.6288,-9.6288,-9.6288,-9.6288,-9.6288,-9.6288,-9.6288,-9.6288,-9.6288,-9.6288,-9.6288,-9.6288,-9.6288,-9.6288,-9.6288,-9.6288,-9.6288,-9.6288,-9.6288,-9.6288,-9.6288,-9.6288,-9.6288,-9.6288,-9.6288,-9.6288,-9.6288,-9.6288,-9.6288,-9.6288,-9.6288,-9.6288,-9.6288,-9.6288,-9.6288,-9.4326,-9.348,-9.3672,-9.1979,-9.0748,-5.0695,-4.9715,-4.8919,-4.8143,0.0,0.0,-4.9546,-5.14,-5.4607,-6.1878,-6.3565,-6.5059,-6.9531,-6.9531,-6.9329,-7.068,-7.2791,-7.497,-7.7031,-7.811,-7.868,-7.868,-7.8921,-7.9246,-7.9608,-7.9303,-7.9381,-8.0099,-8.0373,-8.0563,-8.0672,-8.0967,-8.1093,-8.1093,-8.1093,-8.1093,-8.1093,-8.1554,-8.2054,-8.2554,-8.3401,-8.4247,-8.5055,-8.544,-8.5363,-8.4901,-8.4901,-8.4901,-8.4939,-8.5401,-8.6324,-8.7478,-8.8363,-8.9171,-9.0017,-9.0902,-9.121,-9.121,-9.121,-9.121,-9.1325,-9.221,-9.3018,-9.3864,-9.4749,-9.5595,-9.6288,-9.6288,-9.6288,-9.6288,-9.6288,-9.6288,-9.6288,-9.6288,-9.6288,-9.6288,-9.6288,-9.6288,-9.6288,-9.6288,-9.6288,-9.6288,-9.6288,-9.6288,-9.6288,-9.6288,-9.6288,-9.6288,-9.6288,-9.6288,-9.6288,-9.6288,-9.6288,-9.6288,-9.6288,-9.6288,-9.6288,-9.6288,-9.6288,-9.6288,-9.6288,-9.6288,-9.6288,-9.6288,-9.6288,-9.5942,-9.5211,-9.421,-9.3326,-9.2633,-9.1672,-9.0941,-5.2136,-5.1021,-5.0544,-5.0517,-4.7462,0.0,-4.7465,-4.8088,-4.969,-5.5092,-5.6129,-5.7302,-6.1347,-6.0428,-6.0184,-6.3649,-6.6395,-6.99,-7.5009,-7.6235,-7.6617,-7.6684,-7.7083,-7.7398,-7.7513,-7.8082,-7.8714,-7.9418,-8.0344,-8.093,-8.1093,-8.1093,-8.1093,-8.1093,-8.1093,-8.1093,-8.1093,-8.1093,-8.1131,-8.1246,-8.1939,-8.2747,-8.3632,-8.4401,-8.4709,-8.4632,-8.4632,-8.467,-8.4747,-8.4747,-8.5747,-8.7363,-8.8325,-8.9133,-8.9902,-9.0864,-9.121,-9.121,-9.121,-9.121,-9.1325,-9.2095,-9.2903,-9.371,-9.4595,-9.5441,-9.6172,-9.6288,-9.6288,-9.6288,-9.6288,-9.6288,-9.6288,-9.6288,-9.6288,-9.6288,-9.6288,-9.6288,-9.6288,-9.6288,-9.6288,-9.6288,-9.6288,-9.6288,-9.6288,-9.6288,-9.6288,-9.6288,-9.6288,-9.6288,-9.6288,-9.6288,-9.6288,-9.6288,-9.6288,-9.6288,-9.6288,-9.6288,-9.6288,-9.6288,-9.6288,-9.6288,-9.6288,-9.6288,-9.6288,-9.548,-9.3826,-9.3749,-9.2826,-9.121,-9.121,-9.1248,-5.2594,-5.251,-5.1989,-4.9427,-4.9554,0.0,-5.0544,-4.8901,-4.9159,-5.5495,-5.404,-5.2899,-5.6982,-5.7876,-5.7881,-5.7559,-6.1702,-6.7246,-7.3703,-7.5328,-7.5944,-7.6426,-7.5727,-7.5671,-7.6847,-7.6181,-7.614,-7.7235,-7.8561,-7.9828,-8.1038,-8.1093,-8.1093,-8.1093,-8.1093,-8.1093,-8.1093,-8.1093,-8.1439,-8.2054,-8.2208,-8.2747,-8.3593,-8.3785,-8.3478,-8.2824,-8.2824,-8.3208,-8.3862,-8.3862,-8.4824,-8.6517,-8.8094,-8.8786,-8.9133,-9.0633,-9.121,-9.121,-9.121,-9.121,-9.1248,-9.1402,-9.2018,-9.2903,-9.371,-9.4557,-9.5403,-9.6095,-9.6288,-9.6288,-9.6288,-9.6288,-9.6288,-9.6288,-9.6288,-9.6288,-9.6288,-9.6288,-9.6288,-9.6288,-9.6288,-9.6288,-9.6288,-9.6288,-9.6288,-9.6288,-9.6288,-9.6288,-9.6288,-9.6288,-9.6288,-9.6288,-9.6288,-9.6288,-9.6288,-9.6288,-9.6288,-9.6288,-9.6288,-9.6288,-9.6288,-9.6288,-9.6288,-9.6288,-9.6288,-9.5788,-9.4749,-9.4018,-9.2826,-9.121,-9.121,-9.1595,-5.3584,-5.305,-5.2651,-5.1597,-5.0729,0.0,0.0,-4.818,-4.7241,-5.1935,-4.9426,-4.735,-5.0619,-5.0211,-4.9843,-5.1156,-5.4106,-5.823,-6.3961,-6.957,-7.3023,-7.2869,-7.266,-7.2853,-7.3619,-7.3591,-7.4399,-7.6393,-7.8273,-7.9676,-8.0423,-8.0862,-8.1093,-8.1093,-8.1093,-8.1093,-8.1093,-8.1093,-8.1285,-8.1708,-8.1708,-8.2131,-8.2939,-8.2939,-8.2708,-8.2285,-8.2285,-8.2554,-8.2978,-8.3401,-8.4362,-8.5709,-8.7863,-8.8709,-8.8902,-9.0594,-9.121,-9.121,-9.121,-9.121,-9.121,-9.121,-9.1787,-9.2595,-9.2979,-9.398,-9.5172,-9.6057,-9.6288,-9.6288,-9.6288,-9.6288,-9.6288,-9.6288,-9.6288,-9.6288,-9.6288,-9.6288,-9.6288,-9.6288,-9.6288,-9.6288,-9.6288,-9.6288,-9.6288,-9.6288,-9.6288,-9.6288,-9.6288,-9.6288,-9.6288,-9.6288,-9.6288,-9.6288,-9.6288,-9.6288,-9.6288,-9.6288,-9.6288,-9.6288,-9.6288,-9.6288,-9.6288,-9.6288,-9.6288,-9.5865,-9.498,-9.4557,-9.3672,-9.2441,-9.2441,-9.2479,-5.5099,-5.4316,-5.426,-5.4181,-5.216,-5.013,0.0,0.0,0.0,-4.7984,-4.5261,-4.3094,-4.4892,-4.2983,-4.2049,-4.4984,-4.6929,-4.9196,-5.2412,-6.1074,-6.7005,-6.6837,-6.7037,-6.7689,-6.8972,-7.0419,-7.2432,-7.5304,-7.7335,-7.8638,-7.9137,-8.0238,-8.0862,-8.0862,-8.1016,-8.1093,-8.1093,-8.1093,-8.1093,-8.1093,-8.1093,-8.1439,-8.2054,-8.2054,-8.2054,-8.2054,-8.2054,-8.217,-8.2362,-8.3054,-8.3978,-8.517,-8.7709,-8.8709,-8.8902,-9.0594,-9.121,-9.121,-9.121,-9.121,-9.121,-9.121,-9.1787,-9.2479,-9.2479,-9.3672,-9.5134,-9.5865,-9.6172,-9.6288,-9.6288,-9.6288,-9.6288,-9.6288,-9.6288,-9.6288,-9.6288,-9.6288,-9.6288,-9.6288,-9.6288,-9.6288,-9.6288,-9.6288,-9.6288,-9.6288,-9.6288,-9.6288,-9.6288,-9.6288,-9.6288,-9.6288,-9.6288,-9.6288,-9.6288,-9.6288,-9.6288,-9.6288,-9.6288,-9.6288,-9.6288,-9.6288,-9.6288,-9.6288,-9.6288,-9.5942,-9.5249,-9.5249,-9.4711,-9.371,-9.371,-9.3441,-5.7274,-5.8323,-5.9095,-5.4475,-5.5133,-5.5705,-5.1138,0.0,-4.8605,-4.7099,0.0,-4.3204,-4.28,0.0,0.0,-3.9827,-4.392,-4.6577,-4.4736,-5.0397,-5.549,-5.7623,-5.6277,-5.7413,-6.3124,-6.6216,-6.9102,-7.2092,-7.3114,-7.4542,-7.6667,-7.8788,-7.9939,-7.9939,-8.0708,-8.1093,-8.1093,-8.1093,-8.1093,-8.1093,-8.1093,-8.1131,-8.1246,-8.1246,-8.1246,-8.1246,-8.1246,-8.1631,-8.2324,-8.2401,-8.3439,-8.517,-8.7709,-8.8709,-8.8902,-9.0594,-9.121,-9.121,-9.121,-9.121,-9.121,-9.121,-9.1787,-9.2479,-9.2479,-9.3672,-9.5037,-9.5095,-9.5711,-9.6288,-9.6288,-9.6288,-9.6288,-9.6288,-9.6288,-9.6288,-9.6288,-9.6288,-9.6288,-9.6288,-9.6288,-9.6288,-9.6288,-9.6288,-9.6288,-9.6288,-9.6288,-9.6288,-9.6288,-9.6288,-9.6288,-9.6288,-9.6288,-9.6288,-9.6288,-9.6288,-9.6288,-9.6288,-9.6288,-9.6288,-9.6288,-9.6288,-9.6288,-9.6288,-9.6288,-9.6249,-9.6134,-9.6134,-9.5326,-9.371,-9.371,-9.4057,-6.0754,-6.1698,-6.2193,-5.9356,-5.9036,-5.8189,-5.3642,-5.1035,-4.9338,-4.8476,0.0,0.0,0.0,0.0,0.0,0.0,-4.1699,-4.2386,-4.077,-4.2468,-4.6104,-5.2148,-5.2865,-5.4761,-5.9525,-6.0215,-6.1646,-6.479,-6.7354,-6.9552,-7.1352,-7.5982,-7.87,-7.9054,-7.99,-8.0362,-8.0362,-8.0362,-8.0592,-8.1093,-8.0716,-8.0733,-8.1077,-8.0716,-8.0733,-8.1093,-8.1093,-8.1285,-8.167,-8.2631,-8.3478,-8.4401,-8.694,-8.8248,-8.8825,-9.0017,-9.0787,-9.121,-9.121,-9.121,-9.121,-9.121,-9.1441,-9.1825,-9.2364,-9.3326,-9.4326,-9.4864,-9.5634,-9.6288,-9.6288,-9.6288,-9.6288,-9.6288,-9.6288,-9.6288,-9.6288,-9.6288,-9.6288,-9.6288,-9.6288,-9.6288,-9.6288,-9.6288,-9.6288,-9.6288,-9.6288,-9.6288,-9.6288,-9.6288,-9.6288,-9.6288,-9.6288,-9.6288,-9.6288,-9.6288,-9.6288,-9.6288,-9.6288,-9.6288,-9.6288,-9.6288,-9.6288,-9.6288,-9.6288,-9.6288,-9.6288,-9.6288,-9.5942,-9.5211,-9.5211,-9.5134,-6.5369,-6.5508,-6.5583,-6.3973,-6.1812,-5.9208,-5.5831,-5.3078,-5.1079,-5.0381,-4.9003,0.0,0.0,0.0,-4.313,-4.1682,0.0,-3.9974,-3.8285,-3.7918,-4.0161,-4.6371,-4.9311,-5.1937,-5.4621,-5.4182,-5.4895,-5.7623,-6.0564,-6.3507,-6.6385,-7.1918,-7.591,-7.7844,-7.8915,-7.9554,-7.9823,-7.9823,-8.0246,-8.1093,-8.0608,-8.0626,-8.1077,-8.0608,-8.0626,-8.1093,-8.1093,-8.1246,-8.1516,-8.2747,-8.3516,-8.4132,-8.5978,-8.7363,-8.844,-8.9286,-8.9979,-9.0556,-9.0787,-9.1018,-9.121,-9.121,-9.121,-9.1364,-9.2249,-9.3056,-9.3864,-9.4749,-9.5634,-9.6288,-9.6288,-9.6288,-9.6288,-9.6288,-9.6288,-9.6288,-9.6288,-9.6288,-9.6288,-9.6288,-9.6288,-9.6288,-9.6288,-9.6288,-9.6288,-9.6288,-9.6288,-9.6288,-9.6288,-9.6288,-9.6288,-9.6288,-9.6288,-9.6288,-9.6288,-9.6288,-9.6288,-9.6288,-9.6288,-9.6288,-9.6288,-9.6288,-9.6288,-9.6288,-9.6288,-9.6288,-9.6288,-9.6288,-9.6288,-9.6288,-9.6288,-9.5942,-7.1196,-7.0076,-6.9854,-6.6837,-6.2641,-5.8781,-5.7116,-5.6051,-5.473,-5.238,-5.2491,-5.2491,-5.0912,-4.858,-4.5902,-4.2763,-4.2249,0.0,0.0,-3.7698,-3.8762,-3.905,-4.3238,-4.6372,-4.7009,-4.8696,-5.0435,-5.2021,-5.2832,-5.6083,-6.2711,-6.6357,-7.0735,-7.6271,-7.7812,-7.8938,-7.9785,-7.9823,-8.0246,-8.1093,-8.1077,-8.1077,-8.1093,-8.1077,-8.1077,-8.1093,-8.1093,-8.1554,-8.2285,-8.2324,-8.3324,-8.4863,-8.4939,-8.5978,-8.7555,-8.8402,-8.8748,-8.8902,-8.9671,-9.0479,-9.121,-9.121,-9.121,-9.1364,-9.2249,-9.3056,-9.3864,-9.4749,-9.5634,-9.6288,-9.6288,-9.6288,-9.6288,-9.6288,-9.6288,-9.6288,-9.6288,-9.6288,-9.6288,-9.6288,-9.6288,-9.6288,-9.6288,-9.6288,-9.6288,-9.6288,-9.6288,-9.6288,-9.6288,-9.6288,-9.6288,-9.6288,-9.6288,-9.6288,-9.6288,-9.6288,-9.6288,-9.6288,-9.6288,-9.6288,-9.6288,-9.6288,-9.6288,-9.6288,-9.6288,-9.6288,-9.6288,-9.6288,-9.6288,-9.6288,-9.6288,-9.6288,-7.6991,-7.7893,-7.7939,-7.298,-6.9887,-6.6476,-6.0529,-5.774,-5.5868,-5.3995,-5.3371,-5.269,-5.1096,-4.8764,-4.6195,-4.3534,-4.2653,-4.1075,0.0,-3.7566,-3.8285,-3.935,-4.0487,-4.2038,-4.4354,-4.275,-4.2991,-4.6411,-4.6818,-5.0112,-5.7498,-6.3009,-6.8594,-7.4289,-7.6555,-7.7861,-7.813,-7.8267,-7.8995,-8.0231,-7.9972,-8.0277,-8.1077,-8.0626,-8.066,-8.1093,-8.1093,-8.1246,-8.1593,-8.2708,-8.3516,-8.4132,-8.5247,-8.6055,-8.6632,-8.7517,-8.8209,-8.8825,-8.9633,-9.0479,-9.121,-9.121,-9.121,-9.1364,-9.2249,-9.3056,-9.3864,-9.4749,-9.5634,-9.6288,-9.6288,-9.6288,-9.6288,-9.6288,-9.6288,-9.6288,-9.6288,-9.6288,-9.6288,-9.6288,-9.6288,-9.6288,-9.6288,-9.6288,-9.6288,-9.6288,-9.6288,-9.6288,-9.6288,-9.6288,-9.6288,-9.6288,-9.6288,-9.6288,-9.6288,-9.6288,-9.6288,-9.6288,-9.6288,-9.6288,-9.6288,-9.6288,-9.6288,-9.6288,-9.6288,-9.6288,-9.6288,-9.6288,-9.6288,-9.6288,-9.6288,-9.6288,-8.1244,-8.1896,-8.1681,-7.8081,-7.5014,-7.1468,-6.5962,-6.3503,-6.1704,-5.9208,-5.785,-5.6565,-5.495,-5.1463,-4.7939,-4.5223,-4.3608,-4.1589,0.0,-3.7933,-3.83,-3.935,-3.9019,-3.9496,-4.1589,-3.946,-3.8781,-4.0797,-4.1452,-4.5227,-5.3207,-5.8664,-6.4985,-7.2472,-7.5095,-7.6669,-7.7284,-7.7708,-7.8467,-7.9467,-7.9743,-8.0201,-8.0733,-8.0517,-8.0716,-8.1093,-8.1093,-8.1246,-8.1631,-8.3016,-8.3785,-8.4209,-8.5555,-8.6094,-8.617,-8.6748,-8.7671,-8.8748,-8.9286,-9.0248,-9.121,-9.121,-9.121,-9.1441,-9.2595,-9.3287,-9.3941,-9.5134,-9.5865,-9.6249,-9.5903,-9.6057,-9.6211,-9.5903,-9.6057,-9.6288,-9.6288,-9.6288,-9.6288,-9.6288,-9.6288,-9.6288,-9.6288,-9.6288,-9.6288,-9.6288,-9.6288,-9.6288,-9.6288,-9.6288,-9.6288,-9.6288,-9.6288,-9.6288,-9.6288,-9.6288,-9.6288,-9.6288,-9.6288,-9.6288,-9.6288,-9.6288,-9.6865,-9.8057,-9.6903,-9.6903,-9.8096,-9.6865,-9.6288,-9.6288,-9.6288,-9.6288]},{"header":{"parameterUnit":"m.s-1","parameterCategory":1,"la1":30.6,"la2":29.2853,"lo1":-89.7004,"lo2":-87.6739,"dy":0.0162,"dx":0.0183,"nx":112,"ny":82,"refTime":"2023-03-16T00:00:00:Z","depth":0,"parameterNumber":3,"parameterNumberName":"V-component_of_WINDS"},"data":[0.0,0.0,0.0,0.0,0.0,0.0,0.0,0.0,0.0,0.0,0.0,0.0,0.0,0.0,0.0,0.0,0.0,0.0,0.0,0.0,0.0,0.0,0.0,0.0,0.0,0.0,0.0,0.0,0.0,0.0,0.0,0.0,0.0,0.0,0.0,0.0,0.0,0.0,0.0,0.0,0.0,0.0,0.0,0.0,0.0,0.0,0.0,0.0,0.0,0.0,0.0,0.0,0.0,0.0,0.0,0.0,0.0,0.0,0.0,0.0,0.0,0.0,0.0,0.0,0.0,0.0,0.0,0.0,0.0,0.0,0.0,0.0,0.0,0.0,0.0,0.0,0.0,0.0,0.0,0.0,0.0,0.0,0.0,0.0,0.0,0.0,0.0,0.0,0.0,0.0,0.8099,0.9989,1.2662,1.4014,1.3302,1.3003,1.2006,1.0019,0.0,0.0,0.0,0.0,0.0,0.0,0.0,0.0,0.0,0.0,0.0,0.0,0.0,0.0,0.0,0.0,0.0,0.0,0.0,0.0,0.0,0.0,0.0,0.0,0.0,0.0,0.0,0.0,0.0,0.0,0.0,0.0,0.0,0.0,0.0,0.0,0.0,0.0,0.0,0.0,0.0,0.0,0.0,0.0,0.0,0.0,0.0,0.0,0.0,0.0,0.0,0.0,0.0,0.0,0.0,0.0,0.0,0.0,0.0,0.0,0.0,0.0,0.0,0.0,0.0,0.0,0.0,0.0,0.0,0.0,0.0,0.0,0.0,0.0,0.0,0.0,0.0,0.0,0.0,0.0,0.0,0.0,0.0,0.0,0.0,0.0,0.0,0.0,0.0,0.0,0.0,0.0,0.0,0.0,0.0,0.0,0.0,0.0,0.0,0.0,0.0,0.0,0.0,0.0,0.8093,1.2355,1.3745,1.4102,1.36,1.284,1.1769,1.0304,0.0,0.0,0.0,0.0,0.0,0.0,0.0,0.0,0.0,0.0,0.0,0.0,0.0,0.0,0.0,0.0,0.0,0.0,0.0,0.0,0.0,0.0,0.0,0.0,0.0,0.0,0.0,0.0,0.0,0.0,0.0,0.0,0.0,0.0,0.0,0.0,0.0,0.0,0.0,0.0,0.0,0.0,0.0,0.0,0.0,0.0,0.0,0.0,0.0,0.0,0.0,0.0,0.0,0.0,0.0,0.0,0.0,0.0,0.0,0.0,0.0,0.0,0.0,0.0,0.0,0.0,0.0,0.0,0.0,0.0,0.0,0.0,0.0,0.0,0.0,0.0,0.0,0.0,0.0,0.0,0.0,0.0,0.0,0.0,0.0,0.0,0.0,0.0,0.0,0.0,0.0,0.0,0.0,0.0,0.0,0.0,0.0,0.0,0.0,0.0,0.0,0.0,0.0,0.7612,0.9579,1.3392,1.4082,1.4116,1.3668,1.2874,1.183,1.048,1.0813,0.0,0.0,0.0,0.0,0.0,0.0,0.0,0.0,0.0,0.0,0.0,0.0,0.0,0.0,0.0,0.0,0.0,0.0,0.0,0.0,0.0,0.0,0.0,0.0,0.0,0.0,0.0,0.0,0.0,0.0,0.0,0.0,0.0,0.0,0.0,0.0,0.0,0.0,0.0,0.0,0.0,0.0,0.0,0.0,0.0,0.0,0.0,0.0,0.0,0.0,0.0,0.0,0.0,0.0,0.0,0.0,0.0,0.0,0.0,0.0,0.0,0.0,0.0,0.0,0.0,0.0,0.0,0.0,0.0,0.0,0.0,0.0,0.0,0.0,0.0,0.0,0.0,0.0,0.0,0.0,0.0,0.0,0.0,0.0,0.0,0.0,0.0,0.0,0.0,0.0,0.0,0.0,0.0,0.0,0.0,0.0,0.0,0.0,0.0,0.0,0.0,0.0,0.8977,1.1392,1.388,1.4231,1.4129,1.3715,1.2793,1.1755,1.0616,0.9841,0.0,0.0,0.0,0.0,0.0,0.0,0.0,0.0,0.0,0.0,0.0,0.0,0.0,0.0,0.0,0.0,0.0,0.0,0.0,0.0,0.0,0.0,0.0,0.0,0.0,0.0,0.0,0.0,0.0,0.0,0.0,0.0,0.0,0.0,0.0,0.0,0.0,0.0,0.0,0.0,0.0,0.0,0.0,0.0,0.0,0.0,0.0,0.0,0.0,0.0,0.0,0.0,0.0,0.0,0.0,0.0,0.0,0.0,0.0,0.0,0.0,0.0,0.0,0.0,0.0,0.0,0.0,0.0,0.0,0.0,0.0,0.0,0.0,0.0,0.0,0.0,0.0,0.0,0.0,0.0,0.0,0.0,0.0,0.0,0.0,0.0,0.0,0.0,0.0,0.0,0.0,0.0,0.0,0.0,0.0,0.0,0.0,0.0,0.0,0.0,0.0,0.0,1.0416,1.3145,1.4183,1.4292,1.417,1.3851,1.2379,1.1246,1.0738,0.8845,0.0,0.0,0.0,0.0,0.0,0.0,0.0,0.0,0.0,0.0,0.0,0.0,0.0,0.0,0.0,0.0,0.0,0.0,0.0,0.0,0.0,0.0,0.0,0.0,0.0,0.0,0.0,0.0,0.0,0.0,0.0,0.0,0.0,0.0,0.0,0.0,0.0,0.0,0.0,0.0,0.0,0.0,0.0,0.0,0.0,0.0,0.0,0.0,0.0,0.0,0.0,0.0,0.0,0.0,0.0,0.0,0.0,0.0,0.0,0.0,0.0,0.0,0.0,0.0,0.0,0.0,0.0,0.0,0.0,0.0,0.0,0.0,0.0,0.0,0.0,0.0,0.0,0.0,0.0,0.0,0.0,0.0,0.0,0.0,0.0,0.0,0.0,0.0,0.0,0.0,0.0,0.0,0.0,0.0,0.0,0.0,0.0,0.0,0.0,0.0,0.0,0.0,0.9599,1.2092,1.4082,1.4299,1.4177,1.3865,1.2759,1.1694,1.0778,0.0,0.0,0.0,0.0,0.0,0.0,0.0,0.0,0.0,0.0,0.0,0.0,0.0,0.0,0.0,0.0,0.0,0.0,0.0,0.0,0.0,0.0,0.0,0.0,0.0,0.0,0.0,0.0,0.0,0.0,0.0,0.0,0.0,0.0,0.0,0.0,0.0,0.0,0.0,0.0,0.0,0.0,0.0,0.0,0.0,0.0,0.0,0.0,0.0,0.0,0.0,0.0,0.0,0.0,0.0,0.0,0.0,0.0,0.0,0.0,0.0,0.0,0.0,0.0,0.0,0.0,0.0,0.0,0.0,0.0,0.0,0.0,0.0,0.0,0.0,0.0,0.0,0.0,0.0,0.0,0.0,0.0,0.0,0.0,0.0,0.0,0.0,0.0,0.0,0.0,0.0,0.0,0.0,0.0,0.0,0.0,0.0,0.0,0.0,0.0,0.0,0.0,0.6863,0.9563,1.2075,1.4089,1.4299,1.4177,1.3865,1.28,1.1742,1.0778,0.0,0.0,0.0,0.0,0.0,0.0,0.0,0.0,0.0,0.0,0.0,0.0,0.0,0.0,0.0,0.0,0.0,0.0,0.0,0.0,0.0,0.0,0.0,0.0,0.0,0.0,0.0,0.0,0.0,0.0,0.0,0.0,0.0,0.0,0.0,0.0,0.0,0.0,0.0,0.0,0.0,0.0,0.0,0.0,0.0,0.0,0.0,0.0,0.0,0.0,0.0,0.0,0.0,0.0,0.0,0.0,0.0,0.0,0.0,0.0,0.0,0.0,0.0,0.0,0.0,0.0,0.0,0.0,0.0,0.0,0.0,0.0,0.0,0.0,0.0,0.0,0.0,0.0,0.0,0.0,0.0,0.0,0.0,0.0,0.0,0.0,0.0,0.0,0.0,0.0,0.0,0.0,0.0,0.0,0.0,0.0,0.0,0.0,0.0,0.0,0.0,0.0,0.7195,1.0755,1.3634,1.4238,1.4299,1.4177,1.3865,1.2345,1.1206,0.0,0.0,0.0,0.0,0.0,0.0,0.0,0.0,0.0,0.0,0.0,0.0,0.0,0.0,0.0,0.0,0.0,0.0,0.0,0.0,0.0,0.0,0.0,0.0,0.0,0.0,0.0,0.0,0.0,0.0,0.0,0.0,0.0,0.0,0.0,0.0,0.0,0.0,0.0,0.0,0.0,0.0,0.0,0.0,0.0,0.0,0.0,0.0,0.0,0.0,0.0,0.0,0.0,0.0,0.0,0.0,0.0,0.0,0.0,0.0,0.0,0.0,0.0,0.0,0.0,0.0,0.0,0.0,0.0,0.0,0.0,0.0,0.0,0.0,0.0,0.0,0.0,0.0,0.0,0.0,0.0,0.0,0.0,0.0,0.0,0.0,0.0,0.0,0.0,0.0,0.0,0.0,0.0,0.0,0.0,0.0,0.0,0.0,0.0,0.0,0.0,0.0,0.0,0.7174,1.0856,1.3749,1.4245,1.4299,1.4177,1.3865,1.2813,1.1755,1.0778,0.0,0.0,0.0,0.0,0.0,0.0,0.0,0.0,0.0,0.0,0.0,0.0,0.0,0.0,0.0,0.0,0.0,0.0,0.0,0.0,0.0,0.0,0.0,0.0,0.0,0.0,0.0,0.0,0.0,0.0,0.0,0.0,0.0,0.0,0.0,0.0,0.0,0.0,0.0,0.0,0.0,0.0,0.0,0.0,0.0,0.0,0.0,0.0,0.0,0.0,0.0,0.0,0.0,0.0,0.0,0.0,0.0,0.0,0.0,0.0,0.0,0.0,0.0,0.0,0.0,0.0,0.0,0.0,0.0,0.0,0.0,0.0,0.0,0.0,0.0,0.0,0.0,0.0,0.0,0.0,0.0,0.0,0.0,0.0,0.0,0.0,0.0,0.0,0.0,0.0,0.0,0.0,0.0,0.0,0.0,0.0,0.0,0.0,0.0,0.0,0.0,0.0,0.7265,1.0898,1.3804,1.4251,1.4299,1.4177,1.3865,1.3071,1.2054,1.0799,0.0,0.0,0.0,0.0,0.0,0.0,0.0,0.0,0.0,0.0,0.0,0.0,0.0,0.0,0.0,0.0,0.0,0.0,0.0,0.0,0.0,0.0,0.0,0.0,0.0,0.0,0.0,0.0,0.0,0.0,0.0,0.0,0.0,0.0,0.0,0.0,0.0,0.0,0.0,0.0,0.0,0.0,0.0,0.0,0.0,0.0,0.0,0.0,0.0,0.0,0.0,0.0,0.0,0.0,0.0,0.0,0.0,0.0,0.0,0.0,0.0,0.0,0.0,0.0,0.0,0.0,0.0,0.0,0.0,0.0,0.0,0.0,0.0,0.0,0.0,0.0,0.0,0.0,0.0,0.0,0.0,0.0,0.0,0.0,0.0,0.0,0.0,0.0,0.0,0.0,0.0,0.0,0.0,0.0,0.0,0.0,0.0,0.0,0.0,0.0,0.0,0.0,0.7346,1.0873,1.3804,1.4251,1.4285,1.4163,1.3865,1.3159,1.2169,1.0846,0.0,0.0,0.0,0.0,0.0,0.0,0.0,0.0,0.0,0.0,0.0,0.0,0.0,0.0,0.0,0.0,0.0,0.0,0.0,0.0,0.0,0.0,0.0,0.0,0.0,0.0,0.0,0.0,0.0,0.0,0.0,0.0,0.0,0.0,0.0,0.0,0.0,0.0,0.0,0.0,0.0,0.0,0.0,0.0,0.0,0.0,0.0,0.0,0.0,0.0,0.0,0.0,0.0,0.0,0.0,0.0,0.0,0.0,0.0,0.0,1.1884,1.1206,0.0,0.0,0.0,0.0,0.0,0.0,0.0,0.0,0.0,0.0,0.0,0.0,0.0,0.0,0.0,0.0,0.0,0.0,0.0,0.0,0.0,0.0,0.0,0.0,0.0,0.0,0.0,0.0,0.0,0.0,0.0,0.0,0.0,0.0,0.0,0.0,0.0,0.0,0.0,0.0,0.7208,1.0873,1.3804,1.4251,1.419,1.4048,1.3858,1.3159,1.2257,1.1138,1.0195,0.0,0.0,0.0,0.0,0.0,0.0,0.0,0.0,0.0,0.0,0.0,0.0,0.0,0.0,0.0,0.0,0.0,0.0,0.0,0.0,0.0,0.0,0.0,0.0,0.0,0.0,0.0,0.0,0.0,0.0,0.0,0.0,0.0,0.0,0.0,0.0,0.0,0.0,0.0,0.0,0.0,0.0,0.0,0.0,0.0,0.0,0.0,0.0,0.0,0.0,0.0,0.0,0.0,0.0,0.0,0.0,0.0,0.0,0.0,1.2698,1.2271,0.0,0.0,0.0,0.0,0.0,0.0,0.0,0.0,0.0,0.0,0.0,0.0,0.0,0.0,0.0,0.0,0.0,0.0,0.0,0.0,0.0,0.0,0.0,0.0,0.0,0.0,0.0,0.0,0.0,0.0,0.0,0.0,0.0,0.0,0.0,0.0,0.0,0.0,0.0,0.0,0.8399,1.1403,1.3722,1.4245,1.4163,1.4007,1.3851,1.3227,1.2427,1.1443,1.0602,0.0,0.0,0.0,0.0,0.0,0.0,0.0,0.0,0.0,0.0,0.0,0.0,0.0,0.0,0.0,0.0,0.0,0.0,0.0,0.0,0.0,0.0,0.0,0.0,0.0,0.0,0.0,0.0,0.0,0.0,0.0,0.0,0.0,0.0,0.0,0.0,0.0,0.0,0.0,0.0,0.0,0.0,0.0,0.0,0.0,0.0,0.0,0.0,0.0,0.0,0.0,0.0,0.0,1.396,1.417,1.4238,1.4414,1.4367,1.4116,1.3838,1.3715,1.3634,1.2739,0.0,0.0,0.0,0.0,0.0,0.0,0.0,0.0,0.0,0.0,0.0,0.0,0.0,0.0,0.0,0.0,0.0,0.0,0.0,0.0,0.0,0.0,1.1369,1.2088,1.244,1.2284,1.105,0.0,0.0,0.0,0.0,0.0,0.0,0.0,0.0,0.0,0.0,0.0,0.9669,1.189,1.3654,1.4204,1.4122,1.3973,1.3817,1.3288,1.261,1.1789,1.105,1.0304,0.0,0.0,0.0,0.0,0.0,0.0,0.0,0.0,0.0,0.0,0.0,0.0,0.0,0.0,0.0,0.0,0.0,0.0,0.0,0.0,0.0,0.0,0.0,0.0,0.0,0.0,0.0,0.0,0.0,0.0,0.0,0.0,1.0839,1.1565,0.0,0.0,0.0,0.0,0.0,0.0,0.0,0.0,0.0,0.0,0.0,0.0,0.0,1.3492,1.4238,1.455,1.4909,1.5323,1.5872,1.6015,1.5798,1.6069,1.6178,1.613,1.5967,0.0,1.3994,1.3722,0.0,0.0,0.0,0.0,0.0,0.0,0.0,0.0,0.0,0.0,0.0,0.0,0.0,0.0,0.0,0.0,0.0,0.0,0.0,0.0,0.0,0.0,1.3044,1.303,1.3057,1.303,1.2834,1.0639,0.8555,0.7986,0.6224,0.438,0.0,0.0,0.0,0.0,0.0,0.0,0.9703,1.1978,1.3729,1.4068,1.396,1.381,1.3668,1.3227,1.2745,1.2237,1.1619,1.1158,1.0975,0.9883,0.0,0.0,0.0,0.0,0.0,0.0,0.0,0.0,0.0,0.0,0.0,0.0,0.0,0.0,0.0,0.0,0.0,0.0,0.0,0.0,0.0,0.0,0.0,0.0,0.0,0.0,0.0,0.0,0.0,1.1509,1.1843,1.2169,1.2284,1.2128,0.0,0.0,0.0,0.0,0.0,0.0,0.0,0.0,0.0,1.4156,1.4245,1.4685,1.5513,1.5818,1.6151,1.6517,1.7032,1.7209,1.7093,1.7304,1.7358,1.727,1.7209,1.6714,1.5893,1.5065,1.4401,1.381,0.0,0.0,0.0,0.0,1.2332,1.2474,1.3024,1.3397,1.36,1.3417,0.0,0.0,0.0,0.0,0.0,0.0,0.0,1.1477,1.185,1.261,1.3363,1.3722,1.3933,1.4007,1.3844,1.2599,1.0975,0.9333,0.8438,0.7174,0.492,0.5015,0.0,0.0,0.0,0.9709,1.1139,1.2561,1.3614,1.3912,1.381,1.3695,1.3634,1.322,1.284,1.2556,1.2054,1.1586,1.1248,1.0582,1.012,0.0,0.0,0.0,0.0,0.0,0.0,0.0,0.0,0.0,0.0,0.0,0.0,0.0,0.0,0.0,0.0,0.0,0.0,0.0,0.0,0.0,0.0,0.0,0.0,0.0,0.0,0.0,0.0,1.1952,1.2617,1.2773,1.3159,1.3119,0.0,0.0,0.0,0.0,0.0,0.0,1.3722,1.4,1.4557,1.5459,1.552,1.59,1.6646,1.6944,1.7222,1.7487,1.786,1.8036,1.8036,1.8145,1.8124,1.7989,1.7989,1.7812,1.7439,1.6246,1.5384,1.4746,1.4068,1.36,1.3322,1.3505,1.36,1.3722,1.4367,1.4652,1.4706,1.4482,1.4061,1.3444,1.244,0.0,0.0,0.0,0.0,1.1972,1.2759,1.3207,1.3634,1.4312,1.4577,1.4631,1.4448,1.4089,1.3138,1.091,1.0626,0.9837,0.7291,0.7055,0.0,0.8366,0.9371,1.0632,1.238,1.3112,1.3546,1.3763,1.3695,1.36,1.3519,1.3173,1.2895,1.2739,1.2311,1.1937,1.148,1.1145,1.069,1.0019,0.0,0.0,0.0,0.0,0.0,0.0,0.0,0.0,0.0,0.0,0.0,0.0,0.0,0.0,0.0,0.0,0.0,0.0,0.0,0.0,0.0,0.0,0.0,0.0,0.0,0.0,0.0,0.0,0.0,1.3505,1.4577,0.0,0.0,0.0,0.0,1.3546,1.3953,1.4536,1.5262,1.5452,1.5947,1.6849,1.7012,1.7243,1.7575,1.788,1.8111,1.8267,1.8423,1.8498,1.8498,1.8511,1.8423,1.8301,1.8301,1.8124,1.7772,1.7005,1.6497,1.6123,1.5235,1.4875,1.4841,1.4713,1.4753,1.493,1.5242,1.5357,1.5432,1.5839,1.5472,1.4713,1.3804,1.3105,0.0,0.0,1.2549,1.299,1.3464,1.3912,1.436,1.4828,1.4726,1.4557,1.4692,1.4482,1.4034,1.3172,1.2586,1.1521,0.9596,0.0,1.0991,0.9377,1.0996,1.2485,1.2895,1.3336,1.3627,1.3641,1.3634,1.3512,1.322,1.3051,1.2895,1.2739,1.2311,1.2121,1.2094,1.1463,1.1131,1.1152,1.01,0.0,0.0,0.0,0.0,0.0,0.0,0.0,0.0,0.0,0.0,0.0,0.0,0.0,0.0,0.0,0.0,0.0,0.0,0.0,0.0,0.0,0.0,0.0,0.0,0.0,0.0,0.0,0.0,1.4841,1.5554,0.0,1.4855,1.4923,1.495,1.4787,1.5459,1.6076,1.653,1.6795,1.7168,1.7684,1.7738,1.7914,1.8213,1.8423,1.8606,1.8762,1.8993,1.9061,1.8952,1.8952,1.8884,1.8742,1.8654,1.8477,1.8267,1.7914,1.7358,1.6686,1.6171,1.5913,1.5839,1.5872,1.592,1.6015,1.6313,1.6354,1.6218,1.59,1.5425,1.4875,1.4353,1.4048,1.3871,1.3871,1.4055,1.4292,1.4455,1.4679,1.4889,1.4957,1.4889,1.4794,1.4746,1.4577,1.4333,1.3966,1.3492,1.2876,1.1965,1.2106,1.2072,1.144,1.2106,1.2725,1.2935,1.3268,1.3485,1.3485,1.3485,1.3397,1.3193,1.2949,1.2745,1.2589,1.2162,1.187,1.1782,1.1382,1.107,1.088,1.0331,0.9774,0.0,0.0,0.0,0.0,0.0,0.0,0.0,0.0,0.0,0.0,0.0,0.0,0.0,0.0,0.0,0.0,0.0,0.0,0.0,0.0,0.0,0.0,0.0,0.0,0.0,1.4299,1.5282,1.5737,1.6497,1.6734,1.6076,1.6198,1.6313,1.6313,1.6958,1.748,1.7792,1.7894,1.8091,1.8389,1.8342,1.8443,1.8687,1.8884,1.904,1.9149,1.9345,1.9379,1.9271,1.9183,1.9081,1.8993,1.883,1.8654,1.8464,1.8355,1.7914,1.7256,1.6998,1.6815,1.6693,1.6788,1.6822,1.6842,1.6998,1.6917,1.6666,1.6178,1.5744,1.5377,1.512,1.497,1.4916,1.5018,1.5079,1.512,1.512,1.5187,1.5208,1.5018,1.493,1.4848,1.4699,1.4543,1.4414,1.4319,1.4061,1.3729,1.3322,1.2433,1.1713,1.1576,1.1594,1.1676,1.1813,1.2686,1.3254,1.3254,1.3342,1.3322,1.3119,1.2303,1.1907,1.2366,1.1328,1.0887,1.147,1.1172,1.09,1.0649,0.976,0.9109,0.8729,0.0,0.0,0.0,0.0,0.0,0.0,0.0,0.0,0.0,0.0,0.0,0.0,0.0,0.0,0.0,0.0,0.0,0.0,0.0,0.0,0.0,0.0,0.0,1.3648,1.5221,1.6286,1.6178,1.7453,1.8057,1.7324,1.7792,1.8124,1.8124,1.8389,1.8687,1.8993,1.8728,1.8687,1.8993,1.885,1.885,1.8993,1.9291,1.9434,1.9434,1.9434,1.9434,1.9413,1.9128,1.8993,1.8993,1.883,1.8599,1.8321,1.8321,1.8145,1.786,1.7717,1.7561,1.7426,1.7433,1.7426,1.7399,1.7243,1.6998,1.6754,1.6754,1.6558,1.6293,1.6144,1.5893,1.5662,1.5662,1.5554,1.5438,1.5418,1.5418,1.5343,1.5045,1.4855,1.4699,1.4543,1.4401,1.4299,1.4299,1.4299,1.4116,1.3532,1.1742,1.0282,0.9786,0.9635,0.0,0.9713,1.1678,1.2976,1.2889,1.3234,1.3281,1.2896,1.1037,1.048,1.1999,0.9867,0.9386,1.1082,1.0867,1.0643,1.05,0.8496,0.7638,0.7867,0.0,0.0,0.0,0.0,0.0,0.0,0.0,0.0,0.0,0.0,0.0,0.0,0.0,0.0,0.0,0.0,0.0,0.0,0.0,0.0,0.0,1.3973,1.5059,1.5506,1.6279,1.71,1.7935,1.8586,1.8884,1.8674,1.8905,1.9061,1.9061,1.9128,1.9217,1.9305,1.9128,1.9061,1.9149,1.9094,1.9094,1.9149,1.9339,1.9434,1.9434,1.9535,1.9535,1.9427,1.9237,1.9094,1.8993,1.883,1.8654,1.8464,1.8355,1.8199,1.8023,1.786,1.7717,1.7595,1.7704,1.7602,1.7385,1.7127,1.6985,1.6897,1.6788,1.6693,1.6598,1.6449,1.6341,1.6259,1.6157,1.6096,1.5988,1.5662,1.5574,1.5472,1.5065,1.4855,1.4699,1.4543,1.4401,1.4299,1.4299,1.4299,1.4245,1.4082,1.3521,1.2981,1.286,1.272,1.2605,1.2548,1.3085,1.2777,1.1079,1.2465,1.2771,1.0747,1.1306,1.1784,1.1775,1.072,1.0335,1.0846,1.0656,1.0588,1.0656,0.9926,0.9568,0.0,0.0,0.0,0.0,0.0,0.0,0.0,0.0,0.0,0.0,0.0,0.0,0.0,0.0,0.0,0.0,0.0,0.0,0.0,0.0,0.0,0.0,1.5194,1.649,1.7317,1.765,1.8124,1.8938,1.9305,1.9501,1.9569,1.9657,1.9712,1.9712,1.9657,1.961,1.961,1.9413,1.9325,1.94,1.9325,1.9325,1.94,1.9481,1.9522,1.9522,1.9556,1.9522,1.9434,1.9271,1.9128,1.8993,1.8905,1.8728,1.8511,1.8375,1.8233,1.8077,0.0,0.0,0.0,0.0,1.767,1.7399,1.7222,1.7087,1.6965,1.6876,1.6842,1.6829,1.6741,1.6625,1.6503,1.6422,1.6259,1.6042,1.5723,1.5594,1.5432,1.4984,1.4808,1.4679,1.4468,1.436,1.4299,1.4299,1.4299,0.0,1.4299,1.341,1.2626,1.2515,1.2373,1.2154,1.202,1.281,1.2929,1.1469,1.2599,1.284,1.1175,1.1203,0.0,0.0,0.0,0.9854,1.0476,1.0453,0.0,0.0,0.0,0.938,0.9436,0.8443,0.0,0.0,0.807,0.7146,0.0,0.0,0.0,0.0,0.0,0.0,0.0,0.0,0.0,0.0,0.0,0.0,0.0,0.0,0.0,0.0,1.6374,1.7616,1.8864,1.9061,1.9183,1.9447,1.9746,1.9976,2.0119,2.0139,2.0153,2.0153,2.001,1.9922,1.9908,1.9624,0.0,0.0,0.0,1.9522,1.9664,1.9664,1.9664,1.9624,1.9522,1.9434,1.9379,1.9257,1.9115,1.8972,1.8972,1.8796,1.8498,1.8375,1.8213,1.8057,1.7901,1.7846,1.786,1.7826,1.765,1.7419,1.7399,0.0,0.0,1.6978,1.6978,1.6978,1.6978,1.6775,1.6544,1.6524,1.6212,1.5845,1.5683,1.5527,1.5296,1.4848,1.474,1.4658,1.4367,1.4299,1.4299,1.4299,1.4299,1.4299,1.4299,1.2487,1.1036,1.0813,1.06,1.0399,1.0265,1.1987,1.3078,1.2675,1.3083,0.0,1.2635,1.1016,1.0427,1.1509,0.9509,0.8945,1.0307,1.0371,0.9672,0.8228,0.8272,0.8453,0.8635,0.8736,0.9643,1.113,0.7817,0.7009,0.0,0.0,0.0,0.0,0.0,0.0,0.0,0.0,0.0,0.0,0.0,0.0,0.0,0.0,0.0,1.613,1.7473,1.864,1.9257,1.9556,1.9732,1.9786,2.0051,2.0261,2.0275,2.0383,2.0451,2.0451,2.0329,2.0187,2.0064,1.9888,1.9752,1.9664,1.9624,1.9624,1.9664,1.9664,1.959,1.9481,1.9569,0.0,1.9081,1.9169,1.9061,1.8816,1.8816,1.864,1.8355,1.8335,1.8158,1.7901,1.7758,1.7758,1.7826,1.7595,1.7473,1.7405,1.7283,1.7121,1.6978,1.6978,1.6978,1.6978,1.6978,1.6849,0.0,1.6558,1.6286,1.5974,1.571,1.5527,1.5296,1.4848,1.474,1.4658,1.4367,1.4299,1.4299,1.4299,1.4299,1.4299,1.4299,1.3892,1.353,1.3355,1.3303,1.3193,1.2939,1.3268,1.2759,1.077,1.2395,1.2694,1.0412,1.1367,1.1996,1.1595,1.0846,1.0496,1.0759,1.0928,1.0894,1.0563,1.0589,1.0675,1.0819,1.0727,1.0991,1.1525,1.0689,1.0435,0.0,0.0,0.0,0.0,0.0,0.0,0.0,0.0,0.0,0.0,0.0,1.7316,1.4677,0.0,1.6395,1.7372,1.8409,1.9257,1.9698,1.9963,2.0064,1.9997,2.0187,2.0363,2.0438,2.0505,2.0539,2.0539,2.0417,2.0261,2.0098,1.9963,1.98,1.9664,1.9664,1.9664,1.9664,1.9664,1.9624,1.9556,1.9535,1.9434,1.9203,1.9203,1.9081,1.8871,1.8796,1.864,1.8409,1.8267,1.8077,1.7846,1.7704,1.7738,1.7826,1.7616,1.7487,1.7399,1.7243,1.71,1.6978,1.6978,1.6978,1.6965,1.689,1.6754,1.6605,1.6456,1.6151,1.5825,1.5676,1.5418,1.5113,1.4814,1.4679,1.4563,1.4346,1.4299,1.4299,1.4299,1.4299,1.4299,1.4299,1.4299,1.4272,1.4197,1.4183,1.4075,1.3777,1.3736,1.3192,1.1818,1.2752,1.2916,1.1432,1.2018,1.2237,1.1864,1.1491,1.1287,1.1287,1.1355,1.1389,1.1389,1.1463,1.1497,1.1504,1.1579,1.1653,1.1728,1.1803,1.1755,0.0,0.0,0.0,0.0,0.0,0.0,0.0,2.3729,2.2793,1.8903,1.8631,1.8394,1.6208,1.6456,1.7372,1.8511,1.9183,1.9698,2.0085,2.0261,2.0275,2.0119,2.0261,2.0417,2.0526,2.0539,2.0539,2.0539,2.0438,2.0309,2.0153,2.0031,1.9888,1.9712,1.9698,1.9698,1.9664,1.9664,1.9644,1.961,1.9522,1.9434,1.9345,1.9237,1.9094,1.8884,1.8708,1.8565,1.8423,1.8158,1.7968,1.7846,1.7704,1.7717,1.7812,1.765,1.7507,1.7358,1.7236,1.71,1.6978,1.6978,1.6978,1.6951,1.6795,1.6646,1.649,1.6347,1.5988,1.5642,1.5642,1.5309,1.493,1.478,1.4624,1.4475,1.4333,1.4299,1.4299,1.4299,1.4299,1.4299,1.4299,1.4299,1.4292,1.4258,1.4258,1.4156,1.3878,1.3817,1.3709,1.3471,1.3417,1.3295,1.3024,1.2501,1.2189,1.2189,1.1911,1.1748,1.1748,1.1748,1.1735,1.1708,1.185,1.1864,1.1748,1.1959,1.2026,1.1965,1.2189,1.2155,2.2245,2.092,2.0405,2.2736,2.3199,2.4044,0.0,2.8876,2.7788,2.4362,2.3869,2.2636,1.8066,1.8023,1.885,1.9257,1.9712,2.0085,2.0275,2.0315,2.0275,2.0119,2.0349,2.0526,2.0539,2.0539,2.0539,2.0539,2.0526,2.0451,2.0309,2.0295,2.0153,1.9854,1.9854,1.9786,1.9664,1.9664,1.959,1.9468,1.9576,1.9434,1.904,1.9149,1.8972,1.8565,1.8287,1.8165,1.8124,1.7948,1.788,1.7846,1.7704,1.7554,1.765,1.75,1.7351,1.7216,1.7195,1.71,1.6978,1.6978,1.6978,1.6951,1.6795,1.6646,1.649,1.6347,1.5988,1.5642,1.5642,1.5309,1.493,1.478,1.4624,1.4475,1.4333,1.4299,1.4299,1.4299,1.4299,1.4299,1.4299,1.4299,1.4251,1.4116,1.4095,1.4034,1.3865,1.3729,1.3641,1.3607,1.3485,1.3336,1.3166,1.2847,1.2657,1.2657,1.2379,1.2216,1.2216,1.2216,1.2149,1.2013,1.2162,1.223,1.2216,1.2115,1.2189,1.2427,1.2332,1.2271,2.4249,2.2708,2.1995,2.5688,2.5982,2.6315,3.0109,3.1236,3.0242,2.5666,2.673,2.6251,1.9308,2.0108,2.1375,1.9983,2.0051,2.0275,2.0438,2.0383,2.0241,1.9997,2.0153,2.0315,2.0417,2.0485,2.0539,2.0539,2.0539,2.0471,2.0329,2.0329,2.0227,2.001,2.001,1.9976,1.9922,1.9841,1.9752,1.9678,1.9569,1.9434,1.9237,1.9128,1.883,1.8389,1.8179,1.8036,1.7948,1.7901,1.7812,1.7717,1.7575,1.746,1.7372,1.7311,1.7249,1.7182,1.71,1.7032,1.6978,1.6978,1.6978,1.6937,1.6693,1.6571,1.6476,1.6239,1.5913,1.5642,1.5642,1.5309,1.493,1.478,1.4692,1.4604,1.4455,1.4421,1.4421,1.4421,1.4353,1.4299,1.4299,1.4299,1.4278,1.4211,1.4204,1.415,1.3994,1.3926,1.3851,1.3763,1.3539,1.341,1.3437,1.3085,1.2901,1.2983,1.2793,1.2678,1.2678,1.2678,1.2651,1.2589,1.2651,1.2589,1.2413,1.244,1.2427,1.2379,1.2406,1.2413,2.513,2.434,2.4043,2.8023,2.8615,2.8955,3.167,3.2222,3.091,2.6494,2.7164,2.6733,2.0926,2.1307,2.2281,2.1414,2.0728,2.0417,2.0526,2.0349,2.0085,1.9786,1.9786,1.9854,2.001,2.0295,2.0505,2.0539,2.0539,2.0485,2.0397,2.0383,2.0315,2.0173,2.0173,2.0119,2.0031,1.9929,1.9854,1.982,1.9556,1.9413,1.9359,1.9027,1.8674,1.8321,1.8158,1.8002,1.786,1.7826,1.7738,1.7629,1.7433,1.729,1.7188,1.7148,1.7134,1.7121,1.7019,1.6978,1.6978,1.6978,1.6951,1.687,1.6605,1.6497,1.6408,1.6151,1.5866,1.5642,1.5642,1.5309,1.4943,1.4828,1.4767,1.4713,1.4597,1.4577,1.4563,1.4523,1.4428,1.4346,1.4306,1.4299,1.4299,1.4299,1.4299,1.4258,1.415,1.4095,1.4014,1.3858,1.3648,1.3566,1.3682,1.3356,1.3193,1.3295,1.3125,1.3097,1.3097,1.3097,1.3003,1.2963,1.3003,1.2888,1.263,1.2698,1.2623,1.2413,1.2474,1.2522,2.3861,2.4663,2.5641,2.8292,3.045,3.2235,3.3547,3.184,2.9477,2.7372,2.467,2.2795,2.3313,2.1315,2.0586,2.3804,2.2094,2.0539,2.0539,2.0173,1.9786,1.9481,1.9203,1.9081,1.9217,1.9908,2.0397,2.0526,2.0539,2.0539,2.0539,2.0539,2.0471,2.0329,2.0329,2.0173,1.9888,1.9875,1.98,1.9664,1.9501,1.9359,1.9203,1.8742,1.8464,1.8321,1.8158,1.8002,1.7846,1.7717,1.765,1.7616,1.7317,1.7195,1.7175,1.7039,1.6985,1.6985,1.6985,1.6978,1.6978,1.6978,1.6876,1.6727,1.6571,1.6429,1.6286,1.6123,1.5866,1.5642,1.5642,1.5309,1.497,1.4964,1.4848,1.474,1.4733,1.4733,1.4692,1.4536,1.4509,1.4462,1.4326,1.4299,1.4299,1.4299,1.4299,1.4299,1.4292,1.4163,1.4014,1.3858,1.3831,1.3831,1.3745,1.3695,1.3614,1.3614,1.3336,1.3166,1.3166,1.3166,1.3105,1.2963,1.3098,1.3091,1.2949,1.28,1.2725,1.2712,1.2569,1.2583,2.6012,2.7388,2.8871,3.133,3.2759,3.3881,3.507,3.4647,3.2681,2.8049,2.763,2.6089,2.0054,1.9939,2.0639,2.0426,2.0007,1.9854,2.0451,2.0329,1.9963,1.9345,1.9291,1.9183,1.8938,1.9413,1.9922,2.0363,2.0397,2.0438,2.0539,2.0539,2.0526,2.0471,2.0471,2.0383,2.0173,2.0085,1.9942,1.98,1.9447,1.9203,1.904,1.8599,1.8375,1.8301,1.8057,1.786,1.7717,1.767,1.7528,1.7338,1.7236,1.7134,1.7046,1.6998,1.6978,1.6978,1.6978,1.6978,1.6965,1.6863,1.6795,1.6707,1.6456,1.6347,1.6279,1.6123,1.5934,1.5757,1.5662,1.5452,1.5215,1.5018,1.5004,1.5004,1.4916,1.4896,1.4848,1.4692,1.4584,1.4468,1.4326,1.4299,1.4299,1.4299,1.4299,1.4299,1.4299,1.4251,1.4204,1.415,1.4055,1.3994,1.3994,1.377,1.3668,1.3763,1.3587,1.3519,1.3614,1.3526,1.3451,1.3403,1.3349,1.3247,1.3105,1.3051,1.2976,1.2881,1.2827,1.2834,2.7869,2.9499,3.0996,3.3561,3.4496,3.5017,3.5872,3.521,3.2899,2.7568,2.6802,2.5132,1.8849,1.8512,1.9151,1.9297,1.8931,1.9027,2.0085,1.9963,1.9644,1.9325,1.9183,1.9061,1.8938,1.9183,1.961,2.0207,2.0349,2.0451,2.0539,2.0539,2.0539,2.0539,2.0539,2.0471,2.0329,2.0173,1.9942,1.9624,1.9345,1.9081,1.8816,1.8531,1.8335,1.8233,1.8036,1.7826,1.765,1.7589,1.7419,1.7188,1.7134,1.706,1.6978,1.6978,1.6978,1.6978,1.6978,1.6978,1.6965,1.6863,1.6795,1.6714,1.6524,1.6395,1.6286,1.6191,1.6015,1.5832,1.5737,1.5567,1.5377,1.5242,1.5235,1.5242,1.5147,1.5126,1.5065,1.4862,1.4699,1.455,1.4401,1.4333,1.4299,1.4299,1.4299,1.4299,1.4299,1.4299,1.4299,1.4299,1.4211,1.415,1.415,1.3926,1.3824,1.3919,1.3783,1.3743,1.3838,1.3702,1.3627,1.3627,1.3478,1.3349,1.3254,1.32,1.3125,1.3037,1.2983,1.307,2.9352,3.0996,3.2158,3.499,3.5672,3.5725,3.6006,3.3563,3.0069,2.6009,2.2571,1.9984,1.9314,1.7072,1.6583,2.0435,1.9243,1.8264,1.9522,1.9223,1.9006,1.9413,1.8952,1.8776,1.9169,1.9237,1.9481,2.0064,2.0363,2.0526,2.0539,2.0539,2.0539,2.0539,2.0539,2.0471,2.0315,2.0153,1.9786,1.9217,1.9203,1.8972,1.8545,1.8531,1.8355,1.8091,1.8091,1.7914,1.7629,1.748,1.7324,1.7168,1.7032,1.6978,1.6978,1.6978,1.6978,1.6978,1.6978,1.6978,1.6978,1.6971,1.687,1.6748,1.6741,1.6544,1.632,1.6313,1.6103,1.5872,1.5859,1.5642,1.5466,1.5608,1.5527,1.5425,1.5425,1.5418,1.5323,1.5038,1.4841,1.4679,1.4536,1.4394,1.4299,1.4299,1.4299,1.4299,1.4299,1.4299,1.4299,1.4299,1.4299,1.4299,1.4299,1.4156,1.4075,1.4082,1.3939,1.3858,1.3865,1.3729,1.3648,1.3641,1.3492,1.341,1.3403,1.3254,1.3186,1.3193,1.3051,1.3057,3.2024,3.3895,3.5124,3.6313,3.6273,3.5979,3.6059,3.2938,2.9031,2.5442,2.1309,1.7547,1.4677,1.5771,1.7073,1.7054,1.9363,2.0926,2.0361,2.0187,2.001,1.9786,1.9732,1.961,1.9393,1.9678,1.9942,2.0085,2.0173,2.0315,2.0526,2.0539,2.0539,2.0539,2.0539,2.0417,2.0153,1.9908,1.9644,1.9379,1.9257,1.9027,1.8694,1.8477,1.8267,1.8091,1.7968,1.7758,1.7473,1.7439,1.727,1.7032,1.6992,1.6978,1.6978,1.6978,1.6978,1.6978,1.6978,1.6978,1.6965,1.6842,1.6781,1.6727,1.6612,1.6524,1.6442,1.6341,1.6252,1.6144,1.5913,1.5798,1.5723,1.5655,1.5608,1.5581,1.5581,1.5493,1.5357,1.5167,1.4828,1.4557,1.4516,1.4394,1.4299,1.4299,1.4299,1.4299,1.4299,1.4299,1.4299,1.4299,1.4299,1.4299,1.4299,1.4156,1.4122,1.4238,1.4095,1.4061,1.4177,1.4041,1.3905,1.379,1.3648,1.3512,1.3403,1.3363,1.3403,1.3512,1.3356,1.337,3.4162,3.5912,3.6941,3.7408,3.7088,3.634,3.5177,3.2057,2.8067,2.3195,1.9382,1.6139,1.3512,1.4258,1.551,1.6547,1.8553,1.9998,2.0162,2.0098,2.0098,2.0241,2.0227,2.0153,2.0031,2.1609,2.2042,2.0619,2.0363,2.0363,2.0526,2.0539,2.0539,2.0539,2.0539,2.0397,2.0098,1.9875,1.961,1.9325,1.9183,1.8918,1.8565,1.8321,1.8145,1.7989,1.7901,1.7684,1.7419,1.7419,1.7249,1.6978,1.6978,1.6978,1.6978,1.6978,1.6978,1.6978,1.6978,1.6978,1.6965,1.6876,1.6849,1.6836,1.6748,1.6673,1.6592,1.6442,1.6361,1.6252,1.6015,1.5906,1.5852,1.5839,1.5778,1.5737,1.5737,1.5662,1.552,1.5235,1.4977,1.474,1.4543,1.4448,1.4373,1.4306,1.4299,1.4299,1.4299,1.4299,1.4299,1.4299,1.4299,1.4299,1.4299,1.4224,1.4211,1.4292,1.4217,1.4211,1.4299,1.415,1.4034,1.3946,1.3797,1.3682,1.3593,1.3532,1.3546,1.3627,1.3471,1.3444,3.5899,3.7342,3.8036,3.8263,3.7823,3.662,3.3935,3.0754,2.6686,2.0364,1.7095,1.5083,1.4223,1.3255,1.3908,1.8141,1.8371,1.8539,2.0176,2.0237,2.0345,2.0796,2.056,2.0526,2.077,2.3982,2.4661,2.1212,2.11,2.1068,2.058,2.056,2.0539,2.0539,2.0505,2.0363,2.0098,1.9929,1.9624,1.9203,1.9081,1.8776,1.8321,1.8179,1.8023,1.786,1.786,1.7704,1.7446,1.7433,1.7256,1.7005,1.6985,1.6978,1.6978,1.6978,1.6978,1.6978,1.6978,1.6978,1.6978,1.6978,1.6978,1.6978,1.6978,1.689,1.6748,1.6571,1.6449,1.6327,1.613,1.5995,1.5947,1.6083,1.6008,1.592,1.594,1.5913,1.5757,1.533,1.5208,1.5059,1.4665,1.455,1.4468,1.4346,1.4312,1.4299,1.4299,1.4299,1.4299,1.4299,1.4299,1.4299,1.4299,1.4299,1.4299,1.4299,1.4299,1.4299,1.4299,1.417,1.4095,1.4075,1.3939,1.3865,1.3838,1.3715,1.3654,1.3654,1.3519,1.3451,3.7342,3.8437,3.8865,3.8691,3.7809,3.6259,3.336,2.8667,2.3667,1.9515,1.5271,1.2696,1.3965,1.4629,1.6843,2.2195,2.375,2.4257,2.4129,2.4105,2.3293,2.1093,2.0845,2.0912,2.0946,2.4264,2.4741,2.1075,2.3409,2.3761,2.0851,2.0614,2.0539,2.0539,2.0309,2.0153,2.0098,1.9841,1.9535,1.9203,1.9183,1.8864,1.8321,1.8287,1.8124,1.786,1.786,1.7772,1.7602,1.7473,1.7317,1.7148,1.7026,1.6978,1.6978,1.6978,1.6978,1.6978,1.6978,1.6978,1.6978,1.6978,1.6978,1.6978,1.6978,1.6965,1.6883,1.6598,1.6592,1.6585,1.6185,1.6157,1.6239,1.6266,1.6252,1.6259,1.6381,1.6212,1.5947,1.5622,1.5357,1.516,1.5079,1.476,1.4502,1.4475,1.4373,1.4299,1.4299,1.4299,1.4299,1.4299,1.4299,1.4299,1.4299,1.4299,1.4299,1.4299,1.4299,1.4299,1.4299,1.4272,1.4204,1.4075,1.4048,1.3966,1.3838,1.3817,1.3804,1.3718,1.3777,1.3702,3.7275,3.8571,3.9479,3.8865,3.7702,3.5618,3.145,2.6715,2.1897,1.7087,1.3473,1.1617,1.3109,1.3385,1.4809,1.9202,2.1058,2.1865,2.1503,2.2647,2.3512,2.3683,2.3685,2.3746,2.3922,2.7018,2.6794,2.1404,2.4149,2.4389,2.0782,2.0573,2.0505,2.0438,2.0227,2.0064,1.9976,1.9698,1.9434,1.9203,1.8972,1.8674,1.8321,1.8158,1.8002,1.786,1.786,1.7772,1.765,1.7568,1.7405,1.7182,1.7121,1.7046,1.6978,1.6978,1.6978,1.6978,1.6978,1.6978,1.6978,1.6978,1.6978,1.6978,1.6978,1.6978,1.6931,1.6707,1.6693,1.668,1.6388,1.6368,1.6422,1.6422,1.6422,1.6435,1.651,1.6408,1.6225,1.5927,1.575,1.5554,1.5235,1.5004,1.4808,1.4652,1.457,1.4529,1.4529,1.4529,1.4468,1.4319,1.4299,1.4299,1.4299,1.4299,1.4299,1.4299,1.4299,1.4299,1.4299,1.4299,1.4265,1.419,1.419,1.4156,1.4082,1.4,1.396,1.396,1.3878,1.3804,3.7128,3.8691,3.992,3.9052,3.7555,3.4963,2.978,2.5514,2.1093,1.5481,1.2567,1.1513,1.2929,1.1909,1.2241,1.6529,1.7801,1.8398,1.898,2.1549,2.3885,2.4998,2.645,2.6906,2.5526,2.9162,2.8627,2.1645,2.3411,2.3548,2.0673,2.0539,2.0485,2.0383,2.0187,2.0031,1.9875,1.9569,1.9345,1.9149,1.8762,1.8498,1.8301,1.8036,1.7901,1.786,1.786,1.7792,1.7684,1.7663,1.7487,1.7236,1.7202,1.7107,1.6978,1.6978,1.6978,1.6978,1.6978,1.6978,1.6978,1.6978,1.6978,1.6978,1.6978,1.6978,1.6951,1.6795,1.6775,1.6754,1.6571,1.6544,1.6571,1.6571,1.6598,1.6612,1.6578,1.6571,1.6483,1.6185,1.6103,1.592,1.5411,1.5276,1.514,1.4875,1.4808,1.478,1.4746,1.474,1.4652,1.4421,1.4367,1.4346,1.4346,1.4319,1.4299,1.4299,1.4299,1.4299,1.4299,1.4299,1.4299,1.4299,1.4299,1.4299,1.4299,1.4177,1.4102,1.4068,1.398,1.3905,3.8036,3.9493,4.0214,3.9346,3.7408,3.4456,2.9686,2.5777,2.18,1.6753,1.388,1.2879,1.4875,1.2124,1.2083,1.9844,1.9193,1.879,2.1555,2.5462,2.6303,2.1888,2.717,2.8645,2.226,2.7657,2.8635,2.1339,2.091,2.0807,2.0539,2.0539,2.0539,2.0526,2.0241,2.0031,1.9875,1.9569,1.9291,1.9006,1.883,1.8586,1.8321,1.8145,1.7989,1.786,1.786,1.786,1.7826,1.7704,1.7548,1.7385,1.7249,1.7107,1.6978,1.6978,1.6978,1.6978,1.6978,1.6978,1.6978,1.6978,1.6978,1.6978,1.6978,1.6978,1.6951,1.6795,1.6849,1.689,1.6598,1.6625,1.6727,1.6727,1.6836,1.6897,1.6761,1.6727,1.6639,1.6347,1.6178,1.6022,1.5825,1.5567,1.5337,1.5167,1.5031,1.4896,1.476,1.474,1.4726,1.4706,1.4577,1.4489,1.4489,1.4373,1.4299,1.4299,1.4299,1.4299,1.4299,1.4299,1.4299,1.4299,1.4299,1.4299,1.4299,1.4285,1.4204,1.4075,1.4197,1.4109,3.6179,3.8504,4.0227,3.9159,3.6981,3.3814,2.8911,2.5197,2.1372,1.6496,1.3832,1.2725,1.3799,1.1425,1.074,1.5108,1.5617,1.6389,1.9081,2.2526,2.4854,2.519,2.8076,2.849,2.4747,2.6768,2.6185,2.1024,2.0573,2.0539,2.0539,2.0539,2.0451,2.0275,2.0153,1.9976,1.9752,1.9447,1.9237,1.9115,1.8776,1.8511,1.8321,1.8158,1.8002,1.786,1.786,1.786,1.786,1.7806,1.7629,1.7412,1.7351,1.7188,1.6978,1.6978,1.6978,1.6978,1.6978,1.6978,1.6978,1.6978,1.6978,1.6978,1.6978,1.6978,1.6971,1.6904,1.6931,1.6951,1.6829,1.6842,1.689,1.689,1.6937,1.6965,1.6904,1.689,1.6829,1.6619,1.6449,1.6273,1.6035,1.5818,1.5628,1.5479,1.5411,1.5316,1.516,1.5147,1.5106,1.5018,1.4706,1.4509,1.4509,1.438,1.4299,1.4299,1.4299,1.4299,1.4299,1.4299,1.4299,1.4299,1.4299,1.4299,1.4299,1.4299,1.4272,1.4211,1.4272,1.4238,3.4055,3.6874,3.9132,3.8504,3.6072,3.2666,2.8163,2.4356,2.0645,1.6646,1.3961,1.2616,1.3456,1.1181,0.981,1.1706,1.254,1.376,1.5961,1.9373,2.2373,2.44,2.7163,2.7911,2.5863,2.5871,2.4429,2.08,2.0539,2.0539,2.0539,2.0505,2.0383,2.0173,2.0119,1.9963,1.9664,1.9359,1.9183,1.9128,1.8728,1.8464,1.8321,1.8158,1.8002,1.786,1.786,1.786,1.786,1.786,1.7684,1.7419,1.7419,1.7243,1.6978,1.6978,1.6978,1.6978,1.6978,1.6978,1.6978,1.6978,1.6978,1.6978,1.6978,1.6978,1.6978,1.6978,1.6978,1.6978,1.6978,1.6978,1.6978,1.6978,1.6978,1.6978,1.6978,1.6978,1.6937,1.6781,1.6659,1.6497,1.6198,1.6062,1.592,1.573,1.5703,1.5649,1.5499,1.5479,1.5418,1.5269,1.4923,1.4692,1.4652,1.4475,1.436,1.436,1.4326,1.4299,1.4299,1.4299,1.4299,1.4299,1.4299,1.4299,1.4299,1.4299,1.4299,1.4299,1.4299,1.4299,3.2131,3.4736,3.6687,3.7235,3.4523,3.0849,2.7575,2.342,1.9666,1.7582,1.463,1.2926,1.4677,1.1828,0.981,1.1714,1.1203,1.1248,1.3132,1.7351,1.9381,1.6923,2.3542,2.7132,2.4077,2.4801,2.4173,2.0786,2.0539,2.0539,2.0539,2.0397,2.0329,2.0329,2.0173,1.9963,1.9664,1.9359,1.9128,1.8993,1.8674,1.8464,1.8321,1.8158,1.8002,1.786,1.786,1.786,1.786,1.786,1.7684,1.7419,1.7419,1.7243,1.6978,1.6978,1.6978,1.6978,1.6978,1.6978,1.6978,1.6978,1.6978,1.6978,1.6978,1.6978,1.6978,1.6978,1.6978,1.6978,1.6978,1.6978,1.6978,1.6978,1.6978,1.6978,1.6978,1.6978,1.6937,1.6781,1.6748,1.6653,1.6361,1.6307,1.6198,1.59,1.5852,1.5798,1.5655,1.5635,1.5581,1.5425,1.5269,1.512,1.4977,1.4685,1.4509,1.4509,1.438,1.4299,1.4299,1.4299,1.4299,1.4299,1.4299,1.4299,1.4299,1.4299,1.4299,1.4299,1.4299,1.4299,2.7473,2.9209,3.0466,3.1445,3.0007,2.7669,2.5037,2.2418,1.9947,1.7876,1.4937,1.3572,1.6533,1.2621,1.0074,1.3473,1.1949,1.1514,1.4692,1.7434,2.0064,2.2715,2.5351,2.5745,2.2279,2.2226,2.1832,2.083,2.0594,2.0539,2.0539,2.0397,2.0275,2.0173,2.0031,1.98,1.9501,1.9305,1.9128,1.8993,1.8782,1.8565,1.8321,1.8267,1.8111,1.786,1.786,1.786,1.786,1.786,1.7684,1.7419,1.7419,1.7243,1.6978,1.6978,1.6978,1.6978,1.6978,1.6978,1.6978,1.6978,1.6978,1.6978,1.6978,1.6978,1.6978,1.6978,1.6978,1.6978,1.6978,1.6978,1.6978,1.6978,1.6978,1.6978,1.6978,1.6978,1.6965,1.6917,1.6822,1.672,1.6625,1.6524,1.6388,1.6191,1.6164,1.6069,1.5818,1.5784,1.573,1.5581,1.552,1.535,1.5004,1.4787,1.4624,1.4516,1.4468,1.4401,1.4306,1.4299,1.4299,1.4299,1.4299,1.4299,1.4299,1.4299,1.4299,1.4299,1.4299,1.4299,2.3851,2.5751,2.6897,2.8228,2.7175,2.5331,2.342,2.1363,1.9426,1.7889,1.5486,1.4481,1.7342,1.3426,1.1045,1.4731,1.242,1.1344,1.4658,1.6057,1.8166,2.2184,2.5399,2.5494,2.0867,2.3002,2.3521,2.0816,2.0594,2.0526,2.0471,2.0329,2.0153,1.9942,1.9841,1.9678,1.9434,1.9217,1.9047,1.8905,1.8742,1.8511,1.8233,1.8233,1.8091,1.786,1.786,1.786,0.0,1.7812,1.7629,1.7412,1.7358,1.7188,1.6978,1.6978,1.6978,1.6978,1.6978,1.6978,1.6978,1.6978,1.6978,1.6978,1.6978,1.6978,1.6978,1.6978,1.6978,1.6978,1.6978,1.6978,1.6978,1.6978,1.6978,1.6978,1.6978,1.6978,1.6978,1.6978,1.6904,1.6822,1.6761,1.6673,1.6537,1.6341,1.6307,1.6218,1.5967,1.594,1.5879,1.5737,1.5716,1.5588,1.5248,1.5031,1.4841,1.4692,1.4577,1.4475,1.438,1.4326,1.4299,1.4299,1.4299,1.4299,1.4299,1.4299,1.4299,1.4299,1.4299,1.4299,0.0,2.3617,2.5152,2.6694,2.5411,2.35,2.2392,2.0241,0.0,1.7702,1.6246,1.5572,1.7345,1.4287,1.2468,1.5569,1.2749,1.1041,1.3282,1.4151,1.53,1.7301,2.4393,2.6568,2.0017,2.5975,2.7488,2.1047,2.0526,2.0471,2.0329,2.0153,1.9942,1.9664,1.9624,1.9522,1.9379,1.9115,1.8884,1.8728,1.8586,1.8375,1.8091,1.8091,1.8002,1.786,1.786,1.786,1.7846,1.7704,1.7555,1.7392,1.7249,1.7107,1.6978,1.6978,1.6978,1.6978,1.6978,1.6978,1.6978,1.6978,1.6978,1.6978,1.6978,1.6978,1.6978,1.6978,1.6978,1.6978,1.6978,1.6978,1.6978,1.6978,1.6978,1.6978,1.6978,1.6978,1.6978,1.6978,1.6978,1.6937,1.6788,1.6768,1.6666,1.6381,1.6334,1.6273,1.6117,1.609,1.6029,1.5886,1.5866,1.5811,1.5669,1.5371,1.514,1.4997,1.4706,1.4536,1.4529,1.4394,1.4319,1.4319,1.4306,1.4299,1.4299,1.4299,1.4299,1.4299,1.4299,1.4299,1.8288,0.0,1.8263,2.0187,2.0241,1.976,0.0,1.8931,1.8317,1.7702,1.6396,1.597,1.8187,1.5589,1.4116,1.7111,1.4636,1.2746,1.388,1.9636,2.3422,2.2473,2.725,2.8798,2.4121,2.3409,2.2478,2.0673,2.0438,2.0315,2.0173,1.9908,1.9732,1.9664,1.9223,1.8959,1.8918,1.885,1.8694,1.8423,1.8389,1.8267,1.8091,1.8091,1.8002,1.786,1.786,1.7806,1.7704,1.7663,1.7487,1.7243,1.7209,1.7107,1.6978,1.6978,1.6978,1.6978,1.6978,1.6978,1.6978,1.6978,1.6978,1.6978,1.6978,1.6978,1.6978,1.6978,1.6978,1.6978,1.6978,1.6978,1.6978,1.6978,1.6978,1.6978,1.6978,1.6978,1.6978,1.6978,1.6978,1.6971,1.6931,1.6924,1.6863,1.6673,1.6544,1.6422,1.6273,1.6151,1.6069,1.6035,1.6029,1.5967,1.5818,1.5527,1.5296,1.514,1.4964,1.4808,1.4692,1.4543,1.4462,1.4462,1.4353,1.4299,1.4299,1.4299,1.4299,1.4299,1.4299,1.4299,1.7021,1.6959,1.7309,1.8585,1.8891,1.8824,1.8557,1.8277,1.7943,1.7527,1.6794,1.6734,1.839,1.6634,1.5784,1.8447,1.5844,1.3792,1.4616,1.9148,2.2903,2.4027,2.6702,2.7719,2.5542,2.3992,2.2441,2.0584,2.0363,2.0227,2.001,1.9786,1.9576,1.9359,1.8972,1.8762,1.8762,1.862,1.8443,1.8213,1.8213,1.8111,1.7894,1.7894,1.7806,1.767,1.7738,1.7684,1.7541,1.7541,1.7405,1.7182,1.7121,1.7046,1.6978,1.6978,1.6978,1.6978,1.6978,1.6978,1.6978,1.6978,1.6978,1.6978,1.6978,1.6978,1.6978,1.6978,1.6978,1.6978,1.6978,1.6978,1.6978,1.6978,1.6978,1.6978,1.6978,1.6978,1.6978,1.6978,1.6978,1.6978,1.6978,1.6978,1.6931,1.6775,1.668,1.6551,1.6334,1.6239,1.6157,1.609,1.6083,1.6049,1.5967,1.5744,1.552,1.5303,1.5086,1.4936,1.4848,1.4699,1.4584,1.4516,1.4373,1.4299,1.4299,1.4299,1.4299,1.4299,1.4299,1.4299,1.7021,1.7996,1.9065,1.9092,1.9158,1.9078,1.849,1.7956,1.7515,1.7313,1.73,1.7622,1.8691,1.7608,1.7455,2.0235,1.7548,1.5384,1.6314,1.7426,1.98,2.4541,2.5286,2.5361,2.5517,2.5339,2.3842,2.0567,2.0261,2.0098,1.982,1.9624,1.9345,1.8972,1.8762,1.8654,1.8654,1.8409,1.8213,1.8057,1.8036,1.7894,1.765,1.7623,1.7541,1.7426,1.7555,1.7528,1.7385,1.7385,1.7297,1.7148,1.7026,1.6978,1.6978,1.6978,1.6978,1.6978,1.6978,1.6978,1.6978,1.6978,1.6978,1.6978,1.6978,1.6978,1.6978,1.6978,1.6978,1.6978,1.6978,1.6978,1.6978,1.6978,1.6978,1.6978,1.6978,1.6978,1.6978,1.6978,1.6978,1.6978,1.6978,1.6978,1.6937,1.6802,1.6768,1.6659,1.6408,1.6341,1.6259,1.613,1.6096,1.6083,1.6083,1.594,1.5744,1.5493,1.5221,1.5052,1.5004,1.4855,1.4706,1.455,1.4407,1.4333,1.4333,1.4312,1.4299,1.4299,1.4299,1.4299,1.809,1.8931,1.9372,1.8156,1.825,1.8464,1.7862,1.7649,1.7569,1.7528,1.7729,1.8477,2.0361,1.91,1.9294,2.3911,2.195,2.0187,2.088,2.1678,2.3664,2.7845,2.6611,2.5231,2.4773,2.2536,2.0944,2.0153,1.9908,1.9678,1.9501,1.9115,1.8871,1.8796,1.8409,1.8199,1.8199,1.8145,1.8057,1.7901,1.7772,1.7684,1.765,1.7514,1.7446,1.7419,1.7446,1.7365,1.7229,1.7229,1.7141,1.7012,1.6992,1.6978,1.6978,1.6978,1.6978,1.6978,1.6978,1.6978,1.6978,1.6978,1.6978,1.6978,1.6978,1.6978,1.6978,1.6978,1.6978,1.6978,1.6978,1.6978,1.6978,1.6978,1.6978,1.6978,1.6978,1.6978,1.6978,1.6978,1.6978,1.6978,1.6978,1.6978,1.6971,1.6951,1.6836,1.6734,1.6686,1.6463,1.63,1.6279,1.6157,1.6083,1.6083,1.594,1.5832,1.5791,1.5628,1.5418,1.516,1.5011,1.4862,1.4706,1.4557,1.4482,1.4475,1.436,1.4299,1.4299,1.4299,1.4299,1.7782,1.841,1.9078,1.9025,1.9466,1.9706,1.8958,1.8664,1.8544,1.8544,1.8531,1.8743,1.9582,2.0362,2.1522,2.3472,2.1752,2.0213,2.0069,2.0444,2.2284,2.6345,2.4212,2.313,2.488,2.2146,2.0207,1.9888,1.9732,1.9522,1.9203,1.8918,1.8694,1.8531,1.8247,1.8057,1.7968,1.7894,1.7806,1.7738,1.7684,1.7561,1.7399,1.7331,1.7256,1.7188,1.7263,1.7216,1.7087,1.7161,1.7107,1.6978,1.6978,1.6978,1.6978,1.6978,1.6978,1.6978,1.6978,1.6978,1.6978,1.6978,1.6978,1.6978,1.6978,1.6978,1.6978,1.6978,1.6978,1.6978,1.6978,1.6978,1.6978,1.6978,1.6978,1.6978,1.6978,1.6978,1.6978,1.6978,1.6978,1.6978,1.6978,1.6978,1.6978,1.6978,1.6917,1.6842,1.6761,1.6632,1.6483,1.6327,1.6246,1.6171,1.609,1.6015,1.5906,1.575,1.5594,1.5493,1.5432,1.5133,1.4977,1.4977,1.4753,1.4631,1.4631,1.4489,1.4414,1.4414,1.4333,1.4299,1.7514,1.8009,1.8824,1.9786,2.0468,2.0895,2.0842,2.0548,2.0374,2.0717,2.0521,2.0218,1.9704,2.2264,2.3872,2.2017,2.156,2.1069,1.9954,1.9351,2.061,2.457,2.2074,2.1057,2.3885,2.1742,2.0064,1.9698,1.9556,1.9345,1.8959,1.8728,1.8498,1.8267,1.8124,1.7968,1.7812,1.7704,1.765,1.765,1.7575,1.7419,1.7188,1.7154,1.708,1.6985,1.7093,1.708,1.6992,1.71,1.708,1.6978,1.6978,1.6978,1.6978,1.6978,1.6978,1.6978,1.6978,1.6978,1.6978,1.6978,1.6978,1.6978,1.6978,1.6978,1.6978,1.6978,1.6978,1.6978,1.6978,1.6978,1.6978,1.6978,1.6978,1.6978,1.6978,1.6978,1.6978,1.6978,1.6978,1.6978,1.6978,1.6978,1.6978,1.6978,1.6978,1.6937,1.6822,1.6775,1.6653,1.6388,1.6361,1.63,1.6151,1.6137,1.6022,1.5757,1.5567,1.5533,1.5683,1.533,1.5181,1.5289,1.4997,1.4841,1.4841,1.4658,1.455,1.4509,1.4401,1.4333,1.817,1.8637,1.8985,1.9345,1.9867,2.0922,2.334,2.3447,2.3354,2.4449,2.4649,2.4321,2.3102,2.5707,2.6216,2.0694,2.3789,2.6158,2.4435,2.1734,2.1348,2.5056,2.2353,2.0421,2.0574,2.0195,1.9841,1.9678,1.9271,1.8959,1.8782,1.8375,1.8124,1.8111,1.7948,1.7812,1.7663,1.765,1.765,1.765,1.7358,1.7216,1.7188,1.706,1.6992,1.6978,1.6992,1.6992,1.6978,1.6992,1.6992,1.6978,1.6978,1.6978,1.6978,1.6978,1.6978,1.6978,1.6978,1.6978,1.6978,1.6978,1.6978,1.6978,1.6978,1.6978,1.6978,1.6978,1.6978,1.6978,1.6978,1.6978,1.6978,1.6978,1.6978,1.6978,1.6978,1.6978,1.6978,1.6978,1.6978,1.6978,1.6978,1.6978,1.6978,1.6978,1.6978,1.6978,1.6965,1.6836,1.6686,1.6524,1.6503,1.6449,1.6307,1.6293,1.6225,1.6062,1.5778,1.5689,1.5832,1.5676,1.5594,1.5608,1.5309,1.5153,1.5153,1.4862,1.4652,1.4509,1.4502,1.4428,1.7782,1.8811,2.0027,2.1243,2.171,2.2178,2.3367,2.4596,2.5732,2.6547,2.6707,2.6877,2.726,2.5279,2.3552,2.3564,2.277,2.2017,2.1744,2.0742,2.0561,2.2109,2.0928,2.0051,2.0051,1.9766,1.9501,1.9257,1.8993,1.8708,1.8355,1.8179,1.8002,1.7826,1.7758,1.765,1.7507,1.7412,1.7365,1.7365,1.7249,1.7148,1.706,1.7005,1.6978,1.6978,1.6978,1.6978,1.6978,1.6978,1.6978,1.6978,1.6978,1.6978,1.6978,1.6978,1.6978,1.6978,1.6978,1.6978,1.6978,1.6978,1.6978,1.6978,1.6978,1.6978,1.6978,1.6978,1.6978,1.6978,1.6978,1.6978,1.6978,1.6978,1.6978,1.6978,1.6978,1.6978,1.6978,1.6978,1.6978,1.6978,1.6978,1.6978,1.6978,1.6978,1.6978,1.6978,1.6978,1.6931,1.6836,1.668,1.6578,1.6503,1.6442,1.6442,1.6381,1.6232,1.594,1.5839,1.5988,1.5764,1.5683,1.5771,1.5574,1.5418,1.5323,1.512,1.4943,1.4794,1.4597,1.4482,1.7166,1.8397,2.0013,2.1416,2.2672,2.3781,2.4636,2.5932,2.7362,2.8791,2.8539,2.8549,3.0013,2.6554,2.3878,2.5136,2.3397,2.1395,1.9969,1.9841,1.9942,2.0153,1.9963,1.9786,1.9732,1.9468,1.9183,1.8938,1.8694,1.8409,1.8111,1.7948,1.7806,1.765,1.7602,1.75,1.7351,1.7243,1.7168,1.7127,1.7127,1.7073,1.6978,1.6978,1.6978,1.6978,1.6978,1.6978,1.6978,1.6978,1.6978,1.6978,1.6978,1.6978,1.6978,1.6978,1.6978,1.6978,1.6978,1.6978,1.6978,1.6978,1.6978,1.6978,1.6978,1.6978,1.6978,1.6978,1.6978,1.6978,1.6978,1.6978,1.6978,1.6978,1.6978,1.6978,1.6978,1.6978,1.6978,1.6978,1.6978,1.6978,1.6978,1.6978,1.6978,1.6978,1.6978,1.6978,1.6978,1.6978,1.6937,1.6836,1.6686,1.6592,1.6592,1.6592,1.653,1.6388,1.6137,1.6022,1.6083,1.5886,1.5825,1.5927,1.5737,1.5588,1.5486,1.5282,1.5113,1.4964,1.4753,1.4631,1.6348,1.7395,1.8677,1.9279,2.2271,2.5625,2.7765,2.7792,2.8203,3.1436,3.0446,2.9396,3.0925,3.0436,2.8483,2.4691,2.6226,2.5983,2.043,1.9786,1.9875,1.9875,1.9752,1.959,1.9447,1.9169,1.8918,1.8762,1.8342,1.8091,1.8091,1.767,1.7487,1.7629,1.75,1.7344,1.7195,1.7188,1.7121,1.6978,1.6978,1.6978,1.6978,1.6978,1.6978,1.6978,1.6978,1.6978,1.6978,1.6978,1.6978,1.6978,1.6978,1.6978,1.6978,1.6978,1.6978,1.6978,1.6978,1.6978,1.6978,1.6978,1.6978,1.6978,1.6978,1.6978,1.6978,1.6978,1.6978,1.6978,1.6978,1.6978,1.6978,1.6978,1.6978,1.6978,1.6978,1.6978,1.6978,1.6978,1.6978,1.6978,1.6978,1.6978,1.6978,1.6978,1.6978,1.6978,1.6978,1.6978,1.6978,1.6978,1.6842,1.6754,1.6754,1.6754,1.6686,1.653,1.6388,1.6246,1.609,1.6083,1.6083,1.6083,1.5791,1.5642,1.5642,1.5337,1.5113,1.497,1.497,1.4889,1.8397,1.9973,2.1857,2.3086,2.4556,2.6293,2.8564,2.9112,2.9633,3.1423,3.2091,3.2455,3.2488,3.1064,2.8915,2.5968,2.4836,2.3172,1.9867,1.9379,1.9447,1.9556,1.9237,1.9061,1.9115,1.8762,1.8498,1.8464,1.8124,1.788,1.7792,1.7548,1.7392,1.7331,1.7283,1.7188,1.7046,1.7046,1.7026,1.6978,1.6978,1.6978,1.6978,1.6978,1.6978,1.6978,1.6863,1.6822,1.6822,1.6822,1.6822,1.6829,1.6937,1.6978,1.6978,1.6978,1.6978,1.6978,1.6978,1.6978,1.6978,1.6978,1.6978,1.6978,1.6978,1.6978,1.6978,1.6978,1.6978,1.6978,1.6978,1.6978,1.6978,1.6978,1.6978,1.6978,1.6978,1.6978,1.6978,1.6978,1.6978,1.6978,1.6978,1.6978,1.6978,1.6978,1.6978,1.6978,1.6978,1.6978,1.6978,1.6978,1.6937,1.691,1.691,1.691,1.6842,1.6693,1.6639,1.6503,1.6252,1.6137,1.6083,1.6083,1.5886,1.5744,1.5642,1.5438,1.5269,1.512,1.5018,1.4943,1.8611,2.0548,2.2873,2.4356,2.5972,2.7709,2.9713,3.0675,3.1436,3.2505,3.3534,3.4162,3.3908,3.1788,2.9187,2.6566,2.4201,2.1864,1.9228,1.8938,1.8972,1.9061,1.883,1.8654,1.864,1.8335,1.8111,1.8057,1.7772,1.7582,1.7561,1.7358,1.7229,1.7195,1.7141,1.7066,1.6978,1.6917,1.689,1.689,1.6829,1.6802,1.6802,1.6863,1.6856,1.6795,1.67,1.6659,1.6659,1.6659,1.6693,1.6754,1.6788,1.687,1.6971,1.691,1.6931,1.6978,1.6978,1.6978,1.6978,1.6978,1.6978,1.6978,1.6978,1.6978,1.6978,1.6978,1.6978,1.6978,1.6978,1.6978,1.6978,1.6978,1.6978,1.6978,1.6978,1.6978,1.6978,1.6978,1.6978,1.6978,1.6978,1.6978,1.6978,1.6978,1.6978,1.6978,1.6978,1.6978,1.6978,1.6978,1.6978,1.6978,1.6978,1.6978,1.6944,1.6849,1.6727,1.6578,1.6402,1.6252,1.6144,1.6083,1.5934,1.5811,1.5723,1.5574,1.5452,1.5357,1.5215,1.5147,1.7929,1.996,2.2445,2.4209,2.7028,2.9726,3.1142,3.2291,3.3267,3.3975,3.4482,3.487,3.507,3.2361,2.9244,2.6684,2.4083,2.147,1.8879,1.8477,1.8477,1.8477,1.8477,1.8355,1.8077,1.7914,1.7772,1.7629,1.7358,1.7256,1.7392,1.7134,1.7032,1.7148,1.7026,1.6951,1.6937,1.6802,1.6727,1.6727,1.6585,1.6517,1.651,1.6659,1.6646,1.6503,1.6503,1.6497,1.6483,1.6497,1.6585,1.67,1.6571,1.6693,1.6924,1.6781,1.6829,1.6958,1.6958,1.6971,1.6978,1.6978,1.6978,1.6978,1.6978,1.6978,1.6978,1.6978,1.6978,1.6978,1.6978,1.6978,1.6978,1.6978,1.6978,1.6978,1.6978,1.6978,1.6978,1.6978,1.6978,1.6978,1.6978,1.6978,1.6978,1.6978,1.6978,1.6978,1.6978,1.6978,1.6978,1.6978,1.6978,1.6978,1.6978,1.6978,1.6978,1.6978,1.672,1.6551,1.6524,1.6374,1.6225,1.6083,1.5934,1.5852,1.5852,1.571,1.5642,1.5635,1.5499,1.5425,2.0213,2.167,2.3233,2.7054,2.9913,3.2064,3.308,3.3507,3.348,3.2732,3.3921,3.4977,3.4576,3.2411,2.9747,2.694,2.4083,2.1307,1.8441,1.8111,1.8145,1.8023,1.8002,1.7935,1.7758,1.7609,1.75,1.7473,1.7297,1.7209,1.7243,1.7073,1.6937,1.6849,1.6815,1.6741,1.6619,1.6585,1.6571,1.6571,1.6537,1.6463,1.6361,1.6503,1.649,1.6354,1.6354,1.6286,1.6185,1.6307,1.6374,1.6415,1.649,1.6564,1.6619,1.6585,1.6666,1.6802,1.6802,1.6876,1.6978,1.6978,1.6978,1.6978,1.6978,1.6978,1.6978,1.6978,1.6978,1.6978,1.6978,1.6978,1.6978,1.6978,1.6978,1.6978,1.6978,1.6978,1.6978,1.6978,1.6978,1.6978,1.6978,1.6978,1.6978,1.6978,1.6978,1.6978,1.6978,1.6978,1.6978,1.6978,1.6978,1.6978,1.6978,1.6978,1.6978,1.6978,1.6917,1.6775,1.653,1.6273,1.6117,1.6083,1.5934,1.5852,1.5852,1.571,1.5642,1.5642,1.5608,1.5527,1.9449,2.1645,2.4369,2.8951,3.133,3.2786,3.3681,3.3881,3.3748,3.3267,3.4028,3.4254,3.2684,3.0189,2.8014,2.6419,2.2686,1.9372,1.7861,1.7717,1.7738,1.767,1.765,1.7595,1.7446,1.7358,1.7283,1.7216,1.7134,1.7093,1.7093,1.6951,1.6836,1.6754,1.6612,1.6497,1.6422,1.6273,1.6198,1.6198,1.613,1.6096,1.6096,1.6246,1.6273,1.6198,1.6198,1.6157,1.609,1.6171,1.6246,1.6307,1.6313,1.6395,1.651,1.6442,1.6517,1.6653,1.6727,1.6802,1.6883,1.6958,1.6978,1.6978,1.6978,1.6978,1.6978,1.6978,1.6978,1.6978,1.6978,1.6978,1.6978,1.6978,1.6978,1.6978,1.6978,1.6978,1.6978,1.6978,1.6978,1.6978,1.6978,1.6978,1.6978,1.6978,1.6978,1.6978,1.6978,1.6978,1.6978,1.6978,1.6978,1.6978,1.6978,1.6978,1.6978,1.6978,1.691,1.6795,1.6639,1.6347,1.6157,1.6083,1.6001,1.5961,1.5961,1.5886,1.5852,1.5852,1.5778,1.5662,1.7649,2.1365,2.5825,3.0087,3.1891,3.2812,3.3561,3.3774,3.3766,3.3481,3.3934,3.3575,3.1353,2.8181,2.6062,2.6546,2.1389,1.7465,1.7946,1.7666,1.7365,1.7311,1.7351,1.7324,1.7168,1.7134,1.7066,1.6951,1.6917,1.6904,1.6904,1.6754,1.6659,1.6632,1.6374,1.6218,1.6198,1.594,1.5818,1.5811,1.5696,1.5703,1.5818,1.5947,1.6035,1.6083,1.6083,1.6083,1.6083,1.6083,1.6157,1.6259,1.613,1.6232,1.6429,1.6313,1.6361,1.651,1.6659,1.6727,1.6775,1.6931,1.6978,1.6978,1.6978,1.6978,1.6978,1.6978,1.6978,1.6978,1.6978,1.6978,1.6978,1.6978,1.6978,1.6978,1.6978,1.6978,1.6978,1.6978,1.6978,1.6978,1.6978,1.6978,1.6978,1.6978,1.6978,1.6978,1.6978,1.6978,1.6978,1.6978,1.6978,1.6978,1.6978,1.6978,1.6978,1.6978,1.6863,1.6781,1.6754,1.649,1.6273,1.6123,1.6096,1.6083,1.6083,1.6083,1.6083,1.6076,1.5954,1.5818,1.7102,2.2568,2.7816,3.0247,3.1891,3.2959,3.3066,3.3293,3.2764,3.0441,3.229,3.4219,3.3794,2.9446,2.664,2.8952,2.245,1.7967,2.0158,1.8618,1.7127,1.687,1.7066,1.7168,1.7026,1.689,1.6802,1.6781,1.6659,1.6585,1.6585,1.6449,1.6307,1.6178,1.6001,1.5852,1.573,1.5689,1.5669,1.5669,1.5649,1.5649,1.5669,1.5689,1.5839,1.6083,1.6083,1.6083,1.6083,1.6083,1.6096,1.611,1.609,1.6103,1.6137,1.6117,1.6205,1.6361,1.6503,1.6639,1.6775,1.6931,1.6978,1.6978,1.6978,1.6978,1.6978,1.6978,1.6978,1.6978,1.6978,1.6978,1.6978,1.6978,1.6978,1.6978,1.6978,1.6978,1.6978,1.6978,1.6978,1.6978,1.6978,1.6978,1.6978,1.6978,1.6978,1.6978,1.6978,1.6978,1.6978,1.6978,1.6978,1.6978,1.6978,1.6978,1.6978,1.6978,1.6958,1.689,1.6754,1.6585,1.6429,1.6279,1.6151,1.6083,1.6083,1.6083,1.6083,1.6083,1.6062,1.5967,1.842,2.2915,2.6774,2.9005,3.0795,3.2078,3.2412,3.2719,3.2623,3.141,3.2324,3.296,3.1567,2.9104,2.7232,2.6829,2.244,1.8816,1.8458,1.7547,1.6768,1.6639,1.6734,1.6788,1.6727,1.6659,1.6619,1.6619,1.6483,1.6402,1.6402,1.6185,1.5988,1.5839,1.5683,1.5493,1.5269,1.5262,1.5262,1.5269,1.5343,1.5432,1.5513,1.5513,1.5628,1.5832,1.5832,1.5879,1.5954,1.5954,1.6001,1.6083,1.6083,1.6083,1.6083,1.6083,1.6123,1.6205,1.6354,1.6497,1.6646,1.6802,1.691,1.6978,1.6978,1.6978,1.6978,1.6978,1.6978,1.6978,1.6978,1.6978,1.6978,1.6978,1.6978,1.6978,1.6978,1.6978,1.6978,1.6978,1.6978,1.6978,1.6978,1.6978,1.6978,1.6978,1.6978,1.6978,1.6978,1.6978,1.6978,1.6978,1.6978,1.6978,1.6978,1.6978,1.6978,1.6978,1.6978,1.6951,1.6883,1.6734,1.6578,1.6429,1.6198,1.6083,1.6083,1.6083,1.6083,1.6083,1.6083,1.6001,1.8693,2.1899,2.4489,2.7161,2.9032,3.0474,3.1436,3.1944,3.2225,3.2305,3.2265,3.1658,2.9702,2.8819,2.7934,2.6639,2.351,2.0467,1.849,1.7754,1.7083,1.6407,1.6368,1.6408,1.6408,1.6374,1.6354,1.6354,1.6218,1.6123,1.6083,1.5825,1.5615,1.5472,1.5323,1.5133,1.4916,1.495,1.497,1.497,1.5113,1.5242,1.535,1.535,1.5411,1.5527,1.5608,1.5703,1.5805,1.5839,1.592,1.6029,1.6069,1.6083,1.6083,1.6083,1.6083,1.6103,1.6259,1.6402,1.6544,1.67,1.6856,1.6978,1.6978,1.6978,1.6978,1.6978,1.6978,1.6978,1.6978,1.6978,1.6978,1.6978,1.6978,1.6978,1.6978,1.6978,1.6978,1.6978,1.6978,1.6978,1.6978,1.6978,1.6978,1.6978,1.6978,1.6978,1.6978,1.6978,1.6978,1.6978,1.6978,1.6978,1.6978,1.6978,1.6978,1.6978,1.6978,1.6978,1.6978,1.6829,1.6693,1.6578,1.6327,1.6178,1.6137,1.6103,1.6103,1.6137,1.6096,1.6001,1.6372,1.883,2.1323,2.481,2.6573,2.7989,2.9993,3.0889,3.137,3.1664,3.149,3.1116,3.077,2.9239,2.8861,3.1333,2.6976,2.3178,2.3059,2.1047,1.8627,1.6008,1.5934,1.6103,1.6103,1.5974,1.5886,1.5886,1.5757,1.5608,1.5466,1.5303,1.5153,1.5011,1.4855,1.4767,1.4753,1.4896,1.497,1.497,1.5113,1.5187,1.5194,1.5194,1.5201,1.5221,1.5513,1.5642,1.5662,1.5798,1.5859,1.5879,1.6029,1.6083,1.6083,1.6083,1.6083,1.6103,1.6259,1.6402,1.6544,1.67,1.6856,1.6978,1.6978,1.6978,1.6978,1.6978,1.6978,1.6978,1.6978,1.6978,1.6978,1.6978,1.6978,1.6978,1.6978,1.6978,1.6978,1.6978,1.6978,1.6978,1.6978,1.6978,1.6978,1.6978,1.6978,1.6978,1.6978,1.6978,1.6978,1.6978,1.6978,1.6978,1.6978,1.6978,1.6978,1.6978,1.6978,1.6978,1.6978,1.6829,1.6748,1.6734,1.6578,1.6429,1.63,1.6151,1.6157,1.6293,1.6151,1.6001,1.5425,1.7862,2.016,2.2178,2.4008,2.5545,2.648,2.8016,2.9272,2.9467,2.9927,3.0354,3.0247,2.9886,2.9204,2.8353,2.6445,2.4463,2.2818,2.0597,1.8761,1.7695,1.6385,1.5506,1.5506,1.5452,1.6121,1.7834,1.6277,1.5967,1.7585,1.5853,1.4828,1.4679,1.4719,1.4692,1.459,1.4746,1.4821,1.4828,1.5065,1.5181,1.5181,1.5181,1.5181,1.5187,1.5296,1.5404,1.5499,1.5547,1.5683,1.5859,1.5913,1.5995,1.6083,1.6083,1.6083,1.609,1.6144,1.6259,1.6408,1.6558,1.6707,1.6849,1.6951,1.6978,1.6978,1.6978,1.6978,1.6978,1.6978,1.6978,1.6978,1.6978,1.6978,1.6978,1.6978,1.6978,1.6978,1.6978,1.6978,1.6978,1.6978,1.6978,1.6978,1.6978,1.6978,1.6978,1.6978,1.6978,1.6978,1.6978,1.6978,1.6978,1.6978,1.6978,1.6978,1.6978,1.6978,1.6978,1.6978,1.6931,1.6849,1.6754,1.6693,1.6592,1.6442,1.63,1.6252,1.6307,1.6151,1.6049,1.4839,1.6883,1.8824,2.0307,2.1483,2.2619,2.3901,2.5638,2.7081,2.7468,2.8577,2.9472,2.9472,2.9633,2.9217,2.7464,2.7108,2.5846,2.2413,2.0746,1.9485,1.8609,1.6465,1.531,1.6131,1.5489,1.5717,1.7483,1.5917,1.5639,1.7317,1.5672,1.459,1.4441,1.4536,1.4543,1.4441,1.459,1.4665,1.4665,1.497,1.5113,1.5113,1.516,1.5181,1.5181,1.5181,1.5242,1.5337,1.5391,1.556,1.5784,1.5832,1.5947,1.6083,1.6083,1.6083,1.6083,1.6083,1.6185,1.6334,1.6476,1.6625,1.6781,1.6937,1.6978,1.6978,1.6978,1.6978,1.6978,1.6978,1.6978,1.6978,1.6978,1.6978,1.6978,1.6978,1.6978,1.6978,1.6978,1.6978,1.6978,1.6978,1.6978,1.6978,1.6978,1.6978,1.6978,1.6978,1.6978,1.6978,1.6978,1.6978,1.6978,1.6978,1.6978,1.6978,1.6978,1.6978,1.6978,1.6978,1.6978,1.6931,1.6829,1.6829,1.6775,1.6673,1.6429,1.6334,1.6374,1.6178,1.6056,0.0,0.0,0.0,1.9212,1.9078,1.9292,2.2472,2.3875,2.4775,2.6001,2.7399,2.8412,2.8465,2.8478,2.8665,2.9325,2.9104,2.7221,2.2452,2.1825,2.082,1.8317,1.6062,1.5622,1.7862,1.6159,1.4908,1.4908,1.4817,1.4749,1.4695,1.4599,1.4441,1.4306,1.4299,1.4299,1.4299,1.4441,1.4516,1.4523,1.4828,1.497,1.4984,1.512,1.5181,1.5174,1.5174,1.5174,1.5187,1.5343,1.5493,1.5649,1.5791,1.594,1.6076,1.6083,1.6083,1.6083,1.6083,1.6178,1.6327,1.6469,1.6619,1.6768,1.6931,1.6978,1.6978,1.6978,1.6978,1.6978,1.6978,1.6978,1.6978,1.6978,1.6978,1.6978,1.6978,1.6978,1.6978,1.6978,1.6978,1.6978,1.6978,1.6978,1.6978,1.6978,1.6978,1.6978,1.6978,1.6978,1.6978,1.6978,1.6978,1.6978,1.6978,1.6978,1.6978,1.6978,1.6978,1.6978,1.6978,1.6978,1.6978,1.6978,1.6978,1.6978,1.6978,1.6537,1.6388,1.6517,1.6218,1.6001,1.3677,0.0,0.0,0.0,0.0,0.0,1.9786,2.0815,2.1673,2.2571,2.3101,2.38,2.5041,2.5249,2.5812,2.7592,2.6783,2.5395,2.4023,2.1025,1.8681,1.7936,1.7362,1.6518,1.5476,1.7836,1.9457,1.978,1.7992,1.7781,1.9618,1.6341,1.434,1.4299,1.4299,1.4299,1.4299,1.4441,1.457,1.4679,1.4875,1.5025,1.5126,1.5167,1.5126,1.5031,1.5031,1.5031,1.5038,1.5187,1.5337,1.5486,1.5642,1.5784,1.5934,1.6042,1.6083,1.6083,1.6083,1.611,1.6171,1.632,1.6469,1.6612,1.6768,1.689,1.6978,1.6978,1.6978,1.6978,1.6978,1.6978,1.6978,1.6978,1.6978,1.6978,1.6978,1.6978,1.6978,1.6978,1.6978,1.6978,1.6978,1.6978,1.6978,1.6978,1.6978,1.6978,1.6978,1.6978,1.6978,1.6978,1.6978,1.6978,1.6978,1.6978,1.6978,1.6978,1.6978,1.6978,1.6978,1.6978,1.6978,1.6978,1.6978,1.6978,1.6978,1.6632,1.6483,1.6517,1.6218,1.6001,1.4238,1.5615,1.6904,1.7344,0.0,0.0,1.7363,1.8328,1.9337,2.0031,2.0653,2.1611,2.3265,2.3265,2.3619,2.5551,2.4356,2.3458,2.4196,2.1204,1.898,1.898,1.813,1.7025,1.5655,1.8035,1.9241,1.8584,1.7175,1.7032,1.8532,1.583,1.4299,1.4299,1.4299,1.4299,1.4299,1.438,1.4468,1.4557,1.4706,1.4855,1.4997,1.5065,1.5052,1.497,1.497,1.497,1.4977,1.5059,1.5221,1.5425,1.5581,1.5723,1.5872,1.6029,1.6083,1.6083,1.6083,1.6083,1.6103,1.6259,1.6402,1.6551,1.6707,1.6856,1.6978,1.6978,1.6978,1.6978,1.6978,1.6978,1.6978,1.6978,1.6978,1.6978,1.6978,1.6978,1.6978,1.6978,1.6978,1.6978,1.6978,1.6978,1.6978,1.6978,1.6978,1.6978,1.6978,1.6978,1.6978,1.6978,1.6978,1.6978,1.6978,1.6978,1.6978,1.6978,1.6978,1.6978,1.6978,1.6978,1.6978,1.6978,1.6978,1.6917,1.6788,1.6612,1.6456,1.6334,1.6164,1.6035,1.5443,1.6148,1.6484,1.8013,1.7275,0.0,1.5594,1.6558,1.7657,1.8034,1.9122,2.0503,2.195,2.1621,2.1608,2.3166,2.2296,2.1872,2.3201,2.168,2.044,2.0189,1.8773,1.778,1.7628,1.8116,1.745,1.4988,1.471,1.4543,1.4299,1.4299,1.4299,1.4299,1.4299,1.4299,1.4299,1.4299,1.4306,1.4326,1.4448,1.459,1.4746,1.4882,1.4936,1.4923,1.4923,1.493,1.4943,1.4943,1.512,1.5404,1.5574,1.5716,1.5852,1.6022,1.6083,1.6083,1.6083,1.6083,1.6103,1.6239,1.6381,1.6524,1.668,1.6829,1.6958,1.6978,1.6978,1.6978,1.6978,1.6978,1.6978,1.6978,1.6978,1.6978,1.6978,1.6978,1.6978,1.6978,1.6978,1.6978,1.6978,1.6978,1.6978,1.6978,1.6978,1.6978,1.6978,1.6978,1.6978,1.6978,1.6978,1.6978,1.6978,1.6978,1.6978,1.6978,1.6978,1.6978,1.6978,1.6978,1.6978,1.6978,1.6978,1.6836,1.6544,1.653,1.6368,1.6083,1.6083,1.609,1.5954,1.7506,1.8538,1.7929,1.8036,0.0,1.6484,1.6719,1.6927,1.5782,1.5751,1.6426,1.7898,1.8179,1.8807,2.0595,2.2002,2.2337,2.0873,2.0272,1.9464,1.782,2.0291,2.152,1.9874,2.3109,2.3642,1.9615,1.7776,1.615,1.438,1.4299,1.4299,1.4299,1.4299,1.4299,1.4299,1.4299,1.436,1.4468,1.4496,1.459,1.474,1.4774,1.4719,1.4604,1.4604,1.4672,1.4787,1.4787,1.4957,1.5255,1.5533,1.5655,1.5716,1.5981,1.6083,1.6083,1.6083,1.6083,1.609,1.6117,1.6225,1.6381,1.6524,1.6673,1.6822,1.6944,1.6978,1.6978,1.6978,1.6978,1.6978,1.6978,1.6978,1.6978,1.6978,1.6978,1.6978,1.6978,1.6978,1.6978,1.6978,1.6978,1.6978,1.6978,1.6978,1.6978,1.6978,1.6978,1.6978,1.6978,1.6978,1.6978,1.6978,1.6978,1.6978,1.6978,1.6978,1.6978,1.6978,1.6978,1.6978,1.6978,1.6978,1.689,1.6707,1.6578,1.6368,1.6083,1.6083,1.6151,1.6191,1.7365,1.8065,1.8589,1.8464,0.0,0.0,1.6531,1.6497,1.5569,1.5229,1.5442,1.6631,1.6496,1.6738,1.843,1.9693,1.9979,1.8567,1.8967,1.9055,1.7915,1.9809,2.0718,1.9554,2.2763,2.3191,1.8959,1.6905,1.5307,1.4271,1.4258,1.4299,1.4299,1.4299,1.4299,1.4299,1.4299,1.4333,1.4407,1.4407,1.4482,1.4624,1.4624,1.4584,1.4509,1.4509,1.4557,1.4631,1.4706,1.4875,1.5113,1.5493,1.5642,1.5676,1.5974,1.6083,1.6083,1.6083,1.6083,1.6083,1.6083,1.6185,1.6327,1.6395,1.6571,1.6781,1.6937,1.6978,1.6978,1.6978,1.6978,1.6978,1.6978,1.6978,1.6978,1.6978,1.6978,1.6978,1.6978,1.6978,1.6978,1.6978,1.6978,1.6978,1.6978,1.6978,1.6978,1.6978,1.6978,1.6978,1.6978,1.6978,1.6978,1.6978,1.6978,1.6978,1.6978,1.6978,1.6978,1.6978,1.6978,1.6978,1.6978,1.6978,1.6904,1.6748,1.6673,1.6517,1.63,1.63,1.6307,1.6846,1.7387,1.7434,1.9253,1.8985,1.7937,0.0,0.0,0.0,1.5765,1.553,1.5685,1.6339,1.5645,1.5357,1.6429,1.7139,1.718,1.6149,1.7441,1.8425,1.83,1.8749,1.917,1.9371,2.111,2.077,1.7472,1.5471,1.4486,1.4578,1.4419,1.4258,1.4258,1.4285,1.4299,1.4299,1.4299,1.4299,1.4299,1.4299,1.436,1.4468,1.4468,1.4468,1.4468,1.4468,1.4489,1.4523,1.4645,1.4808,1.5018,1.5466,1.5642,1.5676,1.5974,1.6083,1.6083,1.6083,1.6083,1.6083,1.6083,1.6185,1.6307,1.6307,1.6517,1.6775,1.6904,1.6958,1.6978,1.6978,1.6978,1.6978,1.6978,1.6978,1.6978,1.6978,1.6978,1.6978,1.6978,1.6978,1.6978,1.6978,1.6978,1.6978,1.6978,1.6978,1.6978,1.6978,1.6978,1.6978,1.6978,1.6978,1.6978,1.6978,1.6978,1.6978,1.6978,1.6978,1.6978,1.6978,1.6978,1.6978,1.6978,1.6978,1.6917,1.6795,1.6795,1.67,1.6524,1.6524,1.6476,1.9025,1.9585,1.8987,1.9358,2.0067,1.9863,1.6677,0.0,1.7212,1.5076,0.0,1.5725,1.5578,0.0,0.0,1.4496,1.604,1.6266,1.3464,1.4988,1.6635,1.7274,1.8557,2.019,2.2199,2.1595,2.0469,1.9064,1.6712,1.5674,1.6384,1.4958,1.4095,1.4095,1.4231,1.4299,1.4299,1.4299,1.4299,1.4299,1.4299,1.4306,1.4326,1.4326,1.4326,1.4326,1.4326,1.4394,1.4516,1.4529,1.4713,1.5018,1.5466,1.5642,1.5676,1.5974,1.6083,1.6083,1.6083,1.6083,1.6083,1.6083,1.6185,1.6307,1.6307,1.6517,1.6651,1.6768,1.6876,1.6978,1.6978,1.6978,1.6978,1.6978,1.6978,1.6978,1.6978,1.6978,1.6978,1.6978,1.6978,1.6978,1.6978,1.6978,1.6978,1.6978,1.6978,1.6978,1.6978,1.6978,1.6978,1.6978,1.6978,1.6978,1.6978,1.6978,1.6978,1.6978,1.6978,1.6978,1.6978,1.6978,1.6978,1.6978,1.6978,1.6971,1.6951,1.6951,1.6809,1.6524,1.6524,1.6585,1.7564,1.9824,2.1187,1.9573,2.04,2.1036,1.8667,1.8072,1.7714,1.6751,0.0,0.0,0.0,0.0,0.0,0.0,1.5177,1.5114,1.3691,1.4158,1.498,1.5943,1.6922,1.8655,2.1592,1.971,1.8407,1.8655,1.7106,1.5818,1.5085,1.5459,1.5209,1.3939,1.4089,1.417,1.417,1.417,1.4211,1.4299,1.569,1.5601,1.4387,1.569,1.5601,1.4299,1.4299,1.4333,1.4401,1.457,1.4719,1.4882,1.533,1.556,1.5662,1.5872,1.6008,1.6083,1.6083,1.6083,1.6083,1.6083,1.6123,1.6191,1.6286,1.6456,1.6632,1.6727,1.6863,1.6978,1.6978,1.6978,1.6978,1.6978,1.6978,1.6978,1.6978,1.6978,1.6978,1.6978,1.6978,1.6978,1.6978,1.6978,1.6978,1.6978,1.6978,1.6978,1.6978,1.6978,1.6978,1.6978,1.6978,1.6978,1.6978,1.6978,1.6978,1.6978,1.6978,1.6978,1.6978,1.6978,1.6978,1.6978,1.6978,1.6978,1.6978,1.6978,1.6917,1.6788,1.6788,1.6775,1.7745,2.0341,2.2502,2.0017,2.0607,2.155,2.0321,1.9319,1.8528,1.8275,1.7836,0.0,0.0,0.0,1.5698,1.5223,0.0,1.4549,1.3935,1.3801,1.4025,1.4788,1.5725,1.7001,1.8941,1.7801,1.698,1.7137,1.6654,1.5908,1.4945,1.5615,1.5617,1.4691,1.427,1.4027,1.4075,1.4075,1.415,1.4299,1.6034,1.5946,1.4387,1.6034,1.5946,1.4299,1.4299,1.4326,1.4373,1.459,1.4726,1.4835,1.516,1.5404,1.5594,1.5744,1.5866,1.5967,1.6008,1.6049,1.6083,1.6083,1.6083,1.611,1.6266,1.6408,1.6551,1.6707,1.6863,1.6978,1.6978,1.6978,1.6978,1.6978,1.6978,1.6978,1.6978,1.6978,1.6978,1.6978,1.6978,1.6978,1.6978,1.6978,1.6978,1.6978,1.6978,1.6978,1.6978,1.6978,1.6978,1.6978,1.6978,1.6978,1.6978,1.6978,1.6978,1.6978,1.6978,1.6978,1.6978,1.6978,1.6978,1.6978,1.6978,1.6978,1.6978,1.6978,1.6978,1.6978,1.6978,1.6917,2.1512,2.2095,2.2277,2.0673,2.0959,2.1467,2.0788,2.0401,1.992,1.9065,1.9105,1.9105,1.8531,1.7742,1.6764,1.5565,1.5378,0.0,0.0,1.3721,1.4108,1.4117,1.5631,1.6024,1.4316,1.6471,1.6937,1.4427,1.5149,1.628,1.7539,1.5244,1.4793,1.6734,1.4861,1.3919,1.4068,1.4075,1.415,1.4299,1.4387,1.4387,1.4299,1.4387,1.4387,1.4299,1.4299,1.438,1.4509,1.4516,1.4692,1.4964,1.4977,1.516,1.5438,1.5588,1.5649,1.5676,1.5811,1.5954,1.6083,1.6083,1.6083,1.611,1.6266,1.6408,1.6551,1.6707,1.6863,1.6978,1.6978,1.6978,1.6978,1.6978,1.6978,1.6978,1.6978,1.6978,1.6978,1.6978,1.6978,1.6978,1.6978,1.6978,1.6978,1.6978,1.6978,1.6978,1.6978,1.6978,1.6978,1.6978,1.6978,1.6978,1.6978,1.6978,1.6978,1.6978,1.6978,1.6978,1.6978,1.6978,1.6978,1.6978,1.6978,1.6978,1.6978,1.6978,1.6978,1.6978,1.6978,1.6978,2.2441,2.484,2.6932,2.3273,2.3554,2.4195,2.2031,2.1015,2.0334,1.9653,1.9426,1.9243,1.8597,1.7809,1.6871,1.5845,1.5524,1.495,0.0,1.3626,1.3935,1.4322,1.4736,1.5042,1.5164,1.5139,1.4803,1.4134,1.4537,1.4429,1.3672,1.4113,1.4346,1.4356,1.393,1.3729,1.3777,1.5391,1.5534,1.4237,1.7364,1.7247,1.4387,1.5946,1.577,1.4299,1.4299,1.4326,1.4387,1.4584,1.4726,1.4835,1.5031,1.5174,1.5276,1.5432,1.5554,1.5662,1.5805,1.5954,1.6083,1.6083,1.6083,1.611,1.6266,1.6408,1.6551,1.6707,1.6863,1.6978,1.6978,1.6978,1.6978,1.6978,1.6978,1.6978,1.6978,1.6978,1.6978,1.6978,1.6978,1.6978,1.6978,1.6978,1.6978,1.6978,1.6978,1.6978,1.6978,1.6978,1.6978,1.6978,1.6978,1.6978,1.6978,1.6978,1.6978,1.6978,1.6978,1.6978,1.6978,1.6978,1.6978,1.6978,1.6978,1.6978,1.6978,1.6978,1.6978,1.6978,1.6978,1.6978,2.4452,2.6807,2.9126,2.5276,2.5464,2.6012,2.4008,2.3113,2.2458,2.155,2.1056,2.0588,2.0,1.8731,1.7448,1.646,1.5872,1.5137,0.0,1.376,1.3893,1.4322,1.4202,1.4376,1.5137,1.4362,1.3591,1.3108,1.3369,1.3183,1.2467,1.314,1.3665,1.4087,1.3664,1.3519,1.3627,1.5193,1.5786,1.5357,1.7679,1.7597,1.5601,1.629,1.569,1.4299,1.4299,1.4326,1.4394,1.4638,1.4774,1.4848,1.5086,1.5181,1.5194,1.5296,1.5459,1.5649,1.5744,1.5913,1.6083,1.6083,1.6083,1.6123,1.6327,1.6449,1.6564,1.6775,1.6904,1.6971,1.691,1.6937,1.6965,1.691,1.6937,1.6978,1.6978,1.6978,1.6978,1.6978,1.6978,1.6978,1.6978,1.6978,1.6978,1.6978,1.6978,1.6978,1.6978,1.6978,1.6978,1.6978,1.6978,1.6978,1.6978,1.6978,1.6978,1.6978,1.6978,1.6978,1.6978,1.6978,1.708,1.729,1.7087,1.7087,1.7297,1.708,1.6978,1.6978,1.6978,1.6978]}]]